[[{"header":{"parameterUnit":"m.s-1","parameterCategory":1,"la1":30.6,"la2":29.2853,"lo1":-89.7004,"lo2":-87.6739,"dy":0.0162,"dx":0.0183,"nx":112,"ny":82,"refTime":"2024-12-04T18:00:00:Z","depth":0,"parameterNumber":2,"parameterNumberName":"U-component_of_WINDS"},"data":[0.0,0.0,0.0,0.0,0.0,0.0,0.0,0.0,0.0,0.0,0.0,0.0,0.0,0.0,0.0,0.0,0.0,0.0,0.0,0.0,0.0,0.0,0.0,0.0,0.0,0.0,0.0,0.0,0.0,0.0,0.0,0.0,0.0,0.0,0.0,0.0,0.0,0.0,0.0,0.0,0.0,0.0,0.0,0.0,0.0,0.0,0.0,0.0,0.0,0.0,0.0,0.0,0.0,0.0,0.0,0.0,0.0,0.0,0.0,0.0,0.0,0.0,0.0,0.0,0.0,0.0,0.0,0.0,0.0,0.0,0.0,0.0,0.0,0.0,0.0,0.0,0.0,0.0,0.0,0.0,0.0,0.0,0.0,0.0,0.0,0.0,0.0,0.0,0.0,0.0,-5.0449,-5.1913,-5.4725,-5.6236,-5.5668,-5.5911,-5.4225,-4.976,0.0,0.0,0.0,0.0,0.0,0.0,0.0,0.0,0.0,0.0,0.0,0.0,0.0,0.0,0.0,0.0,0.0,0.0,0.0,0.0,0.0,0.0,0.0,0.0,0.0,0.0,0.0,0.0,0.0,0.0,0.0,0.0,0.0,0.0,0.0,0.0,0.0,0.0,0.0,0.0,0.0,0.0,0.0,0.0,0.0,0.0,0.0,0.0,0.0,0.0,0.0,0.0,0.0,0.0,0.0,0.0,0.0,0.0,0.0,0.0,0.0,0.0,0.0,0.0,0.0,0.0,0.0,0.0,0.0,0.0,0.0,0.0,0.0,0.0,0.0,0.0,0.0,0.0,0.0,0.0,0.0,0.0,0.0,0.0,0.0,0.0,0.0,0.0,0.0,0.0,0.0,0.0,0.0,0.0,0.0,0.0,0.0,0.0,0.0,0.0,0.0,0.0,0.0,0.0,-5.0522,-5.4316,-5.5174,-5.5527,-5.5575,-5.3808,-5.1978,-5.0351,0.0,0.0,0.0,0.0,0.0,0.0,0.0,0.0,0.0,0.0,0.0,0.0,0.0,0.0,0.0,0.0,0.0,0.0,0.0,0.0,0.0,0.0,0.0,0.0,0.0,0.0,0.0,0.0,0.0,0.0,0.0,0.0,0.0,0.0,0.0,0.0,0.0,0.0,0.0,0.0,0.0,0.0,0.0,0.0,0.0,0.0,0.0,0.0,0.0,0.0,0.0,0.0,0.0,0.0,0.0,0.0,0.0,0.0,0.0,0.0,0.0,0.0,0.0,0.0,0.0,0.0,0.0,0.0,0.0,0.0,0.0,0.0,0.0,0.0,0.0,0.0,0.0,0.0,0.0,0.0,0.0,0.0,0.0,0.0,0.0,0.0,0.0,0.0,0.0,0.0,0.0,0.0,0.0,0.0,0.0,0.0,0.0,0.0,0.0,0.0,0.0,0.0,0.0,-4.915,-5.0856,-5.426,-5.4651,-5.4724,-5.4917,-5.3508,-5.179,-4.9886,-4.9363,0.0,0.0,0.0,0.0,0.0,0.0,0.0,0.0,0.0,0.0,0.0,0.0,0.0,0.0,0.0,0.0,0.0,0.0,0.0,0.0,0.0,0.0,0.0,0.0,0.0,0.0,0.0,0.0,0.0,0.0,0.0,0.0,0.0,0.0,0.0,0.0,0.0,0.0,0.0,0.0,0.0,0.0,0.0,0.0,0.0,0.0,0.0,0.0,0.0,0.0,0.0,0.0,0.0,0.0,0.0,0.0,0.0,0.0,0.0,0.0,0.0,0.0,0.0,0.0,0.0,0.0,0.0,0.0,0.0,0.0,0.0,0.0,0.0,0.0,0.0,0.0,0.0,0.0,0.0,0.0,0.0,0.0,0.0,0.0,0.0,0.0,0.0,0.0,0.0,0.0,0.0,0.0,0.0,0.0,0.0,0.0,0.0,0.0,0.0,0.0,0.0,0.0,-5.0562,-5.134,-5.3831,-5.4091,-5.4088,-5.4057,-5.317,-5.1528,-4.908,-4.7981,0.0,0.0,0.0,0.0,0.0,0.0,0.0,0.0,0.0,0.0,0.0,0.0,0.0,0.0,0.0,0.0,0.0,0.0,0.0,0.0,0.0,0.0,0.0,0.0,0.0,0.0,0.0,0.0,0.0,0.0,0.0,0.0,0.0,0.0,0.0,0.0,0.0,0.0,0.0,0.0,0.0,0.0,0.0,0.0,0.0,0.0,0.0,0.0,0.0,0.0,0.0,0.0,0.0,0.0,0.0,0.0,0.0,0.0,0.0,0.0,0.0,0.0,0.0,0.0,0.0,0.0,0.0,0.0,0.0,0.0,0.0,0.0,0.0,0.0,0.0,0.0,0.0,0.0,0.0,0.0,0.0,0.0,0.0,0.0,0.0,0.0,0.0,0.0,0.0,0.0,0.0,0.0,0.0,0.0,0.0,0.0,0.0,0.0,0.0,0.0,0.0,0.0,-5.0376,-5.201,-5.3795,-5.4036,-5.3846,-5.3147,-5.1731,-5.0065,-4.8183,-4.6561,0.0,0.0,0.0,0.0,0.0,0.0,0.0,0.0,0.0,0.0,0.0,0.0,0.0,0.0,0.0,0.0,0.0,0.0,0.0,0.0,0.0,0.0,0.0,0.0,0.0,0.0,0.0,0.0,0.0,0.0,0.0,0.0,0.0,0.0,0.0,0.0,0.0,0.0,0.0,0.0,0.0,0.0,0.0,0.0,0.0,0.0,0.0,0.0,0.0,0.0,0.0,0.0,0.0,0.0,0.0,0.0,0.0,0.0,0.0,0.0,0.0,0.0,0.0,0.0,0.0,0.0,0.0,0.0,0.0,0.0,0.0,0.0,0.0,0.0,0.0,0.0,0.0,0.0,0.0,0.0,0.0,0.0,0.0,0.0,0.0,0.0,0.0,0.0,0.0,0.0,0.0,0.0,0.0,0.0,0.0,0.0,0.0,0.0,0.0,0.0,0.0,0.0,-4.993,-5.149,0.0,-5.4019,-5.3774,-5.3055,-5.1532,-4.9851,-4.8109,0.0,0.0,0.0,0.0,0.0,0.0,0.0,0.0,0.0,0.0,0.0,0.0,0.0,0.0,0.0,0.0,0.0,0.0,0.0,0.0,0.0,0.0,0.0,0.0,0.0,0.0,0.0,0.0,0.0,0.0,0.0,0.0,0.0,0.0,0.0,0.0,0.0,0.0,0.0,0.0,0.0,0.0,0.0,0.0,0.0,0.0,0.0,0.0,0.0,0.0,0.0,0.0,0.0,0.0,0.0,0.0,0.0,0.0,0.0,0.0,0.0,0.0,0.0,0.0,0.0,0.0,0.0,0.0,0.0,0.0,0.0,0.0,0.0,0.0,0.0,0.0,0.0,0.0,0.0,0.0,0.0,0.0,0.0,0.0,0.0,0.0,0.0,0.0,0.0,0.0,0.0,0.0,0.0,0.0,0.0,0.0,0.0,0.0,0.0,0.0,0.0,0.0,-4.863,-4.9893,-5.1453,0.0,-5.374,-5.3291,-5.2594,-5.0813,-4.9129,-4.765,0.0,0.0,0.0,0.0,0.0,0.0,0.0,0.0,0.0,0.0,0.0,0.0,0.0,0.0,0.0,0.0,0.0,0.0,0.0,0.0,0.0,0.0,0.0,0.0,0.0,0.0,0.0,0.0,0.0,0.0,0.0,0.0,0.0,0.0,0.0,0.0,0.0,0.0,0.0,0.0,0.0,0.0,0.0,0.0,0.0,0.0,0.0,0.0,0.0,0.0,0.0,0.0,0.0,0.0,0.0,0.0,0.0,0.0,0.0,0.0,0.0,0.0,0.0,0.0,0.0,0.0,0.0,0.0,0.0,0.0,0.0,0.0,0.0,0.0,0.0,0.0,0.0,0.0,0.0,0.0,0.0,0.0,0.0,0.0,0.0,0.0,0.0,0.0,0.0,0.0,0.0,0.0,0.0,0.0,0.0,0.0,0.0,0.0,0.0,0.0,0.0,0.0,-4.8704,-5.0376,-5.2048,-5.3645,-5.3144,-5.238,-5.158,-4.9421,-4.7676,0.0,0.0,0.0,0.0,0.0,0.0,0.0,0.0,0.0,0.0,0.0,0.0,0.0,0.0,0.0,0.0,0.0,0.0,0.0,0.0,0.0,0.0,0.0,0.0,0.0,0.0,0.0,0.0,0.0,0.0,0.0,0.0,0.0,0.0,0.0,0.0,0.0,0.0,0.0,0.0,0.0,0.0,0.0,0.0,0.0,0.0,0.0,0.0,0.0,0.0,0.0,0.0,0.0,0.0,0.0,0.0,0.0,0.0,0.0,0.0,0.0,0.0,0.0,0.0,0.0,0.0,0.0,0.0,0.0,0.0,0.0,0.0,0.0,0.0,0.0,0.0,0.0,0.0,0.0,0.0,0.0,0.0,0.0,0.0,0.0,0.0,0.0,0.0,0.0,0.0,0.0,0.0,0.0,0.0,0.0,0.0,0.0,0.0,0.0,0.0,0.0,0.0,0.0,-4.8779,-5.0859,-5.2642,-5.3683,-5.359,-5.2921,-5.1617,-4.9806,-4.8108,-4.668,0.0,0.0,0.0,0.0,0.0,0.0,0.0,0.0,0.0,0.0,0.0,0.0,0.0,0.0,0.0,0.0,0.0,0.0,0.0,0.0,0.0,0.0,0.0,0.0,0.0,0.0,0.0,0.0,0.0,0.0,0.0,0.0,0.0,0.0,0.0,0.0,0.0,0.0,0.0,0.0,0.0,0.0,0.0,0.0,0.0,0.0,0.0,0.0,0.0,0.0,0.0,0.0,0.0,0.0,0.0,0.0,0.0,0.0,0.0,0.0,0.0,0.0,0.0,0.0,0.0,0.0,0.0,0.0,0.0,0.0,0.0,0.0,0.0,0.0,0.0,0.0,0.0,0.0,0.0,0.0,0.0,0.0,0.0,0.0,0.0,0.0,0.0,0.0,0.0,0.0,0.0,0.0,0.0,0.0,0.0,0.0,0.0,0.0,0.0,0.0,0.0,0.0,-4.8816,-5.1082,-5.2902,-5.372,-5.3497,-5.281,-5.1563,-4.9663,-4.7967,-4.6631,0.0,0.0,0.0,0.0,0.0,0.0,0.0,0.0,0.0,0.0,0.0,0.0,0.0,0.0,0.0,0.0,0.0,0.0,0.0,0.0,0.0,0.0,0.0,0.0,0.0,0.0,0.0,0.0,0.0,0.0,0.0,0.0,0.0,0.0,0.0,0.0,0.0,0.0,0.0,0.0,0.0,0.0,0.0,0.0,0.0,0.0,0.0,0.0,0.0,0.0,0.0,0.0,0.0,0.0,0.0,0.0,0.0,0.0,0.0,0.0,0.0,0.0,0.0,0.0,0.0,0.0,0.0,0.0,0.0,0.0,0.0,0.0,0.0,0.0,0.0,0.0,0.0,0.0,0.0,0.0,0.0,0.0,0.0,0.0,0.0,0.0,0.0,0.0,0.0,0.0,0.0,0.0,0.0,0.0,0.0,0.0,0.0,0.0,0.0,0.0,0.0,0.0,-4.8927,-5.1193,-5.2977,-5.372,-5.3162,-5.2364,-5.1472,-4.9348,-4.7616,-4.6583,0.0,0.0,0.0,0.0,0.0,0.0,0.0,0.0,0.0,0.0,0.0,0.0,0.0,0.0,0.0,0.0,0.0,0.0,0.0,0.0,0.0,0.0,0.0,0.0,0.0,0.0,0.0,0.0,0.0,0.0,0.0,0.0,0.0,0.0,0.0,0.0,0.0,0.0,0.0,0.0,0.0,0.0,0.0,0.0,0.0,0.0,0.0,0.0,0.0,0.0,0.0,0.0,0.0,0.0,0.0,0.0,0.0,0.0,0.0,0.0,-4.523,-4.4739,0.0,0.0,0.0,0.0,0.0,0.0,0.0,0.0,0.0,0.0,0.0,0.0,0.0,0.0,0.0,0.0,0.0,0.0,0.0,0.0,0.0,0.0,0.0,0.0,0.0,0.0,0.0,0.0,0.0,0.0,0.0,0.0,0.0,0.0,0.0,0.0,0.0,0.0,0.0,0.0,-4.9745,-5.2011,-5.3608,-5.3794,-5.3758,-5.3088,-5.1599,-5.0457,-4.894,-4.6781,-4.4349,0.0,0.0,0.0,0.0,0.0,0.0,0.0,0.0,0.0,0.0,0.0,0.0,0.0,0.0,0.0,0.0,0.0,0.0,0.0,0.0,0.0,0.0,0.0,0.0,0.0,0.0,0.0,0.0,0.0,0.0,0.0,0.0,0.0,0.0,0.0,0.0,0.0,0.0,0.0,0.0,0.0,0.0,0.0,0.0,0.0,0.0,0.0,0.0,0.0,0.0,0.0,0.0,0.0,0.0,0.0,0.0,0.0,0.0,0.0,-4.6298,-4.5627,0.0,0.0,0.0,0.0,0.0,0.0,0.0,0.0,0.0,0.0,0.0,0.0,0.0,0.0,0.0,0.0,0.0,0.0,0.0,0.0,0.0,0.0,0.0,0.0,0.0,0.0,0.0,0.0,0.0,0.0,0.0,0.0,0.0,0.0,0.0,0.0,0.0,0.0,0.0,0.0,-4.9485,-5.2048,-5.3794,-5.3794,-5.3869,-5.3237,-5.16,-5.0795,-4.945,-4.7313,-4.4931,0.0,0.0,0.0,0.0,0.0,0.0,0.0,0.0,0.0,0.0,0.0,0.0,0.0,0.0,0.0,0.0,0.0,0.0,0.0,0.0,0.0,0.0,0.0,0.0,0.0,0.0,0.0,0.0,0.0,0.0,0.0,0.0,0.0,0.0,0.0,0.0,0.0,0.0,0.0,0.0,0.0,0.0,0.0,0.0,0.0,0.0,0.0,0.0,0.0,0.0,0.0,0.0,0.0,-4.8352,-4.8845,-4.948,-4.948,-4.9382,-4.9101,-4.7979,-4.7127,-4.6487,-4.587,0.0,0.0,0.0,0.0,0.0,0.0,0.0,0.0,0.0,0.0,0.0,0.0,0.0,0.0,0.0,0.0,0.0,0.0,0.0,0.0,0.0,0.0,-5.0562,-4.9745,-5.0711,-5.1231,-4.9039,0.0,0.0,0.0,0.0,0.0,0.0,0.0,0.0,0.0,0.0,0.0,-4.9336,-5.1936,-5.3794,-5.3794,-5.3683,-5.2995,-5.1546,-5.0743,-4.9569,-4.7863,-4.5848,-4.4715,0.0,0.0,0.0,0.0,0.0,0.0,0.0,0.0,0.0,0.0,0.0,0.0,0.0,0.0,0.0,0.0,0.0,0.0,0.0,0.0,0.0,0.0,0.0,0.0,0.0,0.0,0.0,0.0,0.0,0.0,0.0,0.0,-4.6404,-4.494,0.0,0.0,0.0,0.0,0.0,0.0,0.0,0.0,0.0,0.0,0.0,0.0,0.0,-4.7809,-4.8658,-4.9271,-4.9598,-4.9674,-5.0193,-5.05,-5.0574,-5.0574,-5.0591,-5.0551,-5.0333,0.0,-4.693,-4.6194,0.0,0.0,0.0,0.0,0.0,0.0,0.0,0.0,0.0,0.0,0.0,0.0,0.0,0.0,0.0,0.0,0.0,0.0,0.0,0.0,0.0,0.0,-5.3125,-5.2308,-5.2828,-5.32,-5.2197,-5.045,-4.8742,-4.759,-4.7553,-4.7367,0.0,0.0,0.0,0.0,0.0,0.0,-5.0971,-5.2679,-5.3794,-5.3794,-5.3237,-5.2473,-5.1562,-5.0793,-4.9704,-4.8082,-4.7003,-4.642,-4.638,-4.4325,0.0,0.0,0.0,0.0,0.0,0.0,0.0,0.0,0.0,0.0,0.0,0.0,0.0,0.0,0.0,0.0,0.0,0.0,0.0,0.0,0.0,0.0,0.0,0.0,0.0,0.0,0.0,0.0,0.0,-4.5819,-4.6485,-4.4826,-4.6341,-4.6953,0.0,0.0,0.0,0.0,0.0,0.0,0.0,0.0,0.0,-4.8427,-4.8759,-4.9062,-4.936,-5.0083,-5.0671,-5.1113,-5.136,-5.172,-5.216,-5.216,-5.216,-5.216,-5.216,-5.1279,-4.9774,-4.8489,-4.7755,-4.7315,0.0,0.0,0.0,0.0,-4.6415,-4.6948,-4.785,-4.7887,-4.7647,-4.7924,0.0,0.0,0.0,0.0,0.0,0.0,0.0,-5.01,-5.0247,-5.1714,-5.3162,-5.3237,-5.3534,-5.372,-5.3348,-5.2419,-5.1156,-4.9447,-4.9485,-4.9224,-4.7478,-4.681,0.0,0.0,0.0,-5.0228,-5.0636,-5.2494,-5.3645,-5.3162,-5.2828,-5.2103,-5.0839,-5.048,-4.9806,-4.86,-4.7858,-4.742,-4.7324,-4.5947,-4.5103,0.0,0.0,0.0,0.0,0.0,0.0,0.0,0.0,0.0,0.0,0.0,0.0,0.0,0.0,0.0,0.0,0.0,0.0,0.0,0.0,0.0,0.0,0.0,0.0,0.0,0.0,0.0,0.0,-4.5933,-4.6544,-4.4799,-4.6488,-4.7213,0.0,0.0,0.0,0.0,0.0,0.0,-4.8408,-4.852,-4.8857,-4.9602,-5.0213,-5.0488,-5.0435,-5.1096,-5.172,-5.2307,-5.2307,-5.2637,-5.3203,-5.3203,-5.3203,-5.3203,-5.3203,-5.2858,-5.216,-5.0545,-4.9794,-4.9463,-4.7976,-4.7773,-4.8269,-4.7884,-4.8161,-4.8804,-4.9709,-4.9894,-4.969,-4.9565,-4.9362,-4.8938,-4.7517,0.0,0.0,0.0,0.0,-5.0896,-5.1528,-5.2308,-5.3051,-5.3683,-5.3794,-5.3794,-5.3794,-5.3794,-5.32,-5.1193,-5.1305,-5.1045,-4.9002,-4.8147,0.0,-4.7564,-4.925,-5.0546,-5.0546,-5.2324,-5.3382,-5.2661,-5.2419,-5.1714,-5.0228,-4.9983,-4.974,-4.9224,-4.8803,-4.8646,-4.8749,-4.8049,-4.7276,-4.6439,0.0,0.0,0.0,0.0,0.0,0.0,0.0,0.0,0.0,0.0,0.0,0.0,0.0,0.0,0.0,0.0,0.0,0.0,0.0,0.0,0.0,0.0,0.0,0.0,0.0,0.0,0.0,0.0,0.0,-4.5054,-4.7387,0.0,0.0,0.0,0.0,-4.7852,-4.7875,-4.8466,-4.9821,-4.9914,-5.0509,-5.1797,-5.1871,-5.2254,-5.2983,-5.3057,-5.3093,-5.3151,-5.3151,-5.3188,-5.3203,-5.3203,-5.3203,-5.3203,-5.3203,-5.3167,-5.2983,-5.1389,-5.0288,-4.95,-4.86,-4.8269,-4.8379,-4.9266,-4.9599,-4.9746,-5.0709,-5.0564,-5.0232,-5.1712,-5.1694,-5.0898,-5.0083,-4.9824,0.0,0.0,-5.112,-5.2494,-5.2531,-5.3162,-5.3757,-5.3794,-5.3794,-5.3794,-5.3794,-5.3794,-5.3534,-5.2642,-5.2531,-5.2271,-5.1379,0.0,-5.0991,-5.0458,-5.1189,-5.1814,-5.1814,-5.2606,-5.3027,-5.2642,-5.1936,-5.1082,-5.019,-4.941,-4.9262,-5.0005,-5.013,-5.05,-5.1282,-5.0623,-4.982,-4.8952,-4.8215,0.0,0.0,0.0,0.0,0.0,0.0,0.0,0.0,0.0,0.0,0.0,0.0,0.0,0.0,0.0,0.0,0.0,0.0,0.0,0.0,0.0,0.0,0.0,0.0,0.0,0.0,0.0,0.0,-4.6613,-4.8007,0.0,-4.816,-4.8103,-4.8431,-4.9216,-4.9137,-4.9695,-5.1222,-5.1295,-5.1751,-5.2747,-5.2784,-5.2931,-5.3203,-5.3203,-5.3203,-5.3203,-5.3203,-5.3203,-5.3203,-5.3203,-5.3203,-5.3203,-5.3203,-5.3203,-5.3188,-5.2601,-5.2197,-5.183,-5.0986,-5.0986,-5.1426,-5.129,-5.1551,-5.2086,-5.2597,-5.2562,-5.2284,-5.2379,-5.1861,-5.1176,-5.0935,-5.125,-5.1658,-5.1658,-5.2512,-5.3385,-5.3385,-5.3608,-5.3794,-5.3794,-5.3794,-5.3794,-5.3794,-5.3794,-5.372,-5.3423,-5.294,-5.24,-5.1817,-5.1278,-5.0814,-5.0618,-5.1332,-5.2005,-5.2321,-5.3043,-5.3287,-5.2661,-5.2345,-5.1825,-5.1008,-5.0153,-4.9819,-5.0153,-4.9705,-4.9743,-5.056,-5.0425,-4.9938,-4.9047,-4.8849,-4.7245,0.0,0.0,0.0,0.0,0.0,0.0,0.0,0.0,0.0,0.0,0.0,0.0,0.0,0.0,0.0,0.0,0.0,0.0,0.0,0.0,0.0,0.0,0.0,0.0,0.0,0.0,-4.6895,-4.7653,-4.859,-4.9277,-4.9463,-4.9486,-4.9806,-5.0601,-5.05,-5.0986,-5.2344,-5.2417,-5.2637,-5.3167,-5.3203,-5.3203,-5.3203,-5.3203,-5.3203,-5.3203,-5.3203,-5.3203,-5.3203,-5.3203,-5.3203,-5.3203,-5.3203,-5.3203,-5.3203,-5.3203,-5.3203,-5.313,-5.2601,-5.2747,-5.3151,-5.2647,-5.2798,-5.3339,-5.3598,-5.3617,-5.3467,-5.301,-5.2492,-5.2085,-5.2178,-5.2568,-5.3014,-5.3014,-5.3385,-5.3794,-5.3794,-5.3794,-5.3794,-5.3794,-5.3794,-5.3794,-5.3794,-5.3794,-5.3794,-5.3794,-5.3385,-5.2919,-5.2572,-5.1912,-5.1442,-5.1442,-5.1757,-5.2208,-5.2708,-5.321,-5.3306,-5.2661,-5.2605,-5.2271,-5.1454,-5.0599,-5.0228,-5.0562,-4.9782,-4.967,-5.0488,-5.0615,-5.0279,-4.9385,-4.921,-4.8182,-4.6233,0.0,0.0,0.0,0.0,0.0,0.0,0.0,0.0,0.0,0.0,0.0,0.0,0.0,0.0,0.0,0.0,0.0,0.0,0.0,0.0,0.0,0.0,0.0,-4.5238,-4.6919,-4.81,-4.8091,-4.925,-5.0063,-5.0101,-5.0558,-5.1206,-5.1977,-5.205,-5.238,-5.3188,-5.3203,-5.3203,-5.3203,-5.3203,-5.3203,-5.3203,-5.3203,-5.3203,-5.3203,-5.3203,-5.3203,-5.3203,-5.3203,-5.3203,-5.3203,-5.3203,-5.3203,-5.3203,-5.3203,-5.3203,-5.3203,-5.3203,-5.3203,-5.3203,-5.3225,-5.3272,-5.3359,-5.3598,-5.3714,-5.3733,-5.3793,-5.3794,-5.3794,-5.3794,-5.3794,-5.3794,-5.3794,-5.3794,-5.3794,-5.3794,-5.3794,-5.3794,-5.3794,-5.3794,-5.3794,-5.3794,-5.3794,-5.3794,-5.3794,-5.3775,-5.3756,-5.3756,-5.3383,-5.3057,-5.3057,-5.263,0.0,-5.3036,-5.3078,-5.2987,-5.2679,-5.2642,-5.2308,-5.1528,-5.0636,-5.0488,-5.1342,-5.0562,-5.045,-5.1342,-5.1416,-5.1008,-5.019,-4.9443,-4.9494,-5.0276,0.0,0.0,0.0,0.0,0.0,0.0,0.0,0.0,0.0,0.0,0.0,0.0,0.0,0.0,0.0,0.0,0.0,0.0,0.0,0.0,0.0,-4.5854,-4.6194,-4.6834,-4.7677,-4.8679,-4.9879,-5.0873,-5.1698,-5.2267,-5.2459,-5.2637,-5.2858,-5.2858,-5.2968,-5.3167,-5.3203,-5.3203,-5.3203,-5.3203,-5.3203,-5.3203,-5.3203,-5.3203,-5.3203,-5.3203,-5.3203,-5.3203,-5.3203,-5.3203,-5.3203,-5.3203,-5.3203,-5.3203,-5.3203,-5.3203,-5.3203,-5.3203,-5.3203,-5.3225,-5.3375,-5.3501,-5.3678,-5.3754,-5.3774,-5.3793,-5.3775,-5.3794,-5.3794,-5.3794,-5.3794,-5.3794,-5.3794,-5.3794,-5.3794,-5.3794,-5.3794,-5.3794,-5.3794,-5.3794,-5.3794,-5.3794,-5.3794,-5.3794,-5.3794,-5.3504,-5.3162,-5.2806,-5.2593,-5.2391,-5.2054,-5.1897,-5.2101,-5.2993,-5.3078,-5.3208,-5.344,-5.346,-5.3385,-5.3162,-5.1862,-5.1156,-5.1379,-5.0042,-4.9893,-5.1342,-5.1416,-5.1565,-5.1899,-5.1137,-5.056,0.0,0.0,0.0,0.0,0.0,0.0,0.0,0.0,0.0,0.0,0.0,0.0,0.0,0.0,0.0,0.0,0.0,0.0,0.0,0.0,0.0,0.0,-4.6706,-4.7179,-4.8308,-4.8827,-4.9657,-5.1116,-5.1885,-5.2515,-5.3115,-5.3203,-5.3203,-5.3203,-5.3203,-5.3203,-5.3203,-5.3203,-5.3203,-5.3203,-5.3203,-5.3203,-5.3203,-5.3203,-5.3203,-5.3203,-5.3203,-5.3203,-5.3203,-5.3203,-5.3203,-5.3203,-5.3203,-5.3203,-5.3203,-5.3203,-5.3203,-5.3203,0.0,0.0,0.0,0.0,-5.3617,-5.3774,-5.3775,-5.3794,-5.3794,-5.3794,-5.3794,-5.3794,-5.3794,-5.3794,-5.3794,-5.3794,-5.3794,-5.3794,-5.3794,-5.3794,-5.3794,-5.3794,-5.3794,-5.3794,-5.3794,-5.3794,-5.3737,-5.3524,-5.3302,0.0,-5.2149,-5.203,-5.1982,-5.191,-5.175,-5.1897,-5.2674,-5.2762,-5.2972,-5.3444,-5.3504,-5.36,-5.3775,-5.2642,0.0,0.0,0.0,-5.0525,-5.1862,-5.1565,0.0,0.0,0.0,0.0,0.0,0.0,0.0,0.0,-5.3222,-5.3412,0.0,0.0,0.0,0.0,0.0,0.0,0.0,0.0,0.0,0.0,0.0,0.0,0.0,0.0,0.0,0.0,-4.7475,-4.7887,-4.9599,-5.0138,-5.0767,-5.1875,-5.2435,-5.2845,-5.3178,-5.323,-5.323,-5.3188,-5.3188,-5.3203,-5.3203,-5.3203,0.0,0.0,0.0,-5.3203,-5.3203,-5.3203,-5.3203,-5.3203,-5.3203,-5.3203,-5.3203,-5.3203,-5.3203,-5.3203,-5.3203,-5.3203,-5.3203,-5.3203,-5.3203,-5.3203,-5.3203,-5.3188,-5.323,-5.3437,-5.3578,-5.3714,-5.3793,0.0,0.0,-5.3794,-5.3794,-5.3794,-5.3794,-5.3794,-5.3794,-5.3794,-5.3794,-5.3794,-5.3794,-5.3794,-5.3794,-5.3794,-5.3794,-5.3775,-5.3737,-5.3717,-5.3563,-5.3099,-5.2972,-5.2666,-5.175,-5.1601,-5.1725,-5.2089,-5.1788,-5.1701,-5.2159,-5.2276,-5.2504,-5.3036,-5.3178,0.0,-5.3756,-5.3051,-5.2605,-5.2605,-5.1936,-5.1899,-5.2717,-5.2159,-5.2865,-5.5094,-5.4611,-5.5391,-5.7509,-5.7769,-5.8624,-5.9812,-5.596,-5.5488,0.0,0.0,0.0,0.0,0.0,0.0,0.0,0.0,0.0,0.0,0.0,0.0,0.0,0.0,0.0,-4.7458,-4.7475,-4.8089,-5.0353,-5.1046,-5.1507,-5.2032,-5.2897,-5.3456,-5.3281,-5.3484,-5.3524,-5.3297,-5.323,-5.3203,-5.3203,-5.3203,-5.3203,-5.3203,-5.3203,-5.3203,-5.3203,-5.3203,-5.3203,-5.3203,-5.3203,0.0,-5.3203,-5.3203,-5.3203,-5.3203,-5.3203,-5.3203,-5.3203,-5.3203,-5.3203,-5.3203,-5.3203,-5.323,-5.3297,-5.344,-5.3578,-5.3714,-5.3793,-5.3794,-5.3794,-5.3794,-5.3794,-5.3794,-5.3794,-5.3794,0.0,-5.3794,-5.3794,-5.3794,-5.3794,-5.3794,-5.3794,-5.3794,-5.3794,-5.3698,-5.3322,-5.3261,-5.3078,-5.2549,-5.2149,-5.1824,-5.1626,-5.1601,-5.151,-5.1201,-5.1079,-5.1211,-5.1676,-5.2078,-5.2504,-5.3036,-5.3444,-5.3698,-5.3775,-5.3051,-5.2605,-5.2605,-5.2457,-5.2717,-5.3534,-5.4054,-5.4871,-5.6023,-5.7175,-5.7695,-5.7509,-5.9515,-6.0295,-5.9887,-5.8395,-5.8971,0.0,0.0,0.0,0.0,0.0,0.0,0.0,0.0,0.0,0.0,0.0,-4.5,-4.6055,0.0,-4.7095,-4.8582,-4.8624,-4.9213,-5.1315,-5.1729,-5.2065,-5.2784,-5.346,-5.3758,-5.3543,-5.3504,-5.3504,-5.3504,-5.3297,-5.3272,-5.3461,-5.3293,-5.3203,-5.3203,-5.3203,-5.3203,-5.3203,-5.3203,-5.3203,-5.3203,-5.3203,-5.3203,-5.3203,-5.3203,-5.3203,-5.3203,-5.3203,-5.3203,-5.3203,-5.3203,-5.3203,-5.3203,-5.3203,-5.3251,-5.3318,-5.338,-5.3538,-5.3714,-5.3735,-5.3774,-5.3794,-5.3794,-5.3794,-5.3794,-5.3794,-5.3794,-5.3794,-5.3794,-5.3794,-5.3794,-5.3794,-5.3794,-5.3794,-5.3794,-5.3794,-5.3737,-5.3484,-5.3444,-5.3322,-5.2806,-5.2276,-5.1886,-5.1651,-5.1408,-5.1158,-5.0927,-5.0873,-5.1088,-5.1561,-5.1788,-5.2266,-5.3014,-5.3322,-5.3524,-5.3775,-5.3794,-5.3794,-5.3794,-5.4203,-5.4797,-5.5614,-5.606,-5.684,-5.8103,-5.8884,-5.9329,-5.9367,-6.1001,-6.1596,-6.115,-6.1347,-6.1957,0.0,0.0,0.0,0.0,0.0,0.0,0.0,0.0,-4.4929,-4.4929,-4.559,-4.636,-4.7169,-4.7555,-4.8237,-4.9621,-4.9933,-5.0485,-5.2018,-5.22,-5.2557,-5.3626,-5.3888,-5.3925,-5.3777,-5.3604,-5.3602,-5.372,-5.3444,-5.338,-5.3565,-5.3339,-5.3203,-5.3203,-5.3203,-5.3203,-5.3203,-5.3203,-5.3203,-5.3203,-5.3203,-5.3203,-5.3203,-5.3203,-5.3203,-5.3203,-5.3203,-5.3203,-5.3203,-5.3203,-5.3203,-5.3225,-5.3209,-5.3272,-5.3318,-5.3339,-5.3498,-5.3714,-5.3733,-5.3754,-5.3794,-5.3794,-5.3794,-5.3794,-5.3794,-5.3794,-5.3794,-5.3794,-5.3794,-5.3794,-5.3794,-5.3794,-5.3794,-5.3794,-5.3794,-5.3775,-5.3678,-5.3678,-5.3484,-5.2929,-5.2472,-5.1994,-5.1525,-5.1132,-5.0873,-5.0873,-5.0873,-5.1088,-5.1561,-5.1676,-5.2078,-5.2993,-5.3162,-5.3457,-5.3978,-5.4648,-5.5094,-5.5243,-5.5912,-5.6729,-5.7695,-5.7732,-5.8512,-6.0147,-6.0333,-6.0741,-6.1447,-6.2264,-6.2636,-6.2673,-6.3705,-6.403,-4.4434,-4.5039,-4.559,-4.5516,-4.5553,-4.581,0.0,0.0,-4.5773,-4.5773,-4.6434,-4.704,-4.7279,-4.8458,-4.9489,-4.9692,-5.0413,-5.1187,-5.1928,-5.2418,-5.3012,-5.3777,-5.3907,-5.3944,-5.3943,-5.4138,-5.4176,-5.3907,-5.372,-5.3524,-5.3272,-5.3209,-5.3203,-5.3203,-5.3203,-5.3203,-5.3203,-5.3203,-5.3203,-5.3203,-5.3203,-5.3203,-5.3203,-5.3203,-5.3203,-5.3203,-5.3203,-5.3203,-5.3203,-5.3203,-5.3203,-5.3225,-5.3256,-5.3297,-5.3318,-5.342,-5.3578,-5.3714,-5.3774,-5.3775,-5.3794,-5.3794,-5.3794,-5.3794,-5.3794,-5.3794,-5.3794,-5.3794,-5.3794,-5.3794,-5.3794,-5.3794,-5.3794,-5.3794,-5.3794,-5.3698,-5.3281,-5.3198,-5.2907,-5.197,-5.1725,-5.1525,-5.1061,-5.0927,-5.0873,-5.0873,-5.0873,-5.1088,-5.1561,-5.1982,-5.2436,-5.3036,-5.3464,-5.4033,-5.4778,-5.4946,-5.5354,-5.6097,-5.6246,-5.6989,-5.8512,-5.8586,-5.9367,-6.1038,-6.1781,-6.219,-6.2264,-6.3082,-6.349,-6.349,-6.3967,-6.4332,-4.6434,-4.603,-4.5443,-4.6361,-4.6948,-4.7131,-4.6544,-4.6874,-4.7168,-4.6691,-4.7223,-4.7976,-4.8529,-4.9191,-5.0023,0.0,-5.156,-5.1999,-5.3011,-5.3122,-5.3329,-5.3941,-5.3998,-5.4034,-5.4207,-5.4376,-5.4392,-5.421,-5.3924,-5.372,-5.3602,-5.3355,-5.3203,-5.3203,-5.3203,-5.3203,-5.3203,-5.3203,-5.3203,-5.3203,-5.3203,-5.3203,-5.3203,-5.3203,-5.3203,-5.3203,-5.3203,-5.3203,-5.3203,-5.3203,-5.3203,-5.3225,-5.323,-5.3297,-5.342,-5.3461,-5.3578,-5.3714,-5.3716,-5.3774,-5.3794,-5.3794,-5.3794,-5.3794,-5.3794,-5.3794,-5.3794,-5.3794,-5.3794,-5.3794,-5.3794,-5.3794,-5.3794,-5.3794,-5.3794,-5.3737,-5.3543,-5.3302,-5.2972,-5.254,-5.2018,-5.1561,-5.1331,-5.1052,-5.0873,-5.0873,-5.0873,-5.1088,-5.1561,-5.203,-5.2593,-5.3424,-5.4086,-5.4648,-5.4983,-5.5912,-5.6617,-5.6989,-5.7435,-5.8215,-5.9346,-5.9887,-6.0704,-6.1893,-6.271,-6.3119,-6.3119,-6.3453,-6.3602,-6.3602,-6.4231,-6.4858,-4.6581,-4.603,-4.5351,-4.6746,-4.77,-4.8012,-4.6838,-4.7462,-4.8122,-4.7553,-4.7902,-4.8601,-4.9583,-4.997,-5.0694,-5.2436,-5.264,-5.2858,-5.374,-5.3662,-5.3682,-5.4048,-5.4156,-5.4259,-5.4441,-5.4506,-5.449,-5.4425,-5.4068,-5.3814,-5.3738,-5.338,-5.3203,-5.3203,-5.3203,-5.3203,-5.3203,-5.3203,-5.3203,-5.3203,-5.3203,-5.3203,-5.3203,-5.3203,-5.3203,-5.3203,-5.3203,-5.3203,-5.3203,-5.3203,-5.3203,-5.3225,-5.3209,-5.3355,-5.3481,-5.3558,-5.3617,-5.3716,-5.3716,-5.3754,-5.3794,-5.3794,-5.3794,-5.3794,-5.3794,-5.3794,-5.3794,-5.3794,-5.3794,-5.3794,-5.3794,-5.3794,-5.3794,-5.3794,-5.398,-5.4128,-5.4128,-5.4041,-5.3902,-5.3609,-5.294,-5.2298,-5.1815,-5.1423,-5.1119,-5.0908,-5.1049,-5.1352,-5.1725,-5.2539,-5.3329,-5.4051,-5.4871,-5.5466,-5.5689,-5.6803,-5.7583,-5.7843,-5.8401,-5.9181,-6.0221,-6.0853,-6.167,-6.271,-6.3305,-6.3602,-6.3602,-6.3602,-6.3669,-6.3764,-6.4426,-6.5224,-4.3828,-4.4709,-4.6067,-4.6892,-4.77,-4.8306,-4.8233,-4.8269,-4.8306,-4.8269,-4.8269,-4.8678,-4.9963,-5.087,-5.1762,-5.2671,-5.3456,-5.3833,-5.3561,-5.3851,-5.4066,-5.4083,-5.4441,-5.4685,0.0,-5.4607,-5.456,-5.4484,-5.4103,-5.3738,-5.3359,-5.3251,-5.3203,-5.3203,-5.3203,-5.3203,-5.3203,-5.3203,-5.3203,-5.3203,-5.3203,-5.3203,-5.3203,-5.3203,-5.3203,-5.3203,-5.3203,-5.3203,-5.3203,-5.3203,-5.3203,-5.3225,-5.3256,-5.338,-5.3538,-5.3674,-5.3735,-5.3775,-5.3775,-5.3794,-5.3794,-5.3794,-5.3794,-5.3794,-5.3794,-5.3794,-5.3794,-5.3794,-5.3794,-5.3794,-5.3794,-5.3794,-5.3794,-5.3794,-5.4426,-5.4983,-5.4983,-5.5632,-5.5907,-5.4867,-5.4617,-5.4058,-5.2286,-5.1997,-5.1716,-5.1013,-5.1505,-5.2051,-5.2268,-5.3823,-5.4944,-5.4963,-5.5763,-5.658,-5.736,-5.7472,-5.7843,-5.8624,-5.8698,-5.9441,-6.1113,-6.1187,-6.1967,-6.3527,-6.3579,-6.3602,-6.3602,-6.3602,-6.3786,-6.4209,-6.4557,-6.5399,-4.4892,-4.548,-4.6214,-4.7553,-4.8122,-4.8306,-4.8306,-4.8306,-4.8306,-4.8306,-4.8477,-4.8935,-4.9874,-5.0817,-5.1797,-5.2894,-5.3403,-5.3833,-5.4245,-5.4035,-5.4017,-5.4506,-5.4446,0.0,0.0,0.0,0.0,-5.4313,-5.4088,-5.3851,-5.3578,-5.3314,-5.3209,-5.3256,-5.3209,-5.3203,-5.3203,-5.3203,-5.3203,-5.3203,-5.3203,-5.3203,-5.3203,-5.3203,-5.3203,-5.3203,-5.3203,-5.3203,-5.3203,-5.3203,-5.3203,-5.3225,-5.3209,-5.3355,-5.3501,-5.3558,-5.3676,-5.3794,-5.3794,-5.3794,-5.3794,-5.3794,-5.3794,-5.3794,-5.3794,-5.3794,-5.3794,-5.3794,-5.3794,-5.3943,-5.4463,-5.4611,-5.476,-5.5317,-5.5689,-5.5874,-5.5874,-5.5533,-5.5126,-5.4761,-5.4154,-5.3485,-5.2888,-5.2804,-5.2838,-5.2901,-5.2384,-5.244,-5.3737,-5.4391,-5.506,-5.5778,-5.6617,-5.7212,-5.7472,-5.7992,-5.8401,-5.8698,-5.9218,-6.0035,-6.115,-6.1707,-6.2524,-6.3602,-6.3602,-6.3602,-6.3602,-6.3602,-6.3808,-6.4229,-6.5142,-6.6197,-4.5112,-4.5663,-4.6287,-4.7902,-4.8306,-4.8306,-4.8306,-4.8306,-4.8344,-4.8439,-4.864,-4.9145,-5.0198,-5.0796,-5.1595,-5.2989,-5.3357,-5.3663,-5.4279,-5.4178,-5.4196,-5.4576,-5.438,-5.4351,0.0,0.0,0.0,-5.4248,-5.4035,-5.3851,-5.3714,-5.3396,-5.3272,-5.3297,-5.323,-5.3203,-5.3203,-5.3203,-5.3203,-5.3203,-5.3203,-5.3203,-5.3203,-5.3203,-5.3203,-5.3203,-5.3203,-5.3203,-5.3203,-5.3203,-5.3203,-5.3203,-5.3203,-5.3314,-5.3481,-5.3481,-5.362,-5.3794,-5.3794,-5.3794,-5.3794,-5.3794,-5.3794,-5.3794,-5.3794,-5.3794,-5.3868,-5.4166,-5.424,-5.4426,-5.5243,-5.5466,-5.5614,-5.6172,-5.6506,-5.6689,-5.6487,-5.6272,-5.6012,-5.5632,-5.504,-5.4445,-5.3969,-5.35,-5.3485,-5.4207,-5.3637,-5.3575,-5.4809,-5.5405,-5.5985,-5.6668,-5.7472,-5.7918,-5.7918,-5.8401,-5.8698,-5.8698,-5.9478,-6.0295,-6.115,-6.1967,-6.2784,-6.3602,-6.3602,-6.3602,-6.3602,-6.3602,-6.3808,-6.4229,-6.5445,-6.6671,-4.4562,-4.5369,-4.6397,-4.7939,-4.8306,-4.8306,-4.8306,-4.8306,-4.8364,-4.8693,-4.8799,-4.9276,0.0,0.0,-5.1299,-5.2887,-5.3305,-5.3536,-5.372,-5.4282,-5.456,0.0,0.0,0.0,0.0,0.0,0.0,-5.4228,0.0,-5.3714,-5.3714,-5.344,-5.3318,-5.3318,-5.323,-5.3203,-5.3203,-5.3203,-5.3203,-5.3203,-5.3203,-5.3203,-5.3203,-5.3203,-5.3203,-5.3203,-5.3203,-5.3203,-5.3203,-5.3203,-5.3225,-5.3225,-5.3225,-5.3334,-5.3501,-5.3501,-5.362,-5.3794,-5.3794,-5.3794,-5.3794,-5.3794,-5.3794,-5.3794,-5.3794,-5.3831,-5.4017,-5.4797,-5.5057,-5.528,-5.6134,-5.6357,-5.6357,-5.6432,-5.7026,-5.7423,-5.6897,-5.7765,-5.8363,-5.7315,-5.7065,-5.6608,-5.533,-5.4111,-5.3732,-5.4955,-5.5196,-5.5302,-5.5564,-5.6715,-5.7505,-5.7583,-5.8252,-5.8698,-5.8698,-5.8735,-5.8772,-5.8772,-5.9568,-6.0407,-6.1224,-6.2041,-6.2822,-6.3579,-6.3602,-6.3602,-6.3602,-6.3602,-6.3845,-6.4324,-6.552,-6.6709,-4.5553,-4.6617,-4.7792,-4.8196,-4.8306,-4.8306,-4.8306,-4.8306,-4.8325,-4.8402,-4.8796,-4.922,0.0,0.0,0.0,-5.2349,-5.3338,0.0,-5.4495,-5.4248,0.0,-5.4262,0.0,-5.3944,-5.3944,-5.3851,0.0,0.0,-5.3793,-5.3696,-5.3774,-5.3481,-5.3359,-5.344,-5.3293,-5.3203,-5.3203,-5.3203,-5.3203,-5.3203,-5.3203,-5.3203,-5.3203,-5.3203,-5.3203,-5.3203,-5.3203,-5.3203,-5.3203,-5.3203,-5.323,-5.3256,-5.3256,-5.3437,-5.3637,-5.3637,-5.3716,-5.3794,-5.3794,-5.3794,-5.3794,-5.3794,-5.3794,-5.3794,-5.3794,-5.424,-5.476,-5.4946,-5.5466,-5.6172,-5.6989,-5.7212,-5.736,-5.7955,-5.8252,-5.8359,-5.8217,-5.815,-5.7923,-5.7241,-5.6474,-5.5808,-5.5453,-5.5103,-5.5039,-5.536,-5.6071,-5.6742,-5.7244,-5.7573,-5.7943,-5.8359,-5.8586,-5.8698,-5.8698,-5.9255,-5.9568,-5.9568,-6.0964,-6.1856,-6.2079,-6.2896,-6.3416,-6.3602,-6.3602,-6.3602,-6.3602,-6.3602,-6.4278,-6.5557,-6.6538,-6.7774,-4.6324,-4.7352,-4.8306,-4.8306,-4.8306,-4.8306,-4.8306,-4.8402,-4.8532,-4.8532,-4.8932,0.0,-4.9048,-5.0523,0.0,0.0,0.0,0.0,-5.4276,-5.4107,-5.4018,0.0,-5.3926,0.0,-5.3794,-5.3794,-5.3794,0.0,-5.3774,-5.3754,-5.3794,-5.3541,-5.342,-5.3481,-5.3293,-5.3203,-5.3203,-5.3203,-5.3203,-5.3203,-5.3203,-5.3203,-5.3203,-5.3203,-5.3203,-5.3203,-5.3203,-5.3209,-5.3251,-5.3251,-5.3277,-5.338,-5.338,-5.3518,-5.3714,-5.3714,-5.3735,-5.3794,-5.3794,-5.4054,-5.4277,-5.3905,-5.3794,-5.3868,-5.424,-5.4648,-5.5169,-5.5912,-5.6469,-5.7026,-5.7843,-5.8029,-5.8141,-5.8586,-5.8698,-5.8635,-5.8406,-5.8105,-5.7653,-5.6912,-5.6257,-5.5793,-5.5537,-5.5507,-5.5596,-5.5822,-5.6546,-5.729,-5.7817,-5.8105,-5.8363,-5.8656,-5.8698,-5.8698,-5.8698,-5.942,-5.9903,-5.9903,-6.1484,-6.2413,-6.2413,-6.3193,-6.3602,-6.3602,-6.3602,-6.3602,-6.3602,-6.3951,-6.4684,-6.5748,-6.7183,-6.8426,-4.7039,-4.7773,-4.8306,-4.8306,-4.8306,-4.8306,-4.8306,-4.8532,-4.8729,-4.8729,0.0,-4.9224,-4.9177,-5.0101,-5.0975,-5.135,0.0,-5.3575,-5.3758,-5.3981,-5.4073,-5.3813,-5.3794,-5.3794,-5.3794,-5.3794,-5.3794,-5.3794,-5.3794,-5.3794,-5.3794,-5.36,-5.3481,-5.344,-5.3293,-5.3225,-5.3203,-5.3203,-5.3203,-5.3203,-5.3203,-5.3203,-5.3203,-5.3203,-5.3203,-5.3203,-5.3203,-5.323,-5.3297,-5.3297,-5.338,-5.3481,-5.3501,-5.3598,-5.3733,-5.3733,-5.3829,-5.398,-5.398,-5.45,-5.5057,-5.424,-5.4054,-5.4277,-5.4983,-5.5243,-5.5652,-5.71,-5.7583,-5.7843,-5.8512,-5.8698,-5.8698,-5.8698,-5.8698,-5.8572,-5.8105,-5.7973,-5.7668,-5.6788,-5.655,-5.6326,-5.5912,-5.5848,-5.6111,-5.655,-5.7159,-5.7716,-5.8147,-5.8511,-5.8735,-5.8846,-5.8884,-5.8921,-5.9032,-5.9775,-6.0237,-6.0237,-6.1707,-6.2562,-6.2562,-6.323,-6.3602,-6.3602,-6.3713,-6.3788,-6.3788,-6.4605,-6.5269,-6.5853,-6.7676,-6.878,-4.7865,-4.8196,-4.8306,-4.8306,-4.8306,-4.8306,-4.8306,-4.8344,0.0,0.0,-4.864,-4.8816,-4.8532,-4.9931,-5.1235,-5.1503,-5.2607,-5.3616,-5.4098,-5.3999,-5.3851,0.0,-5.3794,-5.3794,-5.3794,-5.3794,0.0,0.0,-5.3794,-5.3794,-5.3794,-5.36,-5.34,-5.3251,-5.3256,-5.3272,-5.3203,-5.3203,-5.3203,-5.3203,-5.3203,-5.3203,-5.3203,-5.3203,-5.3203,-5.3203,-5.3203,-5.3225,-5.3209,-5.3277,-5.338,-5.3501,-5.3617,-5.3716,-5.3793,-5.3793,-5.4221,-5.4797,-5.4797,-5.5354,-5.5949,-5.5094,-5.528,-5.5874,-5.6023,-5.6543,-5.7138,-5.7435,-5.7992,-5.8512,-5.8661,-5.8698,-5.8698,-5.8698,-5.8698,-5.8677,-5.8593,-5.839,-5.8197,-5.8208,-5.7842,-5.7525,-5.7403,-5.7783,-5.8189,-5.8267,-5.9186,-5.987,-5.9942,-5.9235,-5.8958,-5.9605,-5.9701,-5.9998,-6.0704,-6.1521,-6.1967,-6.1967,-6.2859,-6.3416,-6.3416,-6.3527,-6.3602,-6.3602,-6.4248,-6.4582,-6.4582,-6.5459,-6.6603,-6.796,-6.8319,-6.926,-4.8196,-4.8306,-4.8306,-4.8306,-4.8306,-4.8306,-4.8306,0.0,0.0,0.0,-4.8587,-4.8693,-4.8382,-4.977,0.0,-5.0741,-5.1904,-5.2953,-5.3359,-5.3274,0.0,-5.3757,-5.3794,-5.3794,-5.3794,-5.3794,-5.3794,-5.3794,-5.3794,-5.3794,-5.3794,-5.3676,-5.3498,-5.3272,-5.3277,-5.3256,-5.3203,-5.3203,-5.3203,-5.3203,-5.3203,-5.3203,-5.3203,-5.3203,-5.3203,-5.3203,-5.3203,-5.3209,-5.3272,-5.3359,-5.3461,-5.3617,-5.3716,-5.3774,-5.3868,-5.4277,-5.4686,-5.5057,-5.554,-5.6209,-5.6878,-5.6432,-5.632,-5.6395,-5.6803,-5.7212,-5.7583,-5.8029,-5.8401,-5.8698,-5.8698,-5.8698,-5.8809,-5.9218,-5.9434,-5.9485,-5.9195,-5.8765,-5.8391,-5.8219,-5.8003,-5.779,-5.779,-5.8326,-5.8723,-5.8723,-5.9662,-6.0406,-6.0406,-6.0159,-6.0147,-6.0555,-6.0593,-6.0741,-6.115,-6.193,-6.2413,-6.2413,-6.3156,-6.3602,-6.3602,-6.401,-6.4211,-6.4211,-6.5051,-6.5496,-6.5496,-6.6314,-6.7336,-6.8508,-6.8925,-6.9773,-4.8306,-4.8306,-4.8306,-4.8306,-4.8306,-4.8306,-4.8306,-4.8495,0.0,-4.8363,-4.8514,-4.8586,-4.8363,0.0,-5.0306,0.0,-5.1178,-5.2278,-5.2549,-5.2754,-5.3088,0.0,-5.3794,0.0,-5.3794,-5.3794,0.0,-5.3794,-5.3794,-5.3775,-5.3793,-5.3735,-5.3598,-5.3318,-5.3339,-5.3277,-5.3203,-5.3203,-5.3203,-5.3203,-5.3203,-5.3203,-5.3203,-5.3203,-5.3203,-5.3203,-5.3203,-5.323,-5.3277,-5.34,-5.3538,-5.3654,-5.392,-5.4053,-5.4127,-5.4963,-5.5391,-5.5652,-5.632,-5.71,-5.7769,-5.7769,-5.7323,-5.6952,-5.7583,-5.7769,-5.7881,-5.8512,-5.8846,-5.8958,-5.8958,-5.9107,-5.9361,-5.9869,-6.0149,-6.0152,-5.9697,-5.9191,-5.8756,-5.8369,-5.8281,-5.8281,-5.8281,-5.8792,-5.9195,-5.9195,-6.0171,-6.0884,-6.0884,-6.138,-6.1707,-6.1707,-6.1558,-6.1521,-6.1707,-6.2301,-6.2673,-6.2673,-6.3267,-6.3653,-6.3862,-6.4433,-6.4879,-6.5088,-6.5942,-6.6351,-6.6351,-6.7168,-6.7972,-6.8773,-6.9588,-7.0421,-4.8306,-4.8306,-4.8306,-4.8306,-4.8306,-4.8306,-4.8306,0.0,-4.8344,-4.8306,-4.8325,-4.8344,-4.8306,-4.875,0.0,0.0,0.0,-5.1956,-5.2531,-5.3237,-5.372,-5.3794,0.0,0.0,-5.3794,-5.3794,-5.3794,-5.3794,-5.3794,-5.3793,-5.3714,-5.3774,-5.3639,-5.3318,-5.342,-5.3396,-5.3225,-5.3203,-5.3203,-5.3203,-5.3203,-5.3203,-5.3203,-5.3203,-5.3203,-5.3203,-5.3203,-5.3188,-5.3209,-5.3277,-5.3339,-5.3433,-5.4411,-5.4788,-5.4919,-5.5835,-5.6655,-5.7286,-5.736,-5.7918,-5.8586,-5.8586,-5.8549,-5.8512,-5.8586,-5.8586,-5.8624,-5.8698,-5.9255,-5.9812,-5.9812,-6.037,-6.0855,-6.0364,-6.0296,-6.0199,-5.9844,-5.9708,-5.9716,-5.9847,-5.9896,-5.9896,-5.9896,-6.0387,-6.0808,-6.0808,-6.1778,-6.2475,-6.2475,-6.3007,-6.3379,-6.3379,-6.2747,-6.2599,-6.3342,-6.3453,-6.349,-6.349,-6.3565,-6.3936,-6.4656,-6.4768,-6.5162,-6.5979,-6.6797,-6.7205,-6.7205,-6.8023,-6.8795,-6.9626,-7.0479,-7.1315,-4.8196,-4.8306,-4.8306,-4.8306,-4.8306,-4.8306,-4.8306,0.0,-4.8306,-4.8306,-4.8306,-4.8306,-4.8306,-4.873,-4.9084,0.0,0.0,0.0,-5.1136,0.0,-5.3088,-5.3088,-5.3497,0.0,0.0,0.0,-5.3794,-5.3794,-5.3794,-5.3812,-5.3774,-5.3812,-5.3678,-5.342,-5.3461,-5.3416,-5.3225,-5.3203,-5.3203,-5.3203,-5.3203,-5.3203,-5.3203,-5.3203,-5.3203,-5.3203,-5.3203,-5.3203,-5.3225,-5.3256,-5.3654,-5.4179,-5.4691,-5.5273,-5.5852,-5.6709,-5.7249,-5.7583,-5.8066,-5.8438,-5.8698,-5.8698,-5.9032,-5.9329,-5.8846,-5.8698,-5.8698,-5.8698,-5.9292,-5.9903,-5.9903,-6.0927,-6.176,-6.1163,-6.1163,-6.1134,-6.0633,-6.023,-5.9968,-6.01,-6.0107,-6.0107,-6.0107,-6.06,-6.0992,-6.0992,-6.1704,-6.2339,-6.267,-6.2929,-6.3205,-6.3557,-6.3305,-6.3267,-6.3565,-6.3602,-6.3602,-6.3602,-6.4025,-6.447,-6.4768,-6.577,-6.6462,-6.6834,-6.7614,-6.8023,-6.8023,-6.8333,-6.917,-7.0479,-7.0858,-7.1697,-4.8067,-4.8306,-4.8306,-4.8306,-4.8306,-4.8306,0.0,-4.8306,-4.8306,-4.8306,-4.8306,-4.8306,-4.8344,-4.8677,-4.8887,-4.8696,0.0,-5.0467,-5.056,-5.1751,-5.2679,0.0,0.0,-5.3794,0.0,-5.3794,-5.3794,-5.3794,-5.3794,-5.3794,-5.3794,-5.3794,-5.3754,-5.3578,-5.3501,-5.34,-5.323,-5.3188,-5.3203,-5.3203,-5.3203,-5.3203,-5.3203,-5.3203,-5.3203,-5.3203,-5.3203,-5.3203,-5.3188,-5.3272,-5.3817,-5.4716,-5.5077,-5.5771,-5.6689,-5.7526,-5.7843,-5.7955,-5.8512,-5.8698,-5.8735,-5.8995,-5.942,-5.9828,-5.9552,-5.9441,-5.9441,-5.9441,-6.0035,-6.0704,-6.0927,-6.1893,-6.2553,-6.1813,-6.1756,-6.1676,-6.0903,-6.0419,-6.0107,-6.0107,-6.0107,-6.0107,-6.0107,-6.045,-6.0722,-6.0722,-6.1394,-6.2059,-6.2417,-6.2781,-6.3134,-6.3557,-6.3602,-6.3602,-6.3602,-6.3602,-6.3713,-6.3936,-6.447,-6.5028,-6.551,-6.6685,-6.7428,-6.7651,-6.8208,-6.8593,-6.8853,-6.8853,-6.9663,-7.1192,-7.1558,-7.265,-4.8067,-4.8306,-4.8306,-4.8306,-4.8306,-4.8306,-4.8306,-4.8306,-4.8306,-4.8306,-4.8306,-4.8325,-4.8476,-4.855,-4.866,-4.8787,-4.9543,0.0,-5.1268,-5.2085,0.0,0.0,0.0,-5.3794,-5.3794,-5.3794,-5.3794,-5.3794,-5.3794,0.0,-5.3794,-5.3794,-5.3774,-5.3714,-5.3578,-5.344,-5.3318,-5.323,-5.3203,-5.3203,-5.3203,-5.3203,-5.3203,-5.3203,-5.3203,-5.3203,-5.3203,-5.3203,-5.3203,-5.3203,-5.3766,-5.4702,-5.5565,-5.6446,-5.7423,-5.8322,-5.8698,-5.8698,-5.8698,-5.8698,-5.8846,-5.9627,-5.9865,-6.0072,-6.0927,-6.1187,-6.1187,-6.1187,-6.1744,-6.2562,-6.3379,-6.3565,-6.3312,-6.2192,-6.1897,-6.1564,-6.0388,-6.0107,-6.0107,-6.0107,-6.0107,-6.0107,-6.0107,-6.0107,-6.0107,-6.0107,-6.1133,-6.1897,-6.1897,-6.2892,-6.3579,-6.3602,-6.3602,-6.3602,-6.3602,-6.3602,-6.3936,-6.473,-6.4805,-6.5547,-6.7205,-6.7317,-6.7688,-6.8444,-6.8481,-6.889,-6.967,-6.967,-7.0334,-7.1606,-7.2893,-7.4366,-4.7259,-4.7883,-4.8306,-4.8306,-4.8306,-4.8306,-4.8306,-4.8306,-4.8325,-4.8419,-4.8438,-4.8476,-4.855,-4.8642,-4.9102,-5.0231,-5.0768,0.0,0.0,0.0,0.0,-5.3014,-5.346,-5.3794,0.0,0.0,-5.3794,-5.3794,-5.3794,-5.3794,-5.3794,-5.3794,-5.3754,-5.3578,-5.3501,-5.34,-5.323,-5.3188,-5.3203,-5.3203,-5.3203,-5.3203,-5.3203,-5.3203,-5.3203,-5.3203,-5.3203,-5.3203,-5.3261,-5.3812,-5.4574,-5.5512,-5.643,-5.7312,-5.818,-5.8545,-5.8698,-5.8698,-5.8698,-5.8698,-5.8846,-5.9664,-6.0295,-6.0964,-6.1781,-6.1633,-6.1298,-6.1893,-6.219,-6.2599,-6.3416,-6.3602,-6.3405,-6.262,-6.2192,-6.1676,-6.0903,-6.0388,-6.0107,-6.0107,-6.0107,-6.0107,-6.0107,-6.0107,-6.0231,-6.063,-6.1051,-6.1564,-6.2339,-6.2781,-6.3158,-6.3557,-6.4085,-6.4419,-6.4419,-6.4419,-6.4768,-6.5645,-6.6179,-6.676,-6.728,-6.7837,-6.8246,-6.8481,-6.9038,-6.9447,-6.9707,-7.0227,-7.1345,-7.2931,-7.4163,-7.5183,-4.6966,-4.77,-4.8306,-4.8306,-4.8306,-4.8306,-4.8306,-4.8325,-4.8419,-4.8476,-4.8513,-4.8587,-4.8642,-4.8751,-4.9138,-5.0175,-5.0674,-5.1305,0.0,0.0,0.0,-5.3088,0.0,0.0,0.0,-5.3794,-5.3794,-5.3794,-5.3794,-5.3794,-5.3794,-5.3794,-5.3698,-5.3501,-5.3481,-5.3437,-5.3251,-5.3188,-5.3203,-5.3203,-5.3203,-5.3203,-5.3203,-5.3203,-5.3203,-5.3203,-5.3203,-5.335,0.0,-5.4179,-5.5125,-5.6322,-5.6947,-5.7719,-5.8529,-5.8656,-5.8698,-5.8698,-5.8698,-5.8698,-5.8884,-6.0035,-6.1187,-6.219,-6.271,-6.2524,-6.2227,-6.271,-6.2859,-6.2925,-6.3187,-6.3252,-6.3062,-6.2261,-6.1806,-6.1394,-6.0782,-6.0356,-6.0107,-6.0107,-6.0107,-6.0107,-6.0107,-6.0107,-6.0294,-6.0903,-6.1163,-6.164,-6.2595,-6.3162,-6.3625,-6.4002,-6.4828,-6.5422,-6.5719,-6.5436,-6.5645,-6.65,-6.702,-6.7465,-6.7763,-6.8246,-6.8481,-6.8481,-6.9261,-6.9855,-7.0152,-7.1292,-7.2576,-7.3967,-7.4714,-7.5417,0.0,-4.77,-4.8306,-4.8306,-4.8306,-4.8306,-4.8306,-4.8419,0.0,-4.8513,-4.855,-4.866,-4.8861,-4.8842,-4.8914,-4.9133,-4.9745,-5.0785,0.0,-5.2679,0.0,0.0,-5.3794,0.0,-5.3794,-5.3794,-5.3794,-5.3794,-5.3794,-5.3794,-5.3794,-5.3794,-5.3698,-5.3501,-5.3481,-5.342,-5.3297,-5.323,-5.3203,-5.3203,-5.3203,-5.3203,-5.3203,-5.3203,-5.3203,-5.3203,-5.324,-5.3702,-5.4399,-5.4509,-5.553,-5.7,-5.7183,-5.7793,-5.8529,-5.8635,-5.8677,-5.8698,-5.8698,-5.8698,-5.8995,-6.0667,-6.2301,-6.3602,-6.3602,-6.3602,-6.3602,-6.3602,-6.3602,-6.3451,-6.288,-6.2695,-6.2442,-6.1308,-6.1022,-6.0813,-6.0262,-6.0072,-6.0075,-6.0075,-6.0075,-6.0107,-6.0107,-6.0142,-6.0396,-6.1064,-6.168,-6.2258,-6.2879,-6.4103,-6.4879,-6.4879,-6.5682,-6.65,-6.7243,-6.6611,-6.6537,-6.7354,-6.7391,-6.7725,-6.8444,-6.8481,-6.8518,-6.8556,-6.9447,-7.0264,-7.1081,-7.2681,-7.3896,-7.4705,-7.4745,-7.5185,-4.7113,0.0,-4.8306,-4.8306,-4.8306,-4.8325,0.0,-4.8476,-4.8532,-4.8697,-4.8751,-4.8972,-4.9654,-4.9301,-4.9504,-5.1416,-5.1379,-5.1676,-5.3311,0.0,0.0,-5.3794,-5.3794,-5.3794,-5.3794,-5.3794,-5.3794,-5.3794,-5.3794,-5.3794,-5.3794,-5.3794,-5.3774,-5.3674,-5.3558,-5.3437,-5.3209,-5.3225,-5.3203,-5.3203,-5.3203,-5.3203,-5.3203,-5.3203,-5.3203,-5.3203,-5.3849,-5.4216,-5.4509,-5.5721,-5.6455,-5.6904,-5.7663,-5.8142,-5.8459,-5.8529,-5.8614,-5.8698,-5.8698,-5.8698,-5.8995,-6.0667,-6.2301,-6.3602,-6.3602,-6.3602,-6.3602,-6.3602,-6.3602,-6.3451,-6.288,-6.2695,-6.2519,-6.1659,-6.1127,-6.0681,-6.0441,-6.004,-5.9753,-5.9753,-5.9781,-5.9879,-5.9879,-6.0501,-6.1365,-6.2465,-6.3225,-6.4066,-6.5175,-6.5612,-6.5794,-6.5794,-6.6537,-6.7094,-6.728,-6.7131,-6.7354,-6.8171,-6.8221,-6.832,-6.8481,-6.8481,-6.8778,-6.941,-7.0846,-7.1998,-7.2815,-7.354,-7.4147,-7.4725,-7.5038,-7.5468,-4.7626,-4.8269,-4.8893,-4.8893,-4.8893,-4.8913,-4.9007,-4.8752,-4.8587,-4.8715,0.0,-4.8986,-4.9467,-4.9522,-4.9893,-5.1231,-5.1751,0.0,0.0,0.0,-5.4203,-5.3831,-5.3794,-5.3794,0.0,-5.3794,-5.3794,-5.3794,-5.3794,-5.3794,-5.3794,-5.3794,-5.3774,-5.3714,-5.3617,-5.3477,-5.3251,-5.3209,-5.3203,-5.3203,-5.3203,-5.3203,-5.3203,-5.3203,-5.3203,-5.3261,-5.4069,-5.462,-5.506,-5.6308,-5.7042,-5.7432,-5.7986,-5.8282,-5.8415,-5.8486,-5.8593,-5.8698,-5.8698,-5.9218,-6.0072,-6.1336,-6.2599,-6.3602,-6.3602,-6.3557,-6.3511,-6.3511,-6.3312,-6.2929,-6.2287,-6.1906,-6.152,-6.0861,-6.0441,-6.0164,-6.01,-5.9849,-5.9621,-5.9621,-5.9931,-6.0206,-6.0206,-6.1233,-6.2364,-6.3372,-6.4101,-6.4945,-6.5973,-6.6425,-6.6648,-6.6648,-6.7391,-6.7874,-6.7874,-6.7874,-6.8036,-6.8444,-6.8481,-6.8667,-6.9038,-6.9038,-6.962,-7.0809,-7.1738,-7.2618,-7.3398,-7.3811,-7.4221,-7.4725,-7.5092,-7.5551,-4.8416,-4.9114,-4.9721,-4.9463,-4.95,-4.9574,-4.9483,0.0,0.0,0.0,0.0,0.0,-4.9224,-4.9856,0.0,0.0,0.0,0.0,-5.3683,-5.4388,-5.4574,-5.3868,-5.3794,0.0,-5.3794,-5.3794,-5.3794,-5.3794,-5.3794,-5.3794,-5.3794,-5.3794,-5.3793,-5.3733,-5.3694,-5.3558,-5.3339,-5.3251,-5.3188,-5.3203,-5.3203,-5.3203,-5.3203,-5.3203,-5.3203,-5.3261,-5.4069,-5.484,-5.5647,-5.6455,-5.7262,-5.802,-5.8111,-5.8282,-5.8415,-5.8465,-5.8572,-5.8735,-5.8846,-5.9903,-6.1314,-6.2131,-6.2888,-6.3534,-6.3534,-6.3465,-6.3336,-6.3242,-6.2855,-6.2277,-6.15,-6.0861,-6.0317,-5.9718,-5.9554,-5.9554,-5.9521,-5.9486,-5.9486,-5.9486,-6.0145,-6.0667,-6.0667,-6.2,-6.3302,-6.402,-6.4849,-6.561,-6.6344,-6.7033,-6.7503,-6.7503,-6.8097,-6.8481,-6.8481,-6.8481,-6.8556,-6.8667,-6.8667,-6.9038,-6.9855,-7.0004,-7.0735,-7.2172,-7.2321,-7.2729,-7.3398,-7.3811,-7.4221,-7.4725,-7.5092,-7.5551,-4.9003,-4.9994,-5.0288,-4.8857,-4.904,-4.9446,-4.8825,-4.8643,0.0,0.0,0.0,0.0,0.0,-5.1119,-5.1416,0.0,0.0,-5.2865,0.0,0.0,-5.3943,-5.3831,0.0,-5.3794,-5.3794,-5.3794,-5.3794,-5.3794,-5.3794,-5.3794,-5.3794,-5.3794,-5.3775,-5.3756,-5.3637,-5.3501,-5.3461,-5.3339,-5.3272,-5.3203,-5.3203,-5.3203,-5.3203,-5.3203,-5.3203,-5.3261,-5.4069,-5.484,-5.5647,-5.6455,-5.7262,-5.7997,-5.802,-5.8156,-5.8393,-5.8415,-5.8545,-5.8809,-5.9478,-6.0305,-6.1145,-6.196,-6.2706,-6.3279,-6.3279,-6.3255,-6.3099,-6.2453,-6.2287,-6.2076,-6.0921,-6.0595,-6.0317,-5.9518,-5.9352,-5.9319,-5.9115,-5.9081,-5.9081,-5.9081,-5.9874,-6.0531,-6.0531,-6.2356,-6.4053,-6.4765,-6.6074,-6.7247,-6.7889,-6.8173,-6.8296,-6.8296,-6.8407,-6.8481,-6.8481,-6.8481,-6.8778,-6.9447,-6.9521,-6.9855,-7.0672,-7.1403,-7.1949,-7.2209,-7.2878,-7.3287,-7.3398,-7.3811,-7.4221,-7.4725,-7.5092,-7.5551,-4.8049,-4.9187,-4.9958,-4.9187,-4.9978,-5.0675,-4.9907,-4.9858,-4.9843,0.0,0.0,0.0,0.0,0.0,-5.1825,-5.3051,0.0,-5.3385,-5.3757,-5.3794,-5.3794,0.0,0.0,-5.3794,-5.3794,-5.3794,-5.3794,-5.3794,-5.3794,-5.3794,-5.3794,-5.3794,-5.3794,-5.3794,-5.3698,-5.36,-5.3481,-5.344,-5.3355,-5.3203,-5.3203,-5.3203,-5.3203,-5.3203,-5.3203,-5.3261,-5.4069,-5.484,-5.5647,-5.6455,-5.7262,-5.7997,-5.7997,-5.8156,-5.8415,-5.8523,-5.8614,-5.8884,-6.0184,-6.0809,-6.1322,-6.2479,-6.3039,-6.3289,-6.3194,-6.3147,-6.2867,-6.1824,-6.1604,-6.1436,-6.0468,-5.9969,-5.9615,-5.9217,-5.9115,-5.9115,-5.9012,-5.9012,-5.9012,-5.9012,-6.0048,-6.0946,-6.0946,-6.3123,-6.4995,-6.5366,-6.6713,-6.781,-6.8259,-6.8358,-6.8408,-6.8481,-6.8481,-6.8481,-6.8481,-6.889,-6.9298,-6.967,-7.0549,-7.1218,-7.1589,-7.2406,-7.2878,-7.2878,-7.3212,-7.3398,-7.3398,-7.3811,-7.4087,-7.4331,-7.4999,-7.5396,-4.7516,-4.8453,-4.9353,-4.9537,-5.0528,-5.1373,-5.1173,-5.1092,-5.0969,-5.0508,0.0,0.0,0.0,-5.1379,0.0,-5.3868,-5.3943,-5.3794,-5.3794,-5.3794,-5.3794,-5.3794,-5.3794,-5.3794,-5.3794,-5.3794,-5.3794,-5.3794,-5.3794,-5.3794,-5.3794,-5.3794,-5.3794,-5.3794,-5.3737,-5.3639,-5.3481,-5.344,-5.3355,-5.3203,-5.3203,-5.3203,-5.3203,-5.3203,-5.3203,-5.3261,-5.4069,-5.484,-5.5647,-5.6455,-5.7262,-5.7997,-5.7997,-5.8133,-5.8371,-5.8572,-5.8746,-5.9133,-6.058,-6.1189,-6.1552,-6.2891,-6.3289,-6.3218,-6.3123,-6.3026,-6.2693,-6.14,-6.1055,-6.0849,-6.0001,-5.9383,-5.9012,-5.9012,-5.9012,-5.9012,-5.9012,-5.9012,-5.9081,-5.9254,-6.0358,-6.1358,-6.153,-6.3823,-6.5621,-6.5743,-6.6988,-6.7978,-6.8183,-6.8259,-6.8334,-6.8432,-6.8481,-6.8556,-6.8741,-6.9732,-7.0289,-7.0289,-7.1478,-7.2283,-7.2469,-7.3064,-7.3398,-7.3398,-7.3398,-7.3398,-7.3398,-7.3727,-7.3893,-7.4033,-7.4807,-7.5297,-4.8802,-4.893,-4.86,-4.939,-4.9684,-5.0144,-5.1641,-5.1539,-5.1322,-5.2065,0.0,0.0,0.0,-5.3088,-5.3905,-5.476,-5.4314,-5.3794,-5.3794,0.0,-5.3794,-5.3794,-5.3794,-5.3794,-5.3794,-5.3794,-5.3794,-5.3794,-5.3794,-5.3794,-5.3794,-5.3794,-5.3794,-5.3794,-5.36,-5.3501,-5.3481,-5.3314,-5.3188,-5.3203,-5.3203,-5.3203,-5.3203,-5.3203,-5.3203,-5.3261,-5.4069,-5.484,-5.5647,-5.6455,-5.7262,-5.7997,-5.7997,-5.8088,-5.8223,-5.8443,-5.8946,-5.9634,-6.0544,-6.1228,-6.1885,-6.2732,-6.2953,-6.283,-6.283,-6.2805,-6.2541,-6.1293,-6.0909,-6.0646,-5.9382,-5.9047,-5.9012,-5.9012,-5.9012,-5.9012,-5.9012,-5.9012,-5.9219,-5.9978,-6.0771,-6.153,-6.2255,-6.4175,-6.559,-6.5621,-6.6931,-6.7926,-6.7952,-6.8158,-6.8309,-6.8309,-6.8432,-6.8778,-6.9558,-7.1069,-7.2023,-7.2023,-7.2135,-7.2544,-7.3287,-7.3398,-7.3398,-7.3398,-7.3398,-7.3398,-7.3398,-7.3424,-7.3628,-7.4033,-7.4502,-7.5399,-4.7021,-4.7792,-4.8379,-4.871,-4.9187,-5.0034,-5.1735,-5.1981,-5.2116,-5.3027,-5.2864,0.0,0.0,0.0,-5.3905,-5.4203,-5.4017,-5.3794,-5.3794,-5.3794,-5.3794,-5.3794,-5.3794,-5.3794,-5.3794,-5.3794,-5.3794,-5.3794,-5.3794,-5.3794,-5.3794,-5.3794,-5.3794,-5.3794,-5.3696,-5.3578,-5.3481,-5.3318,-5.3251,-5.3203,-5.3203,-5.3203,-5.3203,-5.3203,-5.3203,-5.3261,-5.4069,-5.484,-5.5647,-5.6455,-5.7262,-5.7997,-5.8088,-5.8133,-5.8201,-5.8356,-5.8917,-5.9723,-6.0498,-6.1288,-6.2029,-6.2769,-6.2978,-6.2904,-6.283,-6.278,-6.2541,-6.1265,-6.0879,-6.0615,-5.935,-5.9012,-5.9012,-5.9012,-5.9012,-5.9012,-5.9012,-5.9392,-5.984,-6.0151,-6.1185,-6.2117,-6.2427,-6.421,-6.559,-6.559,-6.6845,-6.782,-6.7899,-6.8004,-6.8317,-6.895,-6.962,-7.0363,-7.118,-7.1812,-7.2432,-7.2915,-7.2952,-7.3101,-7.3398,-7.3398,-7.3398,-7.3398,-7.3398,-7.3398,-7.3398,-7.3398,-7.3501,-7.3666,-7.4619,-7.5485,-4.6214,-4.7095,-4.8049,-4.8563,-4.9152,-5.0203,-5.2401,-5.2592,-5.2634,-5.3881,-5.3514,-5.2977,-5.2977,0.0,0.0,0.0,-5.3794,-5.3794,-5.3794,-5.3794,-5.3794,-5.3794,-5.3794,-5.3794,-5.3794,-5.3794,-5.3794,-5.3794,-5.3794,-5.3794,-5.3794,-5.3794,-5.3794,-5.3794,-5.3696,-5.3598,-5.3481,-5.3339,-5.3251,-5.3203,-5.3203,-5.3203,-5.3203,-5.3203,-5.3203,-5.324,-5.4326,-5.5097,-5.5706,-5.6748,-5.7483,-5.802,-5.8133,-5.8156,-5.8133,-5.8305,-5.8991,-5.9941,-6.0457,-6.1379,-6.229,-6.256,-6.2768,-6.288,-6.2592,-6.2515,-6.2271,-6.1207,-6.0766,-6.0371,-5.9283,-5.9012,-5.9012,-5.9012,-5.9012,-5.9081,-5.9323,-5.9806,-6.0323,-6.084,-6.1772,-6.2565,-6.2806,-6.4181,-6.5332,-6.5558,-6.6612,-6.7598,-6.8125,-6.8241,-6.8668,-6.9765,-7.0733,-7.1552,-7.2172,-7.2432,-7.2804,-7.3398,-7.3398,-7.3398,-7.3398,-7.3398,-7.3398,-7.3398,-7.3398,-7.3398,-7.3398,-7.3398,-7.3398,-7.3435,-7.4709,-7.5675,-4.6856,-4.7076,-4.748,-4.9077,0.0,0.0,-5.3904,-5.3427,-5.2784,-5.461,-5.4351,-5.3794,-5.3794,-5.3794,0.0,-5.3794,-5.3794,-5.3794,-5.3794,-5.3794,-5.3794,-5.3794,-5.3794,-5.3794,-5.3794,-5.3794,-5.3794,-5.3794,-5.3794,-5.3794,-5.3794,-5.3794,-5.3794,-5.3794,-5.36,-5.3481,-5.3481,-5.3293,-5.3203,-5.3203,-5.3203,-5.3203,-5.3203,-5.3203,-5.3203,-5.3277,-5.4913,-5.5596,-5.5721,-5.7336,-5.7997,-5.802,-5.8133,-5.8111,-5.802,-5.817,-5.9117,-6.0419,-6.0419,-6.1484,-6.2705,-6.2086,-6.2308,-6.2679,-6.2059,-6.1897,-6.1723,-6.1091,-6.0468,-5.9876,-5.9148,-5.9012,-5.9012,-5.9012,-5.9012,-5.9219,-6.0013,-6.022,-6.0668,-6.2186,-6.2496,-6.2737,-6.3462,-6.4147,-6.4838,-6.5494,-6.6253,-6.7237,-6.8706,-6.9044,-6.9553,-7.0591,-7.1624,-7.2209,-7.2209,-7.2952,-7.3398,-7.3398,-7.3398,-7.3398,-7.3398,-7.3398,-7.3398,-7.3398,-7.3398,-7.3398,-7.3398,-7.3398,-7.3398,-7.3435,-7.4709,-7.5977,-4.6177,-4.6672,0.0,-4.8416,0.0,0.0,0.0,-5.2653,0.0,0.0,-5.398,-5.3794,-5.3794,-5.3794,0.0,-5.3794,-5.3794,-5.3794,-5.3794,-5.3794,-5.3794,-5.3794,-5.3794,-5.3794,-5.3794,-5.3794,-5.3794,-5.3794,-5.3794,-5.3794,-5.3794,-5.3794,-5.3794,-5.3794,-5.36,-5.3481,-5.3481,-5.3293,-5.3203,-5.3203,-5.3203,-5.3203,-5.3203,-5.3203,-5.3203,-5.3277,-5.4913,-5.5596,-5.5721,-5.7336,-5.7997,-5.7997,-5.8042,-5.8042,-5.807,-5.868,-5.9525,-6.0493,-6.1043,-6.1924,-6.2705,-6.2086,-6.2005,-6.2032,-6.1379,-6.1207,-6.1062,-6.0437,-6.016,-5.9876,-5.9148,-5.9012,-5.9012,-5.9012,-5.9012,-5.9219,-6.0013,-6.0599,-6.1289,-6.2289,-6.291,-6.3324,-6.3565,-6.4532,-6.5365,-6.5558,-6.7082,-6.8595,-6.9605,-7.044,-7.1072,-7.1373,-7.2388,-7.3064,-7.3064,-7.3287,-7.3398,-7.3398,-7.3398,-7.3398,-7.3398,-7.3398,-7.3398,-7.3398,-7.3398,-7.3398,-7.3398,-7.3398,-7.367,-7.429,-7.5228,-7.6515,-4.6287,-4.7241,0.0,-4.9077,-5.0328,-5.1584,-5.2614,0.0,0.0,0.0,-5.3794,-5.3794,-5.3794,-5.3794,0.0,-5.3794,-5.3794,-5.3794,-5.3794,-5.3794,-5.3794,-5.3794,-5.3794,-5.3794,-5.3794,-5.3794,-5.3794,-5.3794,-5.3793,-5.3754,-5.3754,-5.3735,-5.3678,-5.3678,-5.3501,-5.342,-5.342,-5.3272,-5.3203,-5.3203,-5.3203,-5.3203,-5.3203,-5.3203,-5.3203,-5.3277,-5.4913,-5.5941,-5.6638,-5.7593,-5.7997,-5.7997,-5.7997,-5.8217,-5.8547,-5.9001,-5.9905,-6.0933,-6.141,-6.1958,-6.2334,-6.1696,-6.15,-6.135,-6.0736,-6.0524,-6.0468,-6.0097,-5.9811,-5.9516,-5.9115,-5.9012,-5.9012,-5.9012,-5.9012,-5.9323,-6.0392,-6.0978,-6.1634,-6.2703,-6.3289,-6.36,-6.36,-6.4497,-6.5267,-6.5558,-6.7767,-6.9697,-7.056,-7.1591,-7.2234,-7.2287,-7.2945,-7.3398,-7.3398,-7.3398,-7.3398,-7.3398,-7.3398,-7.3398,-7.3398,-7.3398,-7.3398,-7.3398,-7.3398,-7.3398,-7.3398,-7.3398,-7.3781,-7.4598,-7.5416,-7.6743,-4.6966,0.0,0.0,-5.0655,-5.1564,0.0,-5.3469,-5.3735,-5.3794,-5.3794,0.0,-5.3794,-5.3794,-5.3794,-5.3794,-5.3794,-5.3794,-5.3794,-5.3794,-5.3794,-5.3794,-5.3794,-5.3794,-5.3794,-5.3794,-5.3794,-5.3794,-5.3794,-5.3735,-5.3714,-5.3714,-5.3578,-5.3481,-5.3481,-5.338,-5.3318,-5.3318,-5.323,-5.3203,-5.3203,-5.3203,-5.3203,-5.3203,-5.3203,-5.3261,-5.3408,-5.4913,-5.6455,-5.7886,-5.796,-5.7997,-5.7997,-5.7997,-5.851,-5.9184,-5.9258,-6.0272,-6.1594,-6.1667,-6.1792,-6.1814,-6.112,-6.0849,-6.0706,-6.0097,-5.9905,-5.9905,-5.9905,-5.9483,-5.9012,-5.9012,-5.9012,-5.9012,-5.9012,-5.9081,-5.953,-6.0978,-6.1358,-6.1841,-6.3289,-6.36,-6.36,-6.36,-6.4218,-6.4974,-6.5899,-6.8364,-7.0459,-7.148,-7.242,-7.3037,-7.3172,-7.3331,-7.3398,-7.3398,-7.3398,-7.3398,-7.3398,-7.3398,-7.3398,-7.3398,-7.3398,-7.3398,-7.3398,-7.3398,-7.3398,-7.3398,-7.3398,-7.3844,-7.471,-7.5506,-7.6805,-4.7645,-4.8306,0.0,0.0,-5.2471,-5.3239,-5.3501,-5.3696,-5.3794,-5.3794,-5.3794,-5.3794,-5.3794,-5.3794,-5.3794,-5.3794,-5.3794,-5.3794,-5.3794,-5.3794,-5.3794,-5.3794,-5.3794,-5.3794,-5.3794,-5.3794,-5.3794,-5.3794,-5.3735,-5.3714,-5.3714,-5.3578,-5.3481,-5.3481,-5.338,-5.3318,-5.3318,-5.323,-5.3203,-5.3203,-5.3203,-5.3203,-5.3203,-5.3203,-5.3555,-5.4216,-5.517,-5.6161,-5.7116,-5.774,-5.7997,-5.7997,-5.7997,-5.851,-5.9258,-5.9905,-6.075,-6.1704,-6.2328,-6.2266,-6.1814,-6.112,-6.0585,-6.0097,-5.9417,-5.925,-5.925,-5.925,-5.9115,-5.9012,-5.9012,-5.9012,-5.9012,-5.9012,-5.9495,-6.0185,-6.1116,-6.1806,-6.2496,-6.3427,-6.36,-6.36,-6.36,-6.4601,-6.624,-6.8765,-6.9685,-7.068,-7.2253,-7.2789,-7.3037,-7.3172,-7.3331,-7.3398,-7.3398,-7.3398,-7.3398,-7.3398,-7.3398,-7.3398,-7.3398,-7.3398,-7.3398,-7.3398,-7.3398,-7.3398,-7.3398,-7.3398,-7.4115,-7.5554,-7.6106,-7.7467,-4.7369,0.0,0.0,-5.205,0.0,-5.3481,-5.3481,-5.3639,-5.3794,-5.3794,-5.3794,-5.3794,-5.3794,-5.3794,-5.3794,-5.3794,-5.3794,-5.3794,-5.3794,-5.3794,-5.3794,-5.3794,-5.3794,-5.3794,-5.3794,-5.3794,-5.3812,-5.3754,-5.3657,-5.3578,-5.3518,-5.3416,-5.3355,-5.3355,-5.3293,-5.3272,-5.3272,-5.3209,-5.3203,-5.3203,-5.3203,-5.3203,-5.3203,-5.3203,-5.3665,-5.4436,-5.5244,-5.6051,-5.6859,-5.7666,-5.7997,-5.7997,-5.7997,-5.8731,-5.9832,-6.0272,-6.1153,-6.2168,-6.2318,-6.1978,-6.1293,-6.0711,-6.003,-5.945,-5.9115,-5.9012,-5.9012,-5.9012,-5.9012,-5.9012,-5.9012,-5.9012,-5.9116,-5.9495,-5.9909,-6.0392,-6.1151,-6.191,-6.2703,-6.3462,-6.36,-6.36,-6.36,-6.5019,-6.7065,-6.9721,-7.044,-7.1222,-7.266,-7.2927,-7.3064,-7.3278,-7.3383,-7.3398,-7.3398,-7.3398,-7.3398,-7.3398,-7.3398,-7.3398,-7.3398,-7.3398,-7.3398,-7.3398,-7.3398,-7.3398,-7.3398,-7.3398,-7.4227,-7.5814,-7.6281,-7.7635,-4.6856,0.0,-5.1169,-5.2637,-5.3224,0.0,-5.3481,-5.3676,-5.3775,-5.3645,-5.372,-5.3757,-5.3608,-5.3608,-5.3571,-5.3423,-5.3385,-5.3385,-5.3385,-5.3385,-5.346,-5.3571,-5.346,-5.346,-5.3571,-5.346,-5.3347,-5.3288,-5.3191,-5.3034,-5.2933,-5.2847,-5.2837,-5.3004,-5.3004,-5.3078,-5.3203,-5.3203,-5.3203,-5.3203,-5.3203,-5.3203,-5.3203,-5.3203,-5.3555,-5.4252,-5.517,-5.5978,-5.6675,-5.7593,-5.7997,-5.7997,-5.8143,-5.9098,-6.0419,-6.0566,-6.1447,-6.2567,-6.2059,-6.1415,-6.0676,-6.016,-5.9549,-5.9012,-5.9012,-5.9012,-5.9012,-5.9012,-5.9012,-5.9012,-5.9012,-5.9012,-5.9219,-6.0013,-6.0289,-6.0599,-6.1358,-6.2117,-6.2841,-6.3462,-6.36,-6.3675,-6.393,-6.5542,-6.7532,-6.9758,-7.0807,-7.1728,-7.2844,-7.2982,-7.3091,-7.3346,-7.3398,-7.3398,-7.3398,-7.3398,-7.3398,-7.3398,-7.3398,-7.3398,-7.3398,-7.3398,-7.3398,-7.3398,-7.3398,-7.3398,-7.3398,-7.3398,-7.4227,-7.5814,-7.6343,-7.7727,0.0,0.0,-5.1022,0.0,-5.2741,-5.3359,0.0,0.0,-5.353,0.0,-5.3311,-5.3608,-5.2902,-5.2754,-5.2531,-5.1825,-5.1714,-5.1714,-5.1714,-5.1714,-5.1974,-5.2679,-5.2159,-5.1974,-5.2679,-5.2122,-5.1714,-5.1695,-5.1527,-5.1412,-5.1393,-5.1196,-5.1426,-5.2123,-5.216,-5.2491,-5.3167,-5.3203,-5.3203,-5.3203,-5.3203,-5.3203,-5.3203,-5.3203,-5.324,-5.3445,-5.495,-5.5647,-5.5868,-5.7373,-5.7997,-5.807,-5.8767,-5.9612,-6.0493,-6.119,-6.1697,-6.2005,-6.1924,-6.1127,-6.0097,-6.0001,-5.9549,-5.9012,-5.9012,-5.9012,-5.9012,-5.9012,-5.9012,-5.9012,-5.9012,-5.9012,-5.9219,-6.0013,-6.0703,-6.1358,-6.2151,-6.291,-6.3462,-6.3565,-6.36,-6.3967,-6.5138,-6.6171,-6.7532,-6.9758,-7.0807,-7.1728,-7.2844,-7.2982,-7.3091,-7.3346,-7.3398,-7.3398,-7.3398,-7.3398,-7.3398,-7.3398,-7.3398,-7.3398,-7.3398,-7.3398,-7.3398,-7.3398,-7.3398,-7.3398,-7.3398,-7.3398,-7.4227,-7.5814,-7.6685,-7.8036,-4.6415,-4.8213,-4.9811,0.0,-5.2316,-5.2769,-5.335,0.0,-5.2918,-5.2661,-5.2531,-5.2345,-5.1974,-5.1936,-5.1825,-5.1454,-5.1416,-5.1416,-5.1416,-5.1416,-5.1528,-5.1899,-5.1602,-5.1528,-5.1899,-5.1602,-5.1361,-5.1287,-5.1156,-5.1078,-5.0983,-5.0882,-5.0949,-5.1316,-5.1316,-5.172,-5.2527,-5.2527,-5.2747,-5.3203,-5.3203,-5.3203,-5.3203,-5.3203,-5.3203,-5.3277,-5.4913,-5.5596,-5.5721,-5.7336,-5.7997,-5.807,-5.8914,-5.9685,-6.0444,-6.0916,-6.1458,-6.1814,-6.1068,-6.0472,-5.9937,-5.9582,-5.9216,-5.9012,-5.9012,-5.9012,-5.9012,-5.9012,-5.9012,-5.9012,-5.9012,-5.9323,-5.9875,-6.0634,-6.1392,-6.2186,-6.2944,-6.3358,-6.36,-6.36,-6.3895,-6.4603,-6.6034,-6.7298,-6.8687,-7.0482,-7.1468,-7.2242,-7.2918,-7.2982,-7.3091,-7.3346,-7.3398,-7.3398,-7.3398,-7.3398,-7.3398,-7.3398,-7.3398,-7.3398,-7.3398,-7.3398,-7.3398,-7.3398,-7.3398,-7.3398,-7.3398,-7.3398,-7.4227,-7.5814,-7.6753,-7.8099,0.0,0.0,-4.8233,-5.0508,-5.1561,-5.225,0.0,0.0,-5.2361,0.0,-5.1621,-5.1008,-5.0785,-5.0933,-5.1008,-5.0785,-5.0748,-5.0748,-5.0748,-5.0748,-5.0822,-5.1045,-5.0896,-5.0822,-5.1045,-5.0896,-5.0712,-5.062,-5.0546,-5.047,-5.0318,-5.0277,-5.0308,-5.0472,-5.0508,-5.0986,-5.1977,-5.2197,-5.2601,-5.3203,-5.3203,-5.3203,-5.3203,-5.3203,-5.3203,-5.3277,-5.4913,-5.5596,-5.5721,-5.7336,-5.7997,-5.807,-5.8914,-5.9685,-6.042,-6.0633,-6.11,-6.15,-6.0375,-5.9873,-5.9681,-5.9183,-5.9012,-5.9012,-5.9012,-5.9012,-5.9012,-5.9012,-5.9012,-5.9047,-5.9254,-5.9771,-6.0427,-6.1392,-6.2048,-6.2703,-6.3427,-6.3712,-6.3858,-6.3858,-6.4568,-6.5568,-6.6857,-6.8394,-6.9818,-7.1097,-7.1982,-7.2582,-7.2899,-7.2982,-7.3091,-7.3294,-7.3372,-7.3398,-7.3398,-7.3398,-7.3398,-7.3398,-7.3398,-7.3398,-7.3398,-7.3398,-7.3398,-7.3398,-7.3595,-7.3595,-7.3398,-7.3621,-7.4413,-7.5814,-7.6879,-7.8198,0.0,-4.4819,0.0,-4.8086,-5.0251,0.0,0.0,0.0,-5.2116,-5.1416,-5.0675,-4.993,-4.9187,-4.967,-4.993,-4.915,-4.9039,-4.9039,-4.9039,-4.9039,-4.9299,-5.0079,-4.9485,-4.9336,-5.0079,-4.9485,-4.9039,-4.9021,-4.8951,-4.8862,-4.8716,-4.8642,-4.8953,-4.9647,-4.9647,-5.0418,-5.1977,-5.2747,-5.3188,-5.3203,-5.3203,-5.3203,-5.3203,-5.3203,-5.3203,-5.3277,-5.4913,-5.5596,-5.5721,-5.7336,-5.7997,-5.807,-5.8914,-5.9685,-6.042,-6.0633,-6.0816,-6.0885,-6.0219,-5.9582,-5.9047,-5.9012,-5.9012,-5.9012,-5.9012,-5.9012,-5.9012,-5.9012,-5.9012,-5.9185,-5.9944,-6.0151,-6.0565,-6.2082,-6.2461,-6.2703,-6.3427,-6.4111,-6.4532,-6.4532,-6.5707,-6.696,-6.7722,-6.9171,-7.0466,-7.117,-7.1982,-7.2553,-7.2695,-7.2899,-7.3037,-7.3199,-7.3331,-7.3398,-7.3398,-7.3398,-7.3398,-7.3398,-7.3398,-7.3398,-7.3398,-7.3398,-7.3398,-7.3398,-7.4153,-7.4179,-7.3398,-7.4153,-7.497,-7.5851,-7.713,-7.845,0.0,0.0,0.0,-4.7113,-4.86,-4.9904,-5.1052,-5.0964,-5.058,-5.0454,-4.9823,-4.9191,-4.8947,-4.915,-4.9262,-4.8964,-4.889,-4.889,-4.889,-4.889,-4.9002,-4.9299,-4.9076,-4.9002,-4.9299,-4.9076,-4.889,-4.889,-4.884,-4.8787,-4.8751,-4.8587,-4.8623,-4.8879,-4.9336,-5.0381,-5.1977,-5.2821,-5.3203,-5.3203,-5.3203,-5.3203,-5.3203,-5.3203,-5.3482,-5.4032,-5.5133,-5.5596,-5.5721,-5.7336,-5.7997,-5.807,-5.8914,-5.9469,-5.9823,-5.9996,-6.0184,-6.0219,-5.958,-5.9182,-5.9012,-5.9012,-5.9012,-5.9012,-5.9012,-5.9012,-5.9012,-5.9012,-5.9392,-5.984,-6.0116,-6.0909,-6.191,-6.2944,-6.3186,-6.3255,-6.3531,-6.3785,-6.4111,-6.4497,-6.5809,-6.7203,-6.8434,-6.9937,-7.1172,-7.1953,-7.2312,-7.2553,-7.2695,-7.2899,-7.3037,-7.3172,-7.3331,-7.3398,-7.3398,-7.3398,-7.3398,-7.3398,-7.3398,-7.3398,-7.3398,-7.3398,-7.3658,-7.4179,-7.445,-7.419,-7.3398,-7.471,-7.5527,-7.5851,-7.7434,-7.8722,-4.0708,0.0,0.0,0.0,0.0,-4.8031,-5.0019,0.0,-4.9416,-4.9806,-4.9306,-4.8804,-4.8875,-4.8873,-4.889,-4.889,-4.889,-4.889,-4.889,-4.889,-4.889,-4.889,-4.889,-4.889,-4.889,-4.889,-4.889,-4.889,-4.8875,-4.8822,-4.8787,-4.8642,-4.8624,-4.8842,-4.9593,-5.0675,-5.1977,-5.2821,-5.3203,-5.3203,-5.3203,-5.3203,-5.3203,-5.3203,-5.3665,-5.4436,-5.5244,-5.5757,-5.6088,-5.7446,-5.7997,-5.801,-5.8359,-5.8906,-5.9473,-5.9173,-5.943,-5.9873,-5.9216,-5.9012,-5.9012,-5.9012,-5.9012,-5.9012,-5.9012,-5.9185,-5.9392,-5.9392,-5.9978,-6.0634,-6.0909,-6.191,-6.2979,-6.3462,-6.36,-6.3669,-6.391,-6.4166,-6.4458,-6.4883,-6.6612,-6.8283,-6.9296,-7.0697,-7.1872,-7.2422,-7.2496,-7.2553,-7.2695,-7.2899,-7.3037,-7.3172,-7.3331,-7.3398,-7.3398,-7.3398,-7.3547,-7.3807,-7.3547,-7.3658,-7.4153,-7.3956,-7.4153,-7.497,-7.5267,-7.5007,-7.419,-7.5564,-7.6303,-7.6513,-7.7918,-7.9075,0.0,0.0,0.0,0.0,0.0,0.0,-4.8949,0.0,-4.8678,-4.9489,-4.9178,-4.875,-4.8787,-4.8857,-4.889,-4.889,-4.889,-4.889,-4.889,-4.889,-4.889,-4.889,-4.889,-4.889,-4.889,-4.889,-4.889,-4.889,-4.889,-4.8855,-4.8804,-4.8678,-4.8938,-4.961,-5.0398,-5.1206,-5.2013,-5.2821,-5.3203,-5.3203,-5.3203,-5.3203,-5.3203,-5.3203,-5.3665,-5.4473,-5.528,-5.6088,-5.6895,-5.7666,-5.7997,-5.7927,-5.7351,-5.8104,-5.9294,-5.8172,-5.8671,-5.9908,-5.925,-5.9012,-5.9012,-5.9012,-5.9012,-5.9012,-5.9012,-5.9564,-6.0185,-6.0185,-6.0737,-6.153,-6.2324,-6.3048,-6.36,-6.36,-6.36,-6.3807,-6.4565,-6.5259,-6.5759,-6.5759,-6.8151,-7.0196,-7.0227,-7.15,-7.2496,-7.2496,-7.2496,-7.2553,-7.2695,-7.2899,-7.3037,-7.3172,-7.3331,-7.3435,-7.3435,-7.3435,-7.3781,-7.4561,-7.3892,-7.4153,-7.5713,-7.5044,-7.5007,-7.5824,-7.6642,-7.6679,-7.5861,-7.6743,-7.7345,-7.7778,-7.8653,-7.9532,-4.0047,0.0,0.0,0.0,0.0,0.0,0.0,0.0,-4.704,-4.8549,-4.8255,-4.7975,-4.8676,-4.8857,-4.889,-4.889,-4.889,-4.889,-4.889,-4.889,-4.889,-4.889,-4.889,-4.889,-4.889,-4.889,-4.889,0.0,-4.889,-4.8873,-4.8855,-4.8696,-4.9214,-5.0498,-5.0732,-5.1463,-5.2858,-5.3115,-5.3203,-5.3203,-5.3203,-5.3203,-5.3203,-5.3812,-5.4509,-5.5317,-5.6124,-5.6932,-5.7703,-5.7923,-5.775,-5.7388,-5.7793,-5.807,-5.8208,-5.8409,-5.8808,-5.9249,-5.9081,-5.9012,-5.9012,-5.9012,-5.9012,-5.9012,-5.9012,-5.9564,-6.0185,-6.0185,-6.1151,-6.2324,-6.3082,-6.3427,-6.36,-6.36,-6.4014,-6.4462,-6.4669,-6.572,-6.6795,-6.7264,-6.8513,-6.9781,-7.0814,-7.183,-7.2496,-7.2496,-7.2496,-7.2553,-7.2695,-7.2899,-7.3037,-7.3172,-7.3331,-7.3658,-7.4216,-7.4264,-7.4598,-7.5416,-7.5267,-7.5341,-7.5787,-7.5564,-7.5861,-7.6743,-7.7003,-7.7273,-7.7608,-7.783,-7.7754,-7.7319,-7.8808,-8.0002,-4.0634,-4.1332,-4.2396,0.0,0.0,0.0,-4.5883,-4.614,0.0,0.0,-4.8108,-4.8052,-4.8587,-4.8714,-4.8896,-4.9303,-4.9357,-4.9375,-4.941,-4.941,-4.9559,-4.9893,-4.993,-4.9913,-4.9859,-4.9895,-4.9913,-4.9859,-4.9895,-4.9746,-4.9341,-4.8863,-4.9288,-5.0809,-5.0822,-5.1573,-5.3167,-5.3203,-5.3203,-5.3203,-5.3203,-5.3203,-5.3203,-5.4032,-5.484,-5.5647,-5.6455,-5.7111,-5.7618,-5.7618,-5.7425,-5.7138,-5.7433,-5.7604,-5.7763,-5.825,-5.8657,-5.9012,-5.9012,-5.9012,-5.9012,-5.9012,-5.9012,-5.9081,-5.9392,-6.0047,-6.0737,-6.1047,-6.2013,-6.3048,-6.3496,-6.36,-6.3669,-6.3979,-6.4393,-6.4876,-6.5531,-6.6359,-6.7191,-6.7905,-6.8919,-7.0025,-7.1138,-7.1992,-7.2496,-7.2496,-7.2496,-7.2582,-7.2779,-7.3222,-7.3545,-7.376,-7.4137,-7.4561,-7.5044,-7.5081,-7.5453,-7.627,-7.5973,-7.6084,-7.679,-7.6493,-7.6716,-7.7598,-7.757,-7.7858,-7.8276,-7.8276,-7.8288,-7.8229,-7.9437,-8.0373,-4.1589,-4.1956,-4.2727,-4.3314,0.0,0.0,-4.6049,-4.6214,-4.6214,0.0,-4.8088,-4.8126,-4.8237,-4.8348,-4.8716,-4.9472,-4.9824,-5.0046,-5.021,-5.0228,-5.0525,-5.1305,-5.1416,-5.1343,-5.1232,-5.1306,-5.1324,-5.1232,-5.125,-5.0861,-4.9954,-4.9067,-4.9306,-5.0805,-5.0802,-5.1573,-5.3167,-5.3203,-5.3203,-5.3203,-5.3203,-5.3203,-5.3203,-5.4142,-5.4913,-5.5647,-5.6461,-5.6914,-5.7091,-5.7036,-5.7021,-5.6989,-5.6728,-5.7097,-5.7747,-5.7969,-5.8461,-5.9012,-5.9012,-5.9012,-5.9012,-5.9012,-5.9081,-5.9288,-5.9978,-6.0771,-6.1599,-6.2393,-6.3082,-6.36,-6.3703,-6.3703,-6.391,-6.4669,-6.491,-6.5324,-6.6704,-6.7049,-6.7354,-6.8181,-6.9388,-7.0537,-7.139,-7.2078,-7.2496,-7.2496,-7.2496,-7.261,-7.2955,-7.3711,-7.4302,-7.4572,-7.5304,-7.5824,-7.5936,-7.5936,-7.6307,-7.7189,-7.6493,-7.6753,-7.8239,-7.7635,-7.757,-7.8276,-7.8276,-7.8276,-7.8276,-7.8359,-7.8828,-7.9708,-8.02,-8.0629,-4.324,-4.3608,-4.4121,-4.3608,-4.3864,0.0,-4.4195,-4.4599,-4.5223,0.0,-4.5956,-4.5806,-4.6432,-4.7149,-4.7478,-4.7016,-4.8677,-5.0268,-5.1027,-5.1156,-5.1193,-5.1379,-5.1416,-5.1398,-5.1343,-5.1287,-5.1269,-5.1343,-5.073,-5.0284,-5.0063,-4.914,-4.9326,-5.0985,-5.0882,-5.1573,-5.3167,-5.3203,-5.3203,-5.3203,-5.3203,-5.3203,-5.324,-5.4693,-5.5427,-5.5625,-5.66,-5.7046,-5.7076,-5.6751,-5.6634,-5.6676,-5.7218,-5.7622,-5.7938,-5.8564,-5.8875,-5.9012,-5.9012,-5.9012,-5.9012,-5.9012,-5.9461,-6.0013,-6.0151,-6.1151,-6.2427,-6.3151,-6.3496,-6.3738,-6.4324,-6.4496,-6.4669,-6.5462,-6.6117,-6.6635,-6.6945,-6.7463,-6.8308,-6.9601,-7.009,-7.0704,-7.2078,-7.2409,-7.2496,-7.2496,-7.2496,-7.261,-7.2955,-7.3711,-7.4302,-7.4572,-7.5304,-7.6084,-7.6817,-7.6855,-7.7199,-7.8016,-7.7905,-7.7942,-7.8276,-7.8128,-7.8128,-7.8276,-7.8276,-7.8276,-7.8276,-7.8686,-7.9137,-7.9708,-8.02,-8.0629,-4.4195,-4.4378,-4.4709,-4.4709,-4.4709,0.0,0.0,-4.4709,-4.5039,-4.625,-4.592,-4.5625,-4.647,-4.6948,-4.7261,-4.7352,-4.8772,-5.0157,-5.112,-5.1695,-5.2159,-5.2568,-5.2605,-5.2587,-5.2567,-5.2473,-5.2454,-5.2548,-5.1788,-5.1324,-5.1306,-5.0398,-5.0416,-5.1556,-5.1494,-5.2002,-5.3188,-5.3203,-5.3203,-5.3203,-5.3203,-5.3408,-5.3849,-5.506,-5.5794,-5.6249,-5.6831,-5.6964,-5.6688,-5.6557,-5.6558,-5.6732,-5.75,-5.7827,-5.8012,-5.8737,-5.9012,-5.9012,-5.9012,-5.9012,-5.9012,-5.9012,-5.953,-6.0254,-6.0634,-6.1806,-6.3117,-6.3496,-6.36,-6.3772,-6.4496,-6.4703,-6.4979,-6.6152,-6.6704,-6.7083,-6.7463,-6.8119,-6.8975,-7.0094,-7.0604,-7.1195,-7.2285,-7.2496,-7.2496,-7.2496,-7.2553,-7.2695,-7.2955,-7.4136,-7.4986,-7.5193,-7.6307,-7.7199,-7.7645,-7.7682,-7.7868,-7.8239,-7.8276,-7.8276,-7.8276,-7.8276,-7.8276,-7.8276,-7.8276,-7.8441,-7.8633,-7.9112,-7.9464,-7.9708,-8.02,-8.0629,-4.5205,-4.5278,-4.548,-4.581,-4.5553,-4.5223,0.0,0.0,0.0,-4.6159,-4.5883,0.0,0.0,0.0,0.0,0.0,0.0,0.0,0.0,-5.1491,0.0,-5.318,-5.3329,-5.3385,-5.3454,-5.3454,-5.3528,-5.3694,-5.2864,-5.2401,-5.2511,-5.1676,-5.147,-5.2106,-5.2103,-5.2447,-5.3188,-5.3203,-5.3203,-5.3203,-5.3203,-5.3628,-5.4436,-5.5207,-5.597,-5.6639,-5.6865,-5.6652,-5.6154,-5.6445,-5.6631,-5.6874,-5.7598,-5.8012,-5.8185,-5.8806,-5.9012,-5.9012,-5.9012,-5.9012,-5.9047,-5.9185,-5.9875,-6.0771,-6.153,-6.2599,-6.36,-6.36,-6.3703,-6.3979,-6.4738,-6.5048,-6.5497,-6.6876,-6.7187,-6.7359,-6.798,-6.8708,-6.9419,-7.0163,-7.0904,-7.1609,-7.238,-7.2496,-7.2496,-7.2496,-7.261,-7.2779,-7.2982,-7.4524,-7.5661,-7.5787,-7.7273,-7.8276,-7.8276,-7.8276,-7.8276,-7.8276,-7.8276,-7.8276,-7.8276,-7.8276,-7.8276,-7.8276,-7.8276,-7.8485,-7.8854,-7.9418,-7.9751,-7.9836,-8.0316,-8.0737,-4.7003,-4.7333,-4.7572,-4.6214,-4.6361,-4.6269,-4.4232,0.0,-4.4562,-4.4011,0.0,0.0,0.0,0.0,0.0,0.0,0.0,0.0,-4.7832,-4.9769,-5.1285,-5.1396,-5.1547,-5.19,-5.251,-5.2528,-5.2862,-5.3639,-5.2251,-5.1732,-5.2549,-5.1638,-5.1449,-5.2242,-5.2099,-5.2401,-5.3167,-5.3203,-5.3203,-5.3203,-5.3203,-5.3628,-5.4436,-5.5207,-5.5752,-5.6006,-5.6266,-5.6055,-5.5566,-5.6397,-5.6767,-5.6874,-5.7598,-5.8323,-5.8909,-5.8978,-5.9012,-5.9012,-5.9012,-5.9012,-5.9116,-5.984,-6.1047,-6.2358,-6.3117,-6.3462,-6.36,-6.36,-6.4083,-6.4738,-6.5531,-6.6255,-6.6945,-6.7773,-6.798,-6.798,-6.8083,-6.8708,-6.9419,-7.0163,-7.0904,-7.1609,-7.238,-7.2496,-7.2496,-7.2496,-7.261,-7.2779,-7.2982,-7.4524,-7.5661,-7.5787,-7.7273,-7.8276,-7.8276,-7.8276,-7.8276,-7.8276,-7.8276,-7.8276,-7.8276,-7.8276,-7.8276,-7.8276,-7.8276,-7.8332,-7.8386,-7.9256,-7.992,-8.0335,-8.0788,-8.1061,-4.7076,-4.7333,-4.7443,-4.6764,-4.6507,-4.603,-4.4525,-4.4085,-4.4048,0.0,0.0,0.0,0.0,0.0,0.0,0.0,-4.5773,0.0,0.0,0.0,-4.8938,0.0,0.0,0.0,-5.1637,-5.2102,-5.2343,-5.225,-5.2047,-5.2103,-5.2568,-5.2641,-5.2768,-5.2964,-5.292,-5.2982,-5.3225,-5.3203,-5.3203,-5.3203,-5.3203,-5.3697,-5.4573,-5.4924,-5.5438,-5.6123,-5.5885,-5.5629,-5.5448,-5.644,-5.6805,-5.6909,-5.8081,-5.8737,-5.9012,-5.9012,-5.9012,-5.9012,-5.9012,-5.9012,-5.9219,-6.0427,-6.1599,-6.2634,-6.3358,-6.36,-6.3669,-6.4117,-6.4462,-6.4979,-6.6221,-6.6773,-6.7187,-6.7911,-6.8083,-6.8201,-6.867,-6.8975,-6.9528,-7.0704,-7.1163,-7.1609,-7.238,-7.2496,-7.2496,-7.2496,-7.2695,-7.3075,-7.361,-7.4903,-7.5919,-7.6493,-7.757,-7.8276,-7.8276,-7.8276,-7.8276,-7.8276,-7.8276,-7.8276,-7.8276,-7.8276,-7.8276,-7.8276,-7.8276,-7.8404,-7.8686,-7.9102,-7.9686,-8.0391,-8.0893,-8.1093,-4.7259,-4.7443,-4.7333,-4.6856,-4.6324,-4.5626,-4.4599,-4.4085,-4.3975,0.0,0.0,0.0,0.0,0.0,0.0,0.0,0.0,-4.5883,0.0,-4.6158,0.0,0.0,0.0,0.0,0.0,-5.1322,-5.1545,-5.1213,-5.1509,-5.1954,-5.2512,-5.3087,-5.3398,-5.344,-5.3437,-5.3355,-5.3203,-5.3203,-5.3203,-5.3203,-5.3203,-5.3734,-5.4701,-5.4701,-5.5194,-5.6027,-5.5572,-5.5313,-5.5244,-5.6344,-5.6805,-5.6943,-5.8426,-5.9012,-5.9012,-5.9012,-5.9012,-5.9012,-5.9012,-5.9288,-5.9806,-6.0944,-6.1979,-6.2875,-6.3427,-6.36,-6.3738,-6.4496,-6.4841,-6.5324,-6.6635,-6.7152,-6.7428,-6.798,-6.8083,-6.8241,-6.8787,-6.905,-6.9564,-7.0872,-7.1227,-7.1609,-7.238,-7.2496,-7.2496,-7.2496,-7.2788,-7.3204,-7.3795,-7.4994,-7.6047,-7.6679,-7.7682,-7.8276,-7.8276,-7.8276,-7.8276,-7.8276,-7.8276,-7.8276,-7.8276,-7.8276,-7.8276,-7.8276,-7.8276,-7.8458,-7.8815,-7.8929,-7.9418,-8.0239,-8.0702,-8.0959,0.0,0.0,0.0,-4.6324,0.0,0.0,-4.3919,-4.4121,-4.4654,-4.4691,-4.5296,0.0,0.0,0.0,0.0,0.0,0.0,0.0,0.0,0.0,0.0,0.0,0.0,0.0,0.0,-4.986,-5.0174,0.0,-5.0454,-5.0694,-5.2324,-5.2358,-5.2629,-5.3281,-5.3251,-5.3225,-5.3203,-5.3203,-5.3203,-5.3203,-5.3203,-5.3734,-5.4701,-5.4701,-5.4988,-5.5432,-5.5432,-5.5079,-5.4664,-5.615,-5.6805,-5.6943,-5.8426,-5.9012,-5.9012,-5.9012,-5.9012,-5.9012,-5.9012,-5.9978,-6.122,-6.1289,-6.2324,-6.3565,-6.36,-6.36,-6.3738,-6.4496,-6.5255,-6.6014,-6.6773,-6.7532,-6.8049,-6.8083,-6.8083,-6.8083,-6.8123,-6.8708,-6.9419,-7.0197,-7.0904,-7.1609,-7.238,-7.2496,-7.2496,-7.2496,-7.2788,-7.2982,-7.3019,-7.4661,-7.5787,-7.5824,-7.731,-7.8276,-7.8276,-7.8276,-7.8276,-7.8276,-7.8276,-7.8276,-7.8276,-7.8276,-7.8276,-7.8276,-7.8276,-7.8304,-7.8304,-7.8789,-7.9256,-7.973,-8.022,-8.0685,0.0,0.0,-4.8049,-4.6966,0.0,0.0,0.0,0.0,0.0,0.0,0.0,0.0,0.0,0.0,0.0,0.0,0.0,0.0,0.0,0.0,0.0,0.0,0.0,0.0,0.0,0.0,0.0,-4.9639,-5.0269,0.0,-5.1583,-5.2638,-5.3242,-5.3318,-5.3277,-5.3251,-5.3203,-5.3203,-5.3203,-5.3203,-5.3739,-5.4027,-5.4128,-5.4691,-5.4894,-5.4803,-5.4803,-5.496,-5.5322,-5.6357,-5.7081,-5.7633,-5.8633,-5.9012,-5.9012,-5.9012,-5.9012,-5.9081,-5.9599,-6.0461,-6.1392,-6.191,-6.2772,-6.36,-6.36,-6.3945,-6.4496,-6.5255,-6.6014,-6.6773,-6.7532,-6.7911,-6.8083,-6.8083,-6.8083,-6.8241,-6.8711,-6.867,-6.8975,-7.0706,-7.0839,-7.1067,-7.2285,-7.2496,-7.2524,-7.261,-7.2844,-7.3443,-7.4561,-7.5345,-7.6196,-7.731,-7.7942,-7.8276,-7.8276,-7.8276,-7.8276,-7.8276,-7.8276,-7.8276,-7.8276,-7.8276,-7.8276,-7.8276,-7.8276,-7.8276,-7.8276,-7.8789,-7.9232,-7.9708,-8.02,-8.0629,-4.8159,-4.8306,0.0,-4.7663,-4.6929,0.0,-4.5682,0.0,-4.5608,0.0,0.0,0.0,0.0,0.0,0.0,0.0,0.0,0.0,0.0,-4.5168,0.0,0.0,0.0,0.0,0.0,0.0,-4.8771,-4.8716,-4.964,0.0,0.0,-5.2431,-5.3222,-5.3256,-5.3256,-5.3251,-5.3203,-5.3203,-5.3203,-5.3203,-5.38,-5.3965,-5.3815,-5.4472,-5.4665,-5.4529,-5.4805,-5.5184,-5.5701,-5.6771,-5.746,-5.7978,-5.8737,-5.9012,-5.9012,-5.9012,-5.9012,-5.9116,-5.9909,-6.0668,-6.1427,-6.222,-6.2979,-6.36,-6.36,-6.4117,-6.4876,-6.5669,-6.6428,-6.7152,-6.7911,-6.8083,-6.8083,-6.8083,-6.8083,-6.8241,-6.8708,-6.844,-6.8673,-7.0604,-7.0604,-7.077,-7.2226,-7.2524,-7.261,-7.2695,-7.2899,-7.3517,-7.4986,-7.5558,-7.6307,-7.7719,-7.8128,-7.8276,-7.8276,-7.8276,-7.8276,-7.8276,-7.8276,-7.8276,-7.8276,-7.8276,-7.8276,-7.8276,-7.8276,-7.8276,-7.8276,-7.8789,-7.9232,-7.9708,-8.02,-8.0629]},{"header":{"parameterUnit":"m.s-1","parameterCategory":1,"la1":30.6,"la2":29.2853,"lo1":-89.7004,"lo2":-87.6739,"dy":0.0162,"dx":0.0183,"nx":112,"ny":82,"refTime":"2024-12-04T18:00:00:Z","depth":0,"parameterNumber":3,"parameterNumberName":"V-component_of_WINDS"},"data":[0.0,0.0,0.0,0.0,0.0,0.0,0.0,0.0,0.0,0.0,0.0,0.0,0.0,0.0,0.0,0.0,0.0,0.0,0.0,0.0,0.0,0.0,0.0,0.0,0.0,0.0,0.0,0.0,0.0,0.0,0.0,0.0,0.0,0.0,0.0,0.0,0.0,0.0,0.0,0.0,0.0,0.0,0.0,0.0,0.0,0.0,0.0,0.0,0.0,0.0,0.0,0.0,0.0,0.0,0.0,0.0,0.0,0.0,0.0,0.0,0.0,0.0,0.0,0.0,0.0,0.0,0.0,0.0,0.0,0.0,0.0,0.0,0.0,0.0,0.0,0.0,0.0,0.0,0.0,0.0,0.0,0.0,0.0,0.0,0.0,0.0,0.0,0.0,0.0,0.0,-1.627,-1.6306,-1.6601,-1.6591,-1.6028,-1.6032,-1.5677,-1.4799,0.0,0.0,0.0,0.0,0.0,0.0,0.0,0.0,0.0,0.0,0.0,0.0,0.0,0.0,0.0,0.0,0.0,0.0,0.0,0.0,0.0,0.0,0.0,0.0,0.0,0.0,0.0,0.0,0.0,0.0,0.0,0.0,0.0,0.0,0.0,0.0,0.0,0.0,0.0,0.0,0.0,0.0,0.0,0.0,0.0,0.0,0.0,0.0,0.0,0.0,0.0,0.0,0.0,0.0,0.0,0.0,0.0,0.0,0.0,0.0,0.0,0.0,0.0,0.0,0.0,0.0,0.0,0.0,0.0,0.0,0.0,0.0,0.0,0.0,0.0,0.0,0.0,0.0,0.0,0.0,0.0,0.0,0.0,0.0,0.0,0.0,0.0,0.0,0.0,0.0,0.0,0.0,0.0,0.0,0.0,0.0,0.0,0.0,0.0,0.0,0.0,0.0,0.0,0.0,-1.6172,-1.6736,-1.6868,-1.6646,-1.6067,-1.5429,-1.515,-1.5274,0.0,0.0,0.0,0.0,0.0,0.0,0.0,0.0,0.0,0.0,0.0,0.0,0.0,0.0,0.0,0.0,0.0,0.0,0.0,0.0,0.0,0.0,0.0,0.0,0.0,0.0,0.0,0.0,0.0,0.0,0.0,0.0,0.0,0.0,0.0,0.0,0.0,0.0,0.0,0.0,0.0,0.0,0.0,0.0,0.0,0.0,0.0,0.0,0.0,0.0,0.0,0.0,0.0,0.0,0.0,0.0,0.0,0.0,0.0,0.0,0.0,0.0,0.0,0.0,0.0,0.0,0.0,0.0,0.0,0.0,0.0,0.0,0.0,0.0,0.0,0.0,0.0,0.0,0.0,0.0,0.0,0.0,0.0,0.0,0.0,0.0,0.0,0.0,0.0,0.0,0.0,0.0,0.0,0.0,0.0,0.0,0.0,0.0,0.0,0.0,0.0,0.0,0.0,-1.597,-1.6279,-1.6654,-1.6709,-1.647,-1.5812,-1.5343,-1.5095,-1.5192,-1.5033,0.0,0.0,0.0,0.0,0.0,0.0,0.0,0.0,0.0,0.0,0.0,0.0,0.0,0.0,0.0,0.0,0.0,0.0,0.0,0.0,0.0,0.0,0.0,0.0,0.0,0.0,0.0,0.0,0.0,0.0,0.0,0.0,0.0,0.0,0.0,0.0,0.0,0.0,0.0,0.0,0.0,0.0,0.0,0.0,0.0,0.0,0.0,0.0,0.0,0.0,0.0,0.0,0.0,0.0,0.0,0.0,0.0,0.0,0.0,0.0,0.0,0.0,0.0,0.0,0.0,0.0,0.0,0.0,0.0,0.0,0.0,0.0,0.0,0.0,0.0,0.0,0.0,0.0,0.0,0.0,0.0,0.0,0.0,0.0,0.0,0.0,0.0,0.0,0.0,0.0,0.0,0.0,0.0,0.0,0.0,0.0,0.0,0.0,0.0,0.0,0.0,0.0,-1.6429,-1.6434,-1.6586,-1.6537,-1.6279,-1.5692,-1.5246,-1.5019,-1.4888,-1.4612,0.0,0.0,0.0,0.0,0.0,0.0,0.0,0.0,0.0,0.0,0.0,0.0,0.0,0.0,0.0,0.0,0.0,0.0,0.0,0.0,0.0,0.0,0.0,0.0,0.0,0.0,0.0,0.0,0.0,0.0,0.0,0.0,0.0,0.0,0.0,0.0,0.0,0.0,0.0,0.0,0.0,0.0,0.0,0.0,0.0,0.0,0.0,0.0,0.0,0.0,0.0,0.0,0.0,0.0,0.0,0.0,0.0,0.0,0.0,0.0,0.0,0.0,0.0,0.0,0.0,0.0,0.0,0.0,0.0,0.0,0.0,0.0,0.0,0.0,0.0,0.0,0.0,0.0,0.0,0.0,0.0,0.0,0.0,0.0,0.0,0.0,0.0,0.0,0.0,0.0,0.0,0.0,0.0,0.0,0.0,0.0,0.0,0.0,0.0,0.0,0.0,0.0,-1.6368,-1.6774,-1.6962,-1.6714,-1.627,-1.5743,-1.5017,-1.4593,-1.4616,-1.4179,0.0,0.0,0.0,0.0,0.0,0.0,0.0,0.0,0.0,0.0,0.0,0.0,0.0,0.0,0.0,0.0,0.0,0.0,0.0,0.0,0.0,0.0,0.0,0.0,0.0,0.0,0.0,0.0,0.0,0.0,0.0,0.0,0.0,0.0,0.0,0.0,0.0,0.0,0.0,0.0,0.0,0.0,0.0,0.0,0.0,0.0,0.0,0.0,0.0,0.0,0.0,0.0,0.0,0.0,0.0,0.0,0.0,0.0,0.0,0.0,0.0,0.0,0.0,0.0,0.0,0.0,0.0,0.0,0.0,0.0,0.0,0.0,0.0,0.0,0.0,0.0,0.0,0.0,0.0,0.0,0.0,0.0,0.0,0.0,0.0,0.0,0.0,0.0,0.0,0.0,0.0,0.0,0.0,0.0,0.0,0.0,0.0,0.0,0.0,0.0,0.0,0.0,-1.6223,-1.6606,0.0,-1.6903,-1.6505,-1.5779,-1.5142,-1.4767,-1.4594,0.0,0.0,0.0,0.0,0.0,0.0,0.0,0.0,0.0,0.0,0.0,0.0,0.0,0.0,0.0,0.0,0.0,0.0,0.0,0.0,0.0,0.0,0.0,0.0,0.0,0.0,0.0,0.0,0.0,0.0,0.0,0.0,0.0,0.0,0.0,0.0,0.0,0.0,0.0,0.0,0.0,0.0,0.0,0.0,0.0,0.0,0.0,0.0,0.0,0.0,0.0,0.0,0.0,0.0,0.0,0.0,0.0,0.0,0.0,0.0,0.0,0.0,0.0,0.0,0.0,0.0,0.0,0.0,0.0,0.0,0.0,0.0,0.0,0.0,0.0,0.0,0.0,0.0,0.0,0.0,0.0,0.0,0.0,0.0,0.0,0.0,0.0,0.0,0.0,0.0,0.0,0.0,0.0,0.0,0.0,0.0,0.0,0.0,0.0,0.0,0.0,0.0,-1.5801,-1.6211,-1.6594,0.0,-1.7009,-1.6611,-1.5954,-1.5232,-1.4728,-1.4625,0.0,0.0,0.0,0.0,0.0,0.0,0.0,0.0,0.0,0.0,0.0,0.0,0.0,0.0,0.0,0.0,0.0,0.0,0.0,0.0,0.0,0.0,0.0,0.0,0.0,0.0,0.0,0.0,0.0,0.0,0.0,0.0,0.0,0.0,0.0,0.0,0.0,0.0,0.0,0.0,0.0,0.0,0.0,0.0,0.0,0.0,0.0,0.0,0.0,0.0,0.0,0.0,0.0,0.0,0.0,0.0,0.0,0.0,0.0,0.0,0.0,0.0,0.0,0.0,0.0,0.0,0.0,0.0,0.0,0.0,0.0,0.0,0.0,0.0,0.0,0.0,0.0,0.0,0.0,0.0,0.0,0.0,0.0,0.0,0.0,0.0,0.0,0.0,0.0,0.0,0.0,0.0,0.0,0.0,0.0,0.0,0.0,0.0,0.0,0.0,0.0,0.0,-1.5825,-1.6368,-1.6911,-1.743,-1.6948,-1.6515,-1.6325,-1.511,-1.4406,0.0,0.0,0.0,0.0,0.0,0.0,0.0,0.0,0.0,0.0,0.0,0.0,0.0,0.0,0.0,0.0,0.0,0.0,0.0,0.0,0.0,0.0,0.0,0.0,0.0,0.0,0.0,0.0,0.0,0.0,0.0,0.0,0.0,0.0,0.0,0.0,0.0,0.0,0.0,0.0,0.0,0.0,0.0,0.0,0.0,0.0,0.0,0.0,0.0,0.0,0.0,0.0,0.0,0.0,0.0,0.0,0.0,0.0,0.0,0.0,0.0,0.0,0.0,0.0,0.0,0.0,0.0,0.0,0.0,0.0,0.0,0.0,0.0,0.0,0.0,0.0,0.0,0.0,0.0,0.0,0.0,0.0,0.0,0.0,0.0,0.0,0.0,0.0,0.0,0.0,0.0,0.0,0.0,0.0,0.0,0.0,0.0,0.0,0.0,0.0,0.0,0.0,0.0,-1.5849,-1.6525,-1.7105,-1.7443,-1.7348,-1.7004,-1.6337,-1.5584,-1.4995,-1.4718,0.0,0.0,0.0,0.0,0.0,0.0,0.0,0.0,0.0,0.0,0.0,0.0,0.0,0.0,0.0,0.0,0.0,0.0,0.0,0.0,0.0,0.0,0.0,0.0,0.0,0.0,0.0,0.0,0.0,0.0,0.0,0.0,0.0,0.0,0.0,0.0,0.0,0.0,0.0,0.0,0.0,0.0,0.0,0.0,0.0,0.0,0.0,0.0,0.0,0.0,0.0,0.0,0.0,0.0,0.0,0.0,0.0,0.0,0.0,0.0,0.0,0.0,0.0,0.0,0.0,0.0,0.0,0.0,0.0,0.0,0.0,0.0,0.0,0.0,0.0,0.0,0.0,0.0,0.0,0.0,0.0,0.0,0.0,0.0,0.0,0.0,0.0,0.0,0.0,0.0,0.0,0.0,0.0,0.0,0.0,0.0,0.0,0.0,0.0,0.0,0.0,0.0,-1.5861,-1.6598,-1.7189,-1.7455,-1.7382,-1.7095,-1.6506,-1.5778,-1.5182,-1.4871,0.0,0.0,0.0,0.0,0.0,0.0,0.0,0.0,0.0,0.0,0.0,0.0,0.0,0.0,0.0,0.0,0.0,0.0,0.0,0.0,0.0,0.0,0.0,0.0,0.0,0.0,0.0,0.0,0.0,0.0,0.0,0.0,0.0,0.0,0.0,0.0,0.0,0.0,0.0,0.0,0.0,0.0,0.0,0.0,0.0,0.0,0.0,0.0,0.0,0.0,0.0,0.0,0.0,0.0,0.0,0.0,0.0,0.0,0.0,0.0,0.0,0.0,0.0,0.0,0.0,0.0,0.0,0.0,0.0,0.0,0.0,0.0,0.0,0.0,0.0,0.0,0.0,0.0,0.0,0.0,0.0,0.0,0.0,0.0,0.0,0.0,0.0,0.0,0.0,0.0,0.0,0.0,0.0,0.0,0.0,0.0,0.0,0.0,0.0,0.0,0.0,0.0,-1.5897,-1.6634,-1.7213,-1.7455,-1.7274,-1.6951,-1.6662,-1.5737,-1.5127,-1.5023,0.0,0.0,0.0,0.0,0.0,0.0,0.0,0.0,0.0,0.0,0.0,0.0,0.0,0.0,0.0,0.0,0.0,0.0,0.0,0.0,0.0,0.0,0.0,0.0,0.0,0.0,0.0,0.0,0.0,0.0,0.0,0.0,0.0,0.0,0.0,0.0,0.0,0.0,0.0,0.0,0.0,0.0,0.0,0.0,0.0,0.0,0.0,0.0,0.0,0.0,0.0,0.0,0.0,0.0,0.0,0.0,0.0,0.0,0.0,0.0,-1.1855,-1.1414,0.0,0.0,0.0,0.0,0.0,0.0,0.0,0.0,0.0,0.0,0.0,0.0,0.0,0.0,0.0,0.0,0.0,0.0,0.0,0.0,0.0,0.0,0.0,0.0,0.0,0.0,0.0,0.0,0.0,0.0,0.0,0.0,0.0,0.0,0.0,0.0,0.0,0.0,0.0,0.0,-1.6163,-1.6899,-1.7418,-1.7479,-1.7208,-1.6866,-1.6393,-1.5728,-1.5079,-1.4526,-1.3665,0.0,0.0,0.0,0.0,0.0,0.0,0.0,0.0,0.0,0.0,0.0,0.0,0.0,0.0,0.0,0.0,0.0,0.0,0.0,0.0,0.0,0.0,0.0,0.0,0.0,0.0,0.0,0.0,0.0,0.0,0.0,0.0,0.0,0.0,0.0,0.0,0.0,0.0,0.0,0.0,0.0,0.0,0.0,0.0,0.0,0.0,0.0,0.0,0.0,0.0,0.0,0.0,0.0,0.0,0.0,0.0,0.0,0.0,0.0,-1.3276,-1.2922,0.0,0.0,0.0,0.0,0.0,0.0,0.0,0.0,0.0,0.0,0.0,0.0,0.0,0.0,0.0,0.0,0.0,0.0,0.0,0.0,0.0,0.0,0.0,0.0,0.0,0.0,0.0,0.0,0.0,0.0,0.0,0.0,0.0,0.0,0.0,0.0,0.0,0.0,0.0,0.0,-1.6079,-1.6911,-1.7479,-1.7479,-1.7373,-1.7041,-1.6517,-1.5955,-1.5414,-1.4918,-1.3898,0.0,0.0,0.0,0.0,0.0,0.0,0.0,0.0,0.0,0.0,0.0,0.0,0.0,0.0,0.0,0.0,0.0,0.0,0.0,0.0,0.0,0.0,0.0,0.0,0.0,0.0,0.0,0.0,0.0,0.0,0.0,0.0,0.0,0.0,0.0,0.0,0.0,0.0,0.0,0.0,0.0,0.0,0.0,0.0,0.0,0.0,0.0,0.0,0.0,0.0,0.0,0.0,0.0,-1.5129,-1.4992,-1.5186,-1.5186,-1.5629,-1.6369,-1.5013,-1.4859,-1.5442,-1.4298,0.0,0.0,0.0,0.0,0.0,0.0,0.0,0.0,0.0,0.0,0.0,0.0,0.0,0.0,0.0,0.0,0.0,0.0,0.0,0.0,0.0,0.0,-1.6429,-1.6163,-1.6477,-1.6646,-1.5934,0.0,0.0,0.0,0.0,0.0,0.0,0.0,0.0,0.0,0.0,0.0,-1.603,-1.6875,-1.7479,-1.7479,-1.7443,-1.7155,-1.6686,-1.6121,-1.5688,-1.5379,-1.4236,-1.3671,0.0,0.0,0.0,0.0,0.0,0.0,0.0,0.0,0.0,0.0,0.0,0.0,0.0,0.0,0.0,0.0,0.0,0.0,0.0,0.0,0.0,0.0,0.0,0.0,0.0,0.0,0.0,0.0,0.0,0.0,0.0,0.0,-1.1839,-1.1413,0.0,0.0,0.0,0.0,0.0,0.0,0.0,0.0,0.0,0.0,0.0,0.0,0.0,-1.4902,-1.4529,-1.5594,-1.6235,-1.638,-1.7405,-1.7945,-1.7971,-1.7971,-1.8039,-1.815,-1.7948,0.0,-1.6907,-1.6415,0.0,0.0,0.0,0.0,0.0,0.0,0.0,0.0,0.0,0.0,0.0,0.0,0.0,0.0,0.0,0.0,0.0,0.0,0.0,0.0,0.0,0.0,-1.7261,-1.6996,-1.7165,-1.7286,-1.696,-1.6392,-1.5837,-1.5463,-1.5451,-1.539,0.0,0.0,0.0,0.0,0.0,0.0,-1.6561,-1.7117,-1.7479,-1.7479,-1.7041,-1.6608,-1.6381,-1.5832,-1.5255,-1.4815,-1.4202,-1.3971,-1.4235,-1.334,0.0,0.0,0.0,0.0,0.0,0.0,0.0,0.0,0.0,0.0,0.0,0.0,0.0,0.0,0.0,0.0,0.0,0.0,0.0,0.0,0.0,0.0,0.0,0.0,0.0,0.0,0.0,0.0,0.0,-1.3247,-1.2456,-1.1854,-1.1447,-1.0732,0.0,0.0,0.0,0.0,0.0,0.0,0.0,0.0,0.0,-1.5153,-1.5784,-1.6238,-1.6456,-1.7245,-1.7695,-1.785,-1.844,-1.8824,-1.8985,-1.8985,-1.8985,-1.8985,-1.8985,-1.8664,-1.8116,-1.7649,-1.7382,-1.7221,0.0,0.0,0.0,0.0,-1.6722,-1.6856,-1.6886,-1.6899,-1.6873,-1.6794,0.0,0.0,0.0,0.0,0.0,0.0,0.0,-1.646,-1.6387,-1.6803,-1.7274,-1.7298,-1.7394,-1.7455,-1.7334,-1.7032,-1.6622,-1.6066,-1.6079,-1.5994,-1.5427,-1.5209,0.0,0.0,0.0,-1.632,-1.6453,-1.7056,-1.743,-1.7274,-1.7038,-1.6741,-1.6335,-1.5916,-1.5584,-1.5382,-1.4746,-1.4441,-1.4751,-1.4048,-1.3736,0.0,0.0,0.0,0.0,0.0,0.0,0.0,0.0,0.0,0.0,0.0,0.0,0.0,0.0,0.0,0.0,0.0,0.0,0.0,0.0,0.0,0.0,0.0,0.0,0.0,0.0,0.0,0.0,-1.3552,-1.3127,-1.2109,-1.2293,-1.1826,0.0,0.0,0.0,0.0,0.0,0.0,-1.4684,-1.4718,-1.5346,-1.6717,-1.6984,-1.7508,-1.8357,-1.8597,-1.8824,-1.9038,-1.9038,-1.9158,-1.943,-1.943,-1.943,-1.943,-1.943,-1.9239,-1.8985,-1.8397,-1.8062,-1.7942,-1.7462,-1.7447,-1.7569,-1.7369,-1.741,-1.7583,-1.7603,-1.7668,-1.7657,-1.7309,-1.7178,-1.709,-1.6536,0.0,0.0,0.0,0.0,-1.6537,-1.6742,-1.6996,-1.7237,-1.7443,-1.7479,-1.7479,-1.7479,-1.7479,-1.7286,-1.6634,-1.667,-1.6585,-1.5922,-1.5644,0.0,-1.5915,-1.6539,-1.6974,-1.6974,-1.7571,-1.7732,-1.7174,-1.7032,-1.6803,-1.632,-1.606,-1.5922,-1.5994,-1.5388,-1.5105,-1.5429,-1.492,-1.451,-1.4309,0.0,0.0,0.0,0.0,0.0,0.0,0.0,0.0,0.0,0.0,0.0,0.0,0.0,0.0,0.0,0.0,0.0,0.0,0.0,0.0,0.0,0.0,0.0,0.0,0.0,0.0,0.0,0.0,0.0,-1.1442,-1.2864,0.0,0.0,0.0,0.0,-1.3948,-1.4011,-1.476,-1.6308,-1.6399,-1.7084,-1.8725,-1.8751,-1.8954,-1.935,-1.9377,-1.939,-1.9345,-1.9345,-1.9359,-1.943,-1.943,-1.943,-1.943,-1.943,-1.9417,-1.935,-1.8704,-1.8303,-1.7955,-1.7689,-1.7569,-1.7609,-1.7567,-1.7564,-1.7616,-1.7584,-1.7287,-1.6929,-1.7428,-1.7359,-1.703,-1.6758,-1.6671,0.0,0.0,-1.6857,-1.7056,-1.7068,-1.7274,-1.7467,-1.7479,-1.7479,-1.7479,-1.7479,-1.7479,-1.7394,-1.7105,-1.7068,-1.6984,-1.6694,0.0,-1.6999,-1.8178,-1.8568,-1.8795,-1.8795,-1.9017,-1.8648,-1.7231,-1.6875,-1.6598,-1.6308,-1.6054,-1.6006,-1.6247,-1.5986,-1.5983,-1.6231,-1.5719,-1.541,-1.5435,-1.4913,0.0,0.0,0.0,0.0,0.0,0.0,0.0,0.0,0.0,0.0,0.0,0.0,0.0,0.0,0.0,0.0,0.0,0.0,0.0,0.0,0.0,0.0,0.0,0.0,0.0,0.0,0.0,0.0,-1.414,-1.4792,0.0,-1.3583,-1.4477,-1.527,-1.5636,-1.6262,-1.7051,-1.8013,-1.8039,-1.839,-1.9199,-1.9212,-1.9265,-1.943,-1.943,-1.943,-1.943,-1.943,-1.943,-1.943,-1.943,-1.943,-1.943,-1.943,-1.943,-1.9359,-1.9145,-1.8998,-1.8865,-1.8557,-1.8557,-1.8718,-1.8289,-1.8255,-1.8381,-1.7982,-1.7842,-1.7812,-1.7653,-1.7353,-1.7061,-1.6796,-1.6838,-1.6972,-1.6972,-1.7126,-1.7346,-1.7346,-1.7418,-1.7479,-1.7479,-1.7479,-1.7479,-1.7479,-1.7479,-1.7455,-1.7358,-1.7201,-1.7342,-1.7968,-1.797,-1.7994,-1.8424,-1.8747,-1.8608,-1.7824,-1.8006,-1.7894,-1.7174,-1.7008,-1.6839,-1.6573,-1.6296,-1.6187,-1.6296,-1.603,-1.6042,-1.6306,-1.5959,-1.5686,-1.5523,-1.511,-1.4613,0.0,0.0,0.0,0.0,0.0,0.0,0.0,0.0,0.0,0.0,0.0,0.0,0.0,0.0,0.0,0.0,0.0,0.0,0.0,0.0,0.0,0.0,0.0,0.0,0.0,0.0,-1.5577,-1.5139,-1.5671,-1.5833,-1.524,-1.6199,-1.6968,-1.73,-1.7945,-1.8557,-1.9052,-1.9078,-1.9158,-1.9417,-1.943,-1.943,-1.943,-1.943,-1.943,-1.943,-1.943,-1.943,-1.943,-1.943,-1.943,-1.943,-1.943,-1.943,-1.943,-1.943,-1.943,-1.9403,-1.9145,-1.9199,-1.9345,-1.8902,-1.8827,-1.8823,-1.8194,-1.8135,-1.8215,-1.7737,-1.7436,-1.7175,-1.7017,-1.708,-1.7225,-1.7225,-1.7346,-1.7479,-1.7479,-1.7479,-1.7479,-1.7479,-1.7479,-1.7479,-1.7479,-1.7479,-1.7479,-1.7479,-1.7346,-1.7514,-1.8295,-1.8638,-1.8787,-1.8787,-1.9287,-1.9196,-1.802,-1.7998,-1.7836,-1.7174,-1.7092,-1.6984,-1.6718,-1.6441,-1.632,-1.6429,-1.6175,-1.6139,-1.6404,-1.6263,-1.6034,-1.5749,-1.5398,-1.5019,-1.4577,0.0,0.0,0.0,0.0,0.0,0.0,0.0,0.0,0.0,0.0,0.0,0.0,0.0,0.0,0.0,0.0,0.0,0.0,0.0,0.0,0.0,0.0,0.0,-1.4863,-1.4344,-1.4077,-1.4245,-1.5529,-1.6448,-1.6581,-1.778,-1.8637,-1.8918,-1.8945,-1.9065,-1.9359,-1.943,-1.943,-1.943,-1.943,-1.943,-1.943,-1.943,-1.943,-1.943,-1.943,-1.943,-1.943,-1.943,-1.943,-1.943,-1.943,-1.943,-1.943,-1.943,-1.943,-1.943,-1.943,-1.943,-1.943,-1.9372,-1.9127,-1.8765,-1.8194,-1.7972,-1.7914,-1.7608,-1.7479,-1.7479,-1.7479,-1.7479,-1.7479,-1.7479,-1.7479,-1.7479,-1.7479,-1.7479,-1.7479,-1.7479,-1.7479,-1.7479,-1.7479,-1.7479,-1.7479,-1.7479,-1.7537,-1.7596,-1.7596,-1.8577,-1.9377,-1.9377,-2.04,0.0,-1.9435,-1.9319,-1.8764,-1.7244,-1.7105,-1.6996,-1.6742,-1.6453,-1.6404,-1.6682,-1.6429,-1.6392,-1.6682,-1.6706,-1.6573,-1.6308,-1.5827,-1.5665,-1.5912,0.0,0.0,0.0,0.0,0.0,0.0,0.0,0.0,0.0,0.0,0.0,0.0,0.0,0.0,0.0,0.0,0.0,0.0,0.0,0.0,0.0,-1.4348,-1.5456,-1.5387,-1.6068,-1.6762,-1.7236,-1.7828,-1.8307,-1.8573,-1.8964,-1.9158,-1.9239,-1.9239,-1.9279,-1.9417,-1.943,-1.943,-1.943,-1.943,-1.943,-1.943,-1.943,-1.943,-1.943,-1.943,-1.943,-1.943,-1.943,-1.943,-1.943,-1.943,-1.943,-1.943,-1.943,-1.943,-1.943,-1.943,-1.943,-1.9372,-1.8836,-1.8357,-1.783,-1.7726,-1.7667,-1.7608,-1.7537,-1.7479,-1.7479,-1.7479,-1.7479,-1.7479,-1.7479,-1.7479,-1.7479,-1.7479,-1.7479,-1.7479,-1.7479,-1.7479,-1.7479,-1.7479,-1.7479,-1.7479,-1.7479,-1.8227,-1.9087,-1.994,-2.0386,-2.0902,-2.1828,-2.2297,-2.1714,-1.955,-1.9319,-1.8842,-1.7557,-1.737,-1.7346,-1.7274,-1.6851,-1.6622,-1.6694,-1.626,-1.6211,-1.6682,-1.6706,-1.6754,-1.6863,-1.6554,-1.6306,0.0,0.0,0.0,0.0,0.0,0.0,0.0,0.0,0.0,0.0,0.0,0.0,0.0,0.0,0.0,0.0,0.0,0.0,0.0,0.0,0.0,0.0,-1.4895,-1.5958,-1.6398,-1.6693,-1.728,-1.8542,-1.8246,-1.8339,-1.9332,-1.943,-1.943,-1.943,-1.943,-1.943,-1.943,-1.943,-1.943,-1.943,-1.943,-1.943,-1.943,-1.943,-1.943,-1.943,-1.943,-1.943,-1.943,-1.943,-1.943,-1.943,-1.943,-1.943,-1.943,-1.943,-1.943,-1.943,0.0,0.0,0.0,0.0,-1.8135,-1.7667,-1.7537,-1.7479,-1.7479,-1.7479,-1.7479,-1.7479,-1.7479,-1.7479,-1.7479,-1.7479,-1.7479,-1.7479,-1.7479,-1.7479,-1.7479,-1.7479,-1.7479,-1.7479,-1.7479,-1.7479,-1.7655,-1.8169,-1.881,0.0,-2.1601,-2.1885,-2.1998,-2.2168,-2.2636,-2.2297,-2.0286,-2.0056,-1.9608,-1.8402,-1.8227,-1.8064,-1.7537,-1.7105,0.0,0.0,0.0,-1.6416,-1.6851,-1.6754,0.0,0.0,0.0,0.0,0.0,0.0,0.0,0.0,-1.5765,-1.4374,0.0,0.0,0.0,0.0,0.0,0.0,0.0,0.0,0.0,0.0,0.0,0.0,0.0,0.0,0.0,0.0,-1.6058,-1.6899,-1.7564,-1.6594,-1.6556,-1.8625,-1.7608,-1.749,-1.9158,-1.9243,-1.9243,-1.9359,-1.9359,-1.943,-1.943,-1.943,0.0,0.0,0.0,-1.943,-1.943,-1.943,-1.943,-1.943,-1.943,-1.943,-1.943,-1.943,-1.943,-1.943,-1.943,-1.943,-1.943,-1.943,-1.943,-1.943,-1.943,-1.9359,-1.9243,-1.8661,-1.8252,-1.7972,-1.7608,0.0,0.0,-1.7479,-1.7479,-1.7479,-1.7479,-1.7479,-1.7479,-1.7479,-1.7479,-1.7479,-1.7479,-1.7479,-1.7479,-1.7479,-1.7479,-1.7537,-1.7655,-1.7713,-1.8052,-1.9261,-1.9608,-2.0415,-2.2636,-2.2974,-2.2692,-2.1643,-2.2451,-2.2749,-2.1472,-2.1187,-2.0616,-1.9435,-1.9158,0.0,-1.7596,-1.7237,-1.7092,-1.7092,-1.6875,-1.6863,-1.7129,-1.6948,-1.7177,-1.7901,-1.7744,-1.7998,-1.8686,-1.877,-1.9048,-1.9434,-1.5716,-1.4157,0.0,0.0,0.0,0.0,0.0,0.0,0.0,0.0,0.0,0.0,0.0,0.0,0.0,0.0,0.0,-1.5363,-1.6058,-1.7029,-1.7893,-1.6709,-1.6426,-1.8298,-1.7827,-1.7757,-1.8868,-1.8286,-1.8169,-1.8939,-1.9243,-1.943,-1.943,-1.943,-1.943,-1.943,-1.943,-1.943,-1.943,-1.943,-1.943,-1.943,-1.943,0.0,-1.943,-1.943,-1.943,-1.943,-1.943,-1.943,-1.943,-1.943,-1.943,-1.943,-1.943,-1.9243,-1.8939,-1.8532,-1.8252,-1.7972,-1.7608,-1.7479,-1.7479,-1.7479,-1.7479,-1.7479,-1.7479,-1.7479,0.0,-1.7479,-1.7479,-1.7479,-1.7479,-1.7479,-1.7479,-1.7479,-1.7479,-1.7772,-1.8752,-1.8926,-1.9319,-2.0501,-2.1601,-2.2467,-2.2918,-2.2974,-2.3271,-2.3944,-2.4295,-2.4016,-2.2805,-2.1771,-2.0616,-1.9435,-1.8402,-1.7772,-1.7537,-1.7237,-1.7092,-1.7092,-1.7044,-1.7129,-1.7394,-1.7563,-1.7829,-1.8203,-1.8577,-1.8746,-1.8686,-1.9338,-1.9591,-1.9458,-1.8482,-1.6979,0.0,0.0,0.0,0.0,0.0,0.0,0.0,0.0,0.0,0.0,0.0,-1.6157,-1.5746,0.0,-1.6562,-1.6196,-1.6683,-1.7367,-1.7983,-1.7623,-1.7484,-1.7918,-1.737,-1.7337,-1.811,-1.8227,-1.8227,-1.8227,-1.8939,-1.9127,-1.8473,-1.9068,-1.943,-1.943,-1.943,-1.943,-1.943,-1.943,-1.943,-1.943,-1.943,-1.943,-1.943,-1.943,-1.943,-1.943,-1.943,-1.943,-1.943,-1.943,-1.943,-1.943,-1.943,-1.9185,-1.8881,-1.8706,-1.8369,-1.7972,-1.7784,-1.7667,-1.7479,-1.7479,-1.7479,-1.7479,-1.7479,-1.7479,-1.7479,-1.7479,-1.7479,-1.7479,-1.7479,-1.7479,-1.7479,-1.7479,-1.7479,-1.7655,-1.8286,-1.8402,-1.8752,-1.994,-2.1187,-2.2225,-2.2862,-2.3496,-2.4128,-2.4701,-2.4812,-2.4368,-2.3159,-2.2451,-2.1316,-1.9492,-1.8752,-1.8169,-1.7537,-1.7479,-1.7479,-1.7479,-1.7612,-1.7805,-1.807,-1.8215,-1.8469,-1.8879,-1.9132,-1.9277,-1.9289,-1.982,-2.0014,-1.9869,-1.9122,-1.762,0.0,0.0,0.0,0.0,0.0,0.0,0.0,0.0,-1.6353,-1.6353,-1.6593,-1.6759,-1.6703,-1.6782,-1.6963,-1.7146,-1.7438,-1.7754,-1.8102,-1.8293,-1.8097,-1.7489,-1.6926,-1.6809,-1.7279,-1.7806,-1.7935,-1.7455,-1.8402,-1.8706,-1.7923,-1.8823,-1.943,-1.943,-1.943,-1.943,-1.943,-1.943,-1.943,-1.943,-1.943,-1.943,-1.943,-1.943,-1.943,-1.943,-1.943,-1.943,-1.943,-1.943,-1.943,-1.9372,-1.9301,-1.9127,-1.8881,-1.8823,-1.8486,-1.7972,-1.7914,-1.7726,-1.7479,-1.7479,-1.7479,-1.7479,-1.7479,-1.7479,-1.7479,-1.7479,-1.7479,-1.7479,-1.7479,-1.7479,-1.7479,-1.7479,-1.7479,-1.7537,-1.783,-1.783,-1.8286,-1.9723,-2.0802,-2.187,-2.3143,-2.4184,-2.4812,-2.4812,-2.4812,-2.4368,-2.3159,-2.2805,-2.1771,-1.955,-1.9087,-1.8603,-1.7669,-1.7756,-1.7901,-1.795,-1.8167,-1.8432,-1.8746,-1.8758,-1.9012,-1.9543,-1.9603,-1.9736,-1.9965,-2.0231,-2.0352,-2.0364,-1.9022,-1.7457,-1.6228,-1.6393,-1.6593,-1.6567,-1.658,-1.6673,0.0,0.0,-1.666,-1.666,-1.6901,-1.7063,-1.6742,-1.716,-1.7525,-1.7536,-1.7605,-1.7875,-1.8708,-1.7412,-1.6588,-1.702,-1.6997,-1.6879,-1.6621,-1.5972,-1.5983,-1.6997,-1.7455,-1.8169,-1.9127,-1.9301,-1.943,-1.943,-1.943,-1.943,-1.943,-1.943,-1.943,-1.943,-1.943,-1.943,-1.943,-1.943,-1.943,-1.943,-1.943,-1.943,-1.943,-1.943,-1.943,-1.9372,-1.9055,-1.8939,-1.8881,-1.859,-1.8252,-1.7972,-1.7667,-1.7537,-1.7479,-1.7479,-1.7479,-1.7479,-1.7479,-1.7479,-1.7479,-1.7479,-1.7479,-1.7479,-1.7479,-1.7479,-1.7479,-1.7479,-1.7479,-1.7772,-1.8868,-1.91,-1.9781,-2.2127,-2.2692,-2.3143,-2.4423,-2.4701,-2.4812,-2.4812,-2.4812,-2.4368,-2.3159,-2.1998,-2.0787,-1.9435,-1.8344,-1.7752,-1.7864,-1.7853,-1.7986,-1.8227,-1.8275,-1.8517,-1.9012,-1.9036,-1.9289,-1.9833,-2.0074,-2.0207,-2.0231,-2.0496,-2.0629,-2.0629,-1.91,-1.7539,-1.6901,-1.6754,-1.654,-1.6874,-1.7088,-1.7154,-1.6941,-1.7061,-1.7168,-1.6994,-1.7246,-1.7462,-1.7424,-1.7661,-1.7653,0.0,-1.7754,-1.8159,-1.7609,-1.7646,-1.7392,-1.6492,-1.6573,-1.6455,-1.5736,-1.5144,-1.5084,-1.5865,-1.668,-1.7455,-1.7935,-1.8894,-1.943,-1.943,-1.943,-1.943,-1.943,-1.943,-1.943,-1.943,-1.943,-1.943,-1.943,-1.943,-1.943,-1.943,-1.943,-1.943,-1.943,-1.943,-1.943,-1.9372,-1.9243,-1.8939,-1.859,-1.8473,-1.8252,-1.7972,-1.7843,-1.7667,-1.7479,-1.7479,-1.7479,-1.7479,-1.7479,-1.7479,-1.7479,-1.7479,-1.7479,-1.7479,-1.7479,-1.7479,-1.7479,-1.7479,-1.7479,-1.7655,-1.811,-1.881,-1.9608,-2.063,-2.2013,-2.3159,-2.3664,-2.4351,-2.4812,-2.4812,-2.4812,-2.4368,-2.3159,-2.1885,-2.0386,-1.846,-1.7966,-1.7756,-1.7865,-1.8167,-1.8396,-1.8517,-1.8662,-1.8915,-1.9354,-1.9458,-1.9724,-2.011,-2.0376,-2.0509,-2.0509,-2.0617,-2.0665,-2.0665,-1.8191,-1.6773,-1.6954,-1.6754,-1.6563,-1.7072,-1.742,-1.7475,-1.7048,-1.7275,-1.7515,-1.7367,-1.7435,-1.7569,-1.7376,-1.745,-1.727,-1.6596,-1.7486,-1.7943,-1.7138,-1.763,-1.7572,-1.6138,-1.5913,-1.5558,-1.4906,-1.4669,-1.4728,-1.4966,-1.6208,-1.7161,-1.7525,-1.8706,-1.943,-1.943,-1.943,-1.943,-1.943,-1.943,-1.943,-1.943,-1.943,-1.943,-1.943,-1.943,-1.943,-1.943,-1.943,-1.943,-1.943,-1.943,-1.943,-1.9372,-1.9301,-1.8894,-1.8415,-1.8311,-1.8135,-1.7843,-1.7843,-1.7726,-1.7479,-1.7479,-1.7479,-1.7479,-1.7479,-1.7479,-1.7479,-1.7479,-1.7479,-1.7479,-1.7479,-1.7479,-1.7479,-1.7479,-1.7539,-1.7587,-1.7587,-1.8345,-1.922,-1.9911,-2.1524,-2.2944,-2.3545,-2.439,-2.4932,-2.483,-2.4898,-2.4356,-2.2692,-2.1161,-1.9542,-1.7823,-1.7829,-1.8022,-1.8094,-1.8456,-1.871,-1.8794,-1.8976,-1.9229,-1.9567,-1.9772,-2.0038,-2.0376,-2.0569,-2.0665,-2.0665,-2.0665,-2.0457,-2.0028,-1.7338,-1.596,-1.5952,-1.6273,-1.6767,-1.7125,-1.742,-1.7582,-1.7555,-1.7569,-1.7582,-1.7569,-1.7569,-1.7238,-1.5993,-1.5978,-1.6135,-1.6103,-1.6343,-1.6973,-1.8181,-1.7044,-1.6079,-1.602,-1.4906,-1.4143,0.0,-1.4441,-1.4619,-1.4599,-1.609,-1.7525,-1.8765,-1.9185,-1.943,-1.943,-1.943,-1.943,-1.943,-1.943,-1.943,-1.943,-1.943,-1.943,-1.943,-1.943,-1.943,-1.943,-1.943,-1.943,-1.943,-1.943,-1.943,-1.9372,-1.9055,-1.8706,-1.8369,-1.8089,-1.7784,-1.7537,-1.7537,-1.7479,-1.7479,-1.7479,-1.7479,-1.7479,-1.7479,-1.7479,-1.7479,-1.7479,-1.7479,-1.7479,-1.7479,-1.7479,-1.7479,-1.7479,-1.7684,-1.7865,-1.7865,-1.8143,-1.9046,-2.1544,-2.2067,-2.2807,-2.4939,-2.536,-2.5223,-2.4881,-2.5121,-2.4341,-2.1517,-1.9325,-1.7985,-1.7925,-1.8118,-1.8384,-1.8638,-1.8674,-1.8794,-1.9048,-1.9072,-1.9314,-1.9857,-1.9881,-2.0134,-2.0641,-2.0735,-2.0665,-2.0665,-2.0665,-1.9959,-1.8412,-1.6846,-1.5399,-1.6339,-1.6553,-1.682,-1.7367,-1.7515,-1.7582,-1.7582,-1.7582,-1.7582,-1.7582,-1.6988,-1.6373,-1.6145,-1.6145,-1.6022,-1.5355,-1.6646,-1.7232,-1.5747,-1.6585,-1.6644,-1.4669,-1.5035,0.0,0.0,0.0,0.0,-1.551,-1.6279,-1.7173,-1.8252,-1.901,-1.9301,-1.9055,-1.9301,-1.943,-1.943,-1.943,-1.943,-1.943,-1.943,-1.943,-1.943,-1.943,-1.943,-1.943,-1.943,-1.943,-1.943,-1.943,-1.943,-1.9372,-1.9301,-1.8894,-1.8357,-1.8311,-1.796,-1.7479,-1.7479,-1.7479,-1.7479,-1.7479,-1.7479,-1.7479,-1.7479,-1.7479,-1.7479,-1.7479,-1.7479,-1.7527,-1.7696,-1.7744,-1.7793,-1.7974,-1.8094,-1.8155,-1.8155,-1.9529,-2.1092,-2.1917,-2.3476,-2.4869,-2.5581,-2.5754,-2.5415,-2.4458,-2.4916,-2.4523,-2.2053,-2.1152,-2.004,-1.8325,-1.8396,-1.8589,-1.8674,-1.8843,-1.8976,-1.9072,-1.9241,-1.9507,-1.9869,-2.005,-2.0315,-2.0665,-2.0665,-2.0665,-2.0665,-2.0665,-1.9889,-1.8342,-1.6923,-1.5587,-1.642,-1.662,-1.6847,-1.7435,-1.7582,-1.7582,-1.7582,-1.7582,-1.7477,-1.7094,-1.6393,-1.5731,-1.5108,-1.5288,-1.5344,-1.4882,-1.5995,-1.6599,-1.5628,-1.6113,-1.6053,-1.456,-1.5273,-1.5521,0.0,0.0,0.0,-1.5876,-1.6585,-1.7303,-1.7972,-1.8777,-1.9127,-1.8939,-1.9243,-1.943,-1.943,-1.943,-1.943,-1.943,-1.943,-1.943,-1.943,-1.943,-1.943,-1.943,-1.943,-1.943,-1.943,-1.943,-1.943,-1.943,-1.943,-1.901,-1.8415,-1.8415,-1.8006,-1.7479,-1.7479,-1.7479,-1.7479,-1.7479,-1.7479,-1.7479,-1.7479,-1.7479,-1.7503,-1.7599,-1.7624,-1.7684,-1.795,-1.8022,-1.807,-1.8251,-1.836,-1.8556,-1.9038,-2.0134,-2.1291,-2.2265,-2.3789,-2.5027,-2.531,-2.5661,-2.5511,-2.4418,-2.4727,-2.4204,-2.1797,-2.1129,-2.0239,-1.8618,-1.8674,-1.8819,-1.8819,-1.8976,-1.9072,-1.9072,-1.9326,-1.9591,-1.9869,-2.0134,-2.04,-2.0665,-2.0665,-2.0665,-2.0665,-2.0665,-1.9889,-1.8342,-1.7001,-1.5622,-1.6219,-1.6513,-1.6887,-1.7448,-1.7582,-1.7582,-1.7582,-1.7582,-1.7305,-1.6234,-1.5914,-1.5183,0.0,0.0,-1.4106,-1.4667,-1.447,-1.5099,-1.7455,-1.5758,-1.4619,0.0,0.0,0.0,0.0,0.0,0.0,-1.5806,0.0,-1.7972,-1.7972,-1.8532,-1.8881,-1.8881,-1.9243,-1.943,-1.943,-1.943,-1.943,-1.943,-1.943,-1.943,-1.943,-1.943,-1.943,-1.943,-1.943,-1.943,-1.943,-1.943,-1.9372,-1.9372,-1.9372,-1.8952,-1.8357,-1.8357,-1.8006,-1.7479,-1.7479,-1.7479,-1.7479,-1.7479,-1.7479,-1.7479,-1.7479,-1.7491,-1.7551,-1.7805,-1.7889,-1.7962,-1.8239,-1.8312,-1.8312,-1.8336,-1.8529,-1.9074,-2.0358,-1.989,-1.9954,-2.2577,-2.3201,-2.3593,-2.449,-2.5376,-2.5629,-2.4755,-2.4503,-2.3474,-2.0706,-1.9459,-1.8823,-1.871,-1.8927,-1.9072,-1.9072,-1.9084,-1.9096,-1.9096,-1.9427,-1.9627,-1.9893,-2.0158,-2.0412,-2.0735,-2.0665,-2.0665,-2.0665,-2.0665,-1.9901,-1.8293,-1.7021,-1.5631,-1.658,-1.6967,-1.7395,-1.7542,-1.7582,-1.7582,-1.7582,-1.7582,-1.7529,-1.7199,-1.5796,-1.4696,0.0,0.0,0.0,-1.3966,-1.4792,0.0,-1.4857,-1.5876,0.0,-1.5688,0.0,-1.7009,-1.7009,-1.7303,0.0,0.0,-1.7608,-1.7901,-1.7667,-1.8415,-1.8765,-1.8532,-1.9068,-1.943,-1.943,-1.943,-1.943,-1.943,-1.943,-1.943,-1.943,-1.943,-1.943,-1.943,-1.943,-1.943,-1.943,-1.943,-1.9243,-1.9055,-1.9055,-1.8661,-1.8077,-1.8077,-1.7843,-1.7479,-1.7479,-1.7479,-1.7479,-1.7479,-1.7479,-1.7479,-1.7479,-1.7624,-1.7793,-1.7853,-1.8022,-1.8251,-1.8517,-1.8589,-1.8638,-1.8831,-1.8927,-1.9103,-1.9409,-2.0093,-2.1082,-2.2764,-2.4702,-2.6172,-2.6376,-2.6653,-2.6696,-2.648,-2.4745,-2.2853,-2.1118,-2.0671,-2.0093,-1.9103,-1.9036,-1.9072,-1.9072,-1.9253,-1.9427,-1.9427,-1.9808,-2.0098,-2.0171,-2.0436,-2.0605,-2.0665,-2.0665,-2.0665,-2.0665,-2.0665,-1.9422,-1.6878,-1.6667,-1.518,-1.686,-1.7235,-1.7582,-1.7582,-1.7582,-1.7582,-1.7582,-1.7199,-1.6829,-1.6829,-1.537,0.0,-1.4995,-1.3833,0.0,0.0,0.0,0.0,-1.5499,-1.6349,-1.6773,0.0,-1.7067,0.0,-1.7479,-1.7479,-1.7479,0.0,-1.7667,-1.7726,-1.7479,-1.824,-1.859,-1.8415,-1.9068,-1.943,-1.943,-1.943,-1.943,-1.943,-1.943,-1.943,-1.943,-1.943,-1.943,-1.943,-1.943,-1.9301,-1.9185,-1.9185,-1.8997,-1.8706,-1.8706,-1.8428,-1.7972,-1.7972,-1.7784,-1.7479,-1.7479,-1.7563,-1.7636,-1.7515,-1.7479,-1.7503,-1.7624,-1.7756,-1.7925,-1.8167,-1.8348,-1.8529,-1.8794,-1.8855,-1.8891,-1.9036,-1.9072,-1.9264,-1.9826,-2.0576,-2.1699,-2.3574,-2.5194,-2.6388,-2.7012,-2.7073,-2.6891,-2.6327,-2.444,-2.264,-2.1258,-2.0576,-1.9954,-1.92,-1.9072,-1.9072,-1.9072,-1.9378,-1.9536,-1.9536,-1.9977,-2.0279,-2.0279,-2.0533,-2.0665,-2.0665,-2.0665,-2.0665,-2.0665,-2.0856,-1.9699,-1.7387,-1.6984,-1.5483,-1.7179,-1.7447,-1.7582,-1.7582,-1.7582,-1.7582,-1.7582,-1.6829,-1.6127,-1.6127,0.0,-1.4406,-1.4567,-1.3894,-1.3957,-1.5883,0.0,-1.4669,-1.7337,-1.6891,-1.6596,-1.742,-1.7479,-1.7479,-1.7479,-1.7479,-1.7479,-1.7479,-1.7479,-1.7479,-1.7479,-1.8064,-1.8415,-1.8532,-1.9068,-1.9372,-1.943,-1.943,-1.943,-1.943,-1.943,-1.943,-1.943,-1.943,-1.943,-1.943,-1.943,-1.9243,-1.8939,-1.8939,-1.8706,-1.8415,-1.8357,-1.8194,-1.7914,-1.7914,-1.775,-1.7539,-1.7539,-1.7708,-1.7889,-1.7624,-1.7563,-1.7636,-1.7865,-1.795,-1.8082,-1.8553,-1.871,-1.8794,-1.9012,-1.9072,-1.9072,-1.9072,-1.9072,-1.9456,-2.0576,-2.1172,-2.2209,-2.4766,-2.54,-2.5892,-2.7044,-2.7088,-2.6538,-2.54,-2.3896,-2.2517,-2.138,-2.0004,-1.9084,-1.912,-1.9132,-1.9145,-1.9181,-1.9422,-1.9645,-1.9645,-2.005,-2.0327,-2.0327,-2.0545,-2.0665,-2.0665,-2.0702,-2.0726,-2.0726,-2.0991,-2.0189,-1.834,-1.7423,-1.6037,-1.7422,-1.7542,-1.7582,-1.7582,-1.7582,-1.7582,-1.7582,-1.7477,0.0,0.0,-1.6393,-1.5861,-1.6829,-1.4494,-1.3131,-1.5378,-1.4651,-1.4366,-1.5832,-1.6703,-1.7303,0.0,-1.7479,-1.7479,-1.7479,-1.7479,0.0,0.0,-1.7479,-1.7479,-1.7479,-1.8064,-1.8648,-1.9185,-1.9055,-1.9127,-1.943,-1.943,-1.943,-1.943,-1.943,-1.943,-1.943,-1.943,-1.943,-1.943,-1.943,-1.9372,-1.9301,-1.8997,-1.8706,-1.8357,-1.8135,-1.7843,-1.7608,-1.7608,-1.7683,-1.7805,-1.7805,-1.7986,-1.8179,-1.7901,-1.7962,-1.8155,-1.8203,-1.8372,-1.8565,-1.8662,-1.8843,-1.9012,-1.906,-1.9072,-1.9072,-1.9072,-1.9072,-1.9136,-1.9392,-2.1397,-2.3735,-2.5612,-2.6895,-2.7747,-2.7997,-2.7021,-2.6136,-2.5866,-2.3688,-2.2013,-2.1817,-2.018,-1.9157,-1.9439,-1.9398,-1.9495,-1.9724,-1.9989,-2.0134,-2.0134,-2.0424,-2.0605,-2.0605,-2.0641,-2.0665,-2.0665,-2.0953,-2.1062,-2.1062,-2.1269,-1.9966,-1.726,-1.7113,-1.5513,-1.7542,-1.7582,-1.7582,-1.7582,-1.7582,-1.7582,-1.7582,0.0,0.0,0.0,-1.667,-1.6234,-1.7371,-1.5038,0.0,-1.5998,-1.47,-1.4127,-1.6123,-1.6925,0.0,-1.7467,-1.7479,-1.7479,-1.7479,-1.7479,-1.7479,-1.7479,-1.7479,-1.7479,-1.7479,-1.796,-1.8486,-1.9127,-1.8997,-1.9055,-1.943,-1.943,-1.943,-1.943,-1.943,-1.943,-1.943,-1.943,-1.943,-1.943,-1.943,-1.9301,-1.9127,-1.8765,-1.8473,-1.8135,-1.7843,-1.7667,-1.7503,-1.7636,-1.7768,-1.7889,-1.8046,-1.8263,-1.8481,-1.8336,-1.83,-1.8324,-1.8456,-1.8589,-1.871,-1.8855,-1.8976,-1.9072,-1.9072,-1.9072,-1.9108,-1.9241,-1.9958,-2.0773,-2.1472,-2.3371,-2.5389,-2.6917,-2.7744,-2.8186,-2.8186,-2.6966,-2.5992,-2.5992,-2.3652,-2.1912,-2.1912,-2.0495,-1.9543,-1.9676,-1.9688,-1.9736,-1.9869,-2.0122,-2.0279,-2.0279,-2.0521,-2.0665,-2.0665,-2.0798,-2.0941,-2.0941,-2.1136,-2.1281,-2.1281,-2.1547,-2.0106,-1.7002,-1.7105,-1.5548,-1.7582,-1.7582,-1.7582,-1.7582,-1.7582,-1.7582,-1.7582,-1.6935,0.0,-1.7424,-1.6882,-1.6552,-1.7424,0.0,-1.4603,0.0,-1.5099,-1.4375,-1.6758,-1.7141,-1.7249,0.0,-1.7479,0.0,-1.7479,-1.7479,0.0,-1.7479,-1.7479,-1.7537,-1.7608,-1.7784,-1.8194,-1.8881,-1.8823,-1.8997,-1.943,-1.943,-1.943,-1.943,-1.943,-1.943,-1.943,-1.943,-1.943,-1.943,-1.943,-1.9243,-1.8997,-1.8648,-1.8369,-1.8148,-1.7846,-1.7693,-1.7718,-1.7925,-1.7998,-1.8082,-1.83,-1.8553,-1.877,-1.877,-1.8625,-1.8505,-1.871,-1.877,-1.8807,-1.9012,-1.912,-1.9157,-1.9157,-1.9205,-1.9431,-1.9887,-2.1005,-2.249,-2.4195,-2.5507,-2.6777,-2.8154,-2.8426,-2.8426,-2.8426,-2.7259,-2.6278,-2.6278,-2.3854,-2.2085,-2.2085,-2.091,-2.005,-2.005,-2.0002,-1.9989,-2.005,-2.0243,-2.0364,-2.0364,-2.0557,-2.0759,-2.075,-2.1013,-2.1159,-2.1148,-2.1426,-2.1559,-2.1559,-2.1824,-2.0296,-1.7067,-1.735,-1.5693,-1.7582,-1.7582,-1.7582,-1.7582,-1.7582,-1.7582,-1.7582,0.0,-1.7477,-1.7582,-1.7529,-1.7477,-1.7582,-1.6311,0.0,0.0,0.0,-1.5637,-1.6942,-1.7298,-1.7455,-1.7479,0.0,0.0,-1.7479,-1.7479,-1.7479,-1.7479,-1.7479,-1.7608,-1.7972,-1.7667,-1.7948,-1.8881,-1.859,-1.8777,-1.9372,-1.943,-1.943,-1.943,-1.943,-1.943,-1.943,-1.943,-1.943,-1.943,-1.943,-1.9359,-1.9301,-1.8997,-1.8823,-1.879,-1.847,-1.8332,-1.8309,-1.8277,-1.8408,-1.8613,-1.8638,-1.8819,-1.9036,-1.9036,-1.9024,-1.9012,-1.9036,-1.9036,-1.9048,-1.9072,-1.9253,-1.9434,-1.9434,-1.9615,-2.0141,-2.145,-2.1872,-2.2807,-2.5866,-2.6662,-2.7214,-2.8867,-2.9213,-2.9213,-2.9213,-2.7999,-2.7073,-2.7073,-2.4569,-2.2739,-2.2739,-2.1465,-2.0593,-2.0593,-2.0388,-2.034,-2.0581,-2.0617,-2.0629,-2.0629,-2.0653,-2.0774,-2.1086,-2.1122,-2.1172,-2.1438,-2.1704,-2.1836,-2.1836,-2.2102,-2.0542,-1.736,-1.7491,-1.581,-1.7542,-1.7582,-1.7582,-1.7582,-1.7582,-1.7582,-1.7582,0.0,-1.7582,-1.7582,-1.7582,-1.7582,-1.7582,-1.6246,-1.5535,0.0,0.0,0.0,-1.643,0.0,-1.7249,-1.7249,-1.7382,0.0,0.0,0.0,-1.7479,-1.7479,-1.7479,-1.755,-1.7667,-1.755,-1.783,-1.859,-1.8473,-1.8719,-1.9372,-1.943,-1.943,-1.943,-1.943,-1.943,-1.943,-1.943,-1.943,-1.943,-1.943,-1.943,-1.9372,-1.9055,-1.8868,-1.8788,-1.8498,-1.836,-1.835,-1.8494,-1.8601,-1.871,-1.8867,-1.8988,-1.9072,-1.9072,-1.9181,-1.9277,-1.912,-1.9072,-1.9072,-1.9072,-1.9265,-1.9536,-1.9536,-1.9796,-2.0515,-2.1885,-2.302,-2.439,-2.66,-2.7687,-2.8523,-2.9151,-2.9316,-2.9316,-2.9316,-2.8097,-2.7235,-2.7235,-2.548,-2.3774,-2.2887,-2.2284,-2.1609,-2.0804,-2.0569,-2.0557,-2.0653,-2.0665,-2.0665,-2.0665,-2.088,-2.1026,-2.1122,-2.1449,-2.1595,-2.1716,-2.1969,-2.2102,-2.2102,-2.2285,-2.0653,-1.7491,-1.7585,-1.5895,-1.7554,-1.7582,-1.7582,-1.7582,-1.7582,-1.7582,0.0,-1.7582,-1.7582,-1.7582,-1.7582,-1.7582,-1.7477,-1.6405,-1.5767,-1.6471,0.0,-1.5429,-1.6306,-1.6815,-1.7117,0.0,0.0,-1.7479,0.0,-1.7479,-1.7479,-1.7479,-1.7479,-1.7479,-1.7479,-1.7479,-1.7726,-1.8252,-1.8357,-1.8648,-1.9243,-1.9359,-1.943,-1.943,-1.943,-1.943,-1.943,-1.943,-1.943,-1.943,-1.943,-1.943,-1.9359,-1.9127,-1.8992,-1.8907,-1.8696,-1.8593,-1.8556,-1.8761,-1.8794,-1.8831,-1.9012,-1.9072,-1.9084,-1.9169,-1.9378,-1.9512,-1.935,-1.9314,-1.9314,-1.9314,-1.9507,-1.9724,-1.9796,-2.011,-2.0854,-2.2728,-2.4093,-2.5547,-2.7435,-2.8576,-2.9316,-2.9316,-2.9316,-2.9316,-2.9316,-2.851,-2.7833,-2.7833,-2.6218,-2.4602,-2.357,-2.2696,-2.1816,-2.0804,-2.0665,-2.0665,-2.0665,-2.0665,-2.0702,-2.0774,-2.1026,-2.1207,-2.1365,-2.1667,-2.1909,-2.1981,-2.2162,-2.237,-2.2455,-2.2455,-2.1049,-1.8494,-1.8007,-1.6106,-1.7554,-1.7582,-1.7582,-1.7582,-1.7582,-1.7582,-1.7582,-1.7582,-1.7582,-1.7582,-1.7582,-1.7529,-1.7226,-1.6895,-1.6577,-1.6324,-1.6277,0.0,-1.6658,-1.6923,0.0,0.0,0.0,-1.7479,-1.7479,-1.7479,-1.7479,-1.7479,-1.7479,0.0,-1.7479,-1.7479,-1.7667,-1.7972,-1.8252,-1.8532,-1.8881,-1.9243,-1.943,-1.943,-1.943,-1.943,-1.943,-1.943,-1.943,-1.943,-1.943,-1.943,-1.943,-1.943,-1.937,-1.9304,-1.92,-1.9161,-1.9074,-1.9091,-1.9072,-1.9072,-1.9072,-1.9072,-1.912,-1.9374,-1.9524,-1.9519,-1.9796,-1.9881,-1.9881,-1.9881,-2.0062,-2.0327,-2.0593,-2.0653,-2.1415,-2.4263,-2.5008,-2.5816,-2.8642,-2.9316,-2.9316,-2.9316,-2.9316,-2.9316,-2.9316,-2.9316,-2.9316,-2.9316,-2.682,-2.5008,-2.5008,-2.2503,-2.0735,-2.0665,-2.0665,-2.0665,-2.0665,-2.0665,-2.0774,-2.111,-2.1135,-2.1377,-2.1836,-2.1873,-2.1993,-2.2321,-2.2334,-2.2467,-2.2721,-2.2721,-2.1923,-2.0533,-1.8936,-1.6487,-1.7259,-1.7487,-1.7582,-1.7582,-1.7582,-1.7582,-1.7582,-1.7582,-1.7529,-1.7384,-1.7331,-1.7226,-1.6895,-1.663,-1.6489,-1.6807,-1.6679,0.0,0.0,0.0,0.0,-1.7225,-1.737,-1.7479,0.0,0.0,-1.7479,-1.7479,-1.7479,-1.7479,-1.7479,-1.7479,-1.7726,-1.8252,-1.8357,-1.8648,-1.9243,-1.9359,-1.943,-1.943,-1.943,-1.943,-1.943,-1.943,-1.943,-1.943,-1.943,-1.943,-1.9386,-1.9586,-1.9661,-1.959,-1.9568,-1.9525,-1.9396,-1.9164,-1.9072,-1.9072,-1.9072,-1.9072,-1.912,-1.9386,-1.9591,-1.9808,-2.0074,-2.0026,-1.9917,-2.011,-2.0207,-2.034,-2.0605,-2.0665,-2.1138,-2.3024,-2.4263,-2.5547,-2.7435,-2.8642,-2.9316,-2.9316,-2.9316,-2.9316,-2.9316,-2.9316,-2.8971,-2.8031,-2.7102,-2.5816,-2.3774,-2.2696,-2.1747,-2.0804,-2.0822,-2.0931,-2.0931,-2.0931,-2.1122,-2.1329,-2.1583,-2.1691,-2.186,-2.2042,-2.2174,-2.2334,-2.2515,-2.2648,-2.2733,-2.2903,-2.1557,-1.8946,-1.7378,-1.5467,-1.7152,-1.742,-1.7582,-1.7582,-1.7582,-1.7582,-1.7582,-1.7529,-1.7384,-1.7226,-1.712,-1.6908,-1.663,-1.643,-1.6382,-1.6606,-1.6587,-1.667,0.0,0.0,0.0,-1.7249,0.0,0.0,0.0,-1.7479,-1.7479,-1.7479,-1.7479,-1.7479,-1.7479,-1.7479,-1.7772,-1.8357,-1.8415,-1.8661,-1.9185,-1.9359,-1.943,-1.943,-1.943,-1.943,-1.943,-1.943,-1.943,-1.943,-1.943,-1.9484,0.0,-1.972,-1.986,-1.9876,-1.9747,-1.9663,-1.9584,-1.92,-1.9072,-1.9072,-1.9072,-1.9072,-1.9132,-1.9507,-1.9881,-2.0207,-2.0376,-2.0315,-2.0219,-2.0376,-2.0424,-2.0598,-2.1296,-2.1471,-2.2022,-2.3978,-2.5128,-2.6218,-2.77,-2.8708,-2.9316,-2.9316,-2.9316,-2.9316,-2.9316,-2.9316,-2.8839,-2.7435,-2.6753,-2.5532,-2.3092,-2.2444,-2.183,-2.095,-2.1064,-2.1257,-2.1354,-2.134,-2.1329,-2.1607,-2.1776,-2.1921,-2.2017,-2.2174,-2.2334,-2.2334,-2.2588,-2.2782,-2.2879,-2.3164,-2.167,-1.8356,-1.7421,-1.5687,0.0,-1.742,-1.7582,-1.7582,-1.7582,-1.7582,-1.7582,-1.7384,0.0,-1.712,-1.6895,-1.6577,-1.6349,-1.6283,-1.6189,-1.6023,-1.6163,-1.6501,0.0,-1.7117,0.0,0.0,-1.7479,0.0,-1.7479,-1.7479,-1.7479,-1.7479,-1.7479,-1.7479,-1.7479,-1.7479,-1.7772,-1.8357,-1.8415,-1.859,-1.8939,-1.9243,-1.943,-1.943,-1.943,-1.943,-1.943,-1.943,-1.943,-1.943,-1.9444,-1.9546,-1.98,-1.984,-2.0006,-2.0185,-1.9899,-1.9688,-1.9584,-1.9264,-1.9136,-1.9072,-1.9072,-1.9072,-1.9169,-1.9712,-2.0243,-2.0665,-2.0665,-2.0665,-2.0665,-2.0665,-2.0665,-2.1,-2.2421,-2.2819,-2.3502,-2.6419,-2.7169,-2.7634,-2.8905,-2.9299,-2.9382,-2.9382,-2.9382,-2.9316,-2.9316,-2.9333,-2.8807,-2.7267,-2.5944,-2.4524,-2.2886,-2.176,-2.1159,-2.1159,-2.1341,-2.1607,-2.1848,-2.1643,-2.1619,-2.1885,-2.1897,-2.2005,-2.2321,-2.2334,-2.2346,-2.2358,-2.2648,-2.2915,-2.3181,-2.344,-2.1889,-1.8626,-1.8463,-1.6582,-1.7206,0.0,-1.7582,-1.7582,-1.7582,-1.7529,0.0,-1.7226,-1.7067,-1.659,-1.643,-1.6386,-1.6314,-1.6138,-1.6145,-1.6706,-1.6694,-1.6791,-1.7322,0.0,0.0,-1.7479,-1.7479,-1.7479,-1.7479,-1.7479,-1.7479,-1.7479,-1.7479,-1.7479,-1.7479,-1.7479,-1.7667,-1.8089,-1.8311,-1.8661,-1.9301,-1.9372,-1.943,-1.943,-1.943,-1.943,-1.943,-1.943,-1.943,-1.943,-1.9599,-1.9733,-1.984,-2.0281,-2.0548,-2.0571,-2.042,-2.0233,-1.9915,-1.9584,-1.9328,-1.9072,-1.9072,-1.9072,-1.9169,-1.9712,-2.0243,-2.0665,-2.0665,-2.0665,-2.0665,-2.0665,-2.0665,-2.1,-2.2421,-2.2819,-2.3297,-2.5383,-2.6737,-2.7734,-2.8345,-2.9364,-3.0118,-3.0118,-2.9887,-2.9691,-2.9691,-2.9754,-2.886,-2.6194,-2.5786,-2.4834,-2.2124,-2.1556,-2.1378,-2.1378,-2.1619,-2.18,-2.186,-2.1812,-2.1885,-2.215,-2.2249,-2.2198,-2.2334,-2.2334,-2.243,-2.2636,-2.3019,-2.3393,-2.3659,-2.2396,-2.0737,-1.8545,-1.7238,-1.544,-1.7393,-1.7569,-1.7796,-1.7796,-1.7796,-1.7742,-1.7595,-1.7264,-1.6908,-1.6537,0.0,-1.6094,-1.6132,-1.6091,-1.6211,-1.6646,-1.6815,0.0,0.0,0.0,-1.7612,-1.7491,-1.7479,-1.7479,0.0,-1.7479,-1.7479,-1.7479,-1.7479,-1.7479,-1.7479,-1.7479,-1.7667,-1.7972,-1.8135,-1.8544,-1.9185,-1.9301,-1.943,-1.943,-1.943,-1.943,-1.943,-1.943,-1.943,-1.9386,-1.9679,-1.988,-2.004,-2.0494,-2.0762,-2.0833,-2.0676,-2.0425,-2.0043,-1.9711,-1.9392,-1.9072,-1.9072,-1.9241,-1.9519,-1.9929,-2.034,-2.0665,-2.0665,-2.0804,-2.0943,-2.0943,-2.1415,-2.2284,-2.391,-2.4776,-2.5719,-2.7336,-2.8345,-2.902,-2.9151,-2.9839,-3.0378,-3.0378,-3.0372,-3.0346,-3.0346,-2.9948,-2.875,-2.625,-2.5493,-2.4282,-2.1834,-2.1583,-2.1655,-2.1655,-2.1897,-2.2054,-2.2054,-2.2054,-2.2188,-2.2321,-2.2334,-2.2394,-2.2515,-2.2515,-2.2621,-2.3007,-2.3309,-2.3507,-2.376,-2.2039,-2.0322,-1.8545,-1.682,-1.5028,-1.7622,-1.7876,-1.8035,-1.7942,-1.7955,-1.7982,-1.7888,0.0,0.0,0.0,0.0,0.0,-1.5994,-1.6199,0.0,0.0,0.0,0.0,-1.7443,-1.7672,-1.7732,-1.7503,-1.7479,0.0,-1.7479,-1.7479,-1.7479,-1.7479,-1.7479,-1.7479,-1.7479,-1.7479,-1.7608,-1.7914,-1.8031,-1.8311,-1.8823,-1.9185,-1.9359,-1.943,-1.943,-1.943,-1.943,-1.943,-1.943,-1.9386,-1.9679,-1.996,-2.0254,-2.0548,-2.0842,-2.1046,-2.0792,-2.0425,-2.0043,-1.9775,-1.9456,-1.9084,-1.912,-1.9536,-1.9996,-2.0262,-2.0585,-2.0873,-2.0873,-2.1081,-2.1346,-2.1622,-2.249,-2.3828,-2.5868,-2.7336,-2.8608,-3.01,-3.0508,-3.0508,-3.0573,-3.0555,-3.0555,-3.0555,-3.0811,-3.1078,-3.1078,-3.0156,-2.8765,-2.6928,-2.53,-2.3718,-2.1957,-2.1861,-2.1933,-2.1933,-2.2126,-2.2334,-2.2334,-2.2334,-2.2358,-2.2394,-2.2394,-2.2515,-2.2782,-2.283,-2.2983,-2.3363,-2.3411,-2.3544,-2.376,-2.2039,-2.0322,-1.8545,-1.682,-1.5028,-1.7836,-1.8196,-1.8303,-1.7782,-1.7849,-1.7875,-1.741,-1.6987,0.0,0.0,0.0,0.0,0.0,-1.661,-1.6706,0.0,0.0,-1.7177,0.0,0.0,-1.7527,-1.7491,0.0,-1.7479,-1.7479,-1.7479,-1.7479,-1.7479,-1.7479,-1.7479,-1.7479,-1.7479,-1.7537,-1.7596,-1.8077,-1.8357,-1.8473,-1.8823,-1.9127,-1.943,-1.943,-1.943,-1.943,-1.943,-1.943,-1.9386,-1.9679,-1.996,-2.0254,-2.0548,-2.0842,-2.1109,-2.1046,-2.0666,-2.0106,-2.0043,-1.966,-1.9108,-1.9326,-1.9813,-2.0385,-2.0656,-2.1133,-2.1634,-2.1634,-2.1703,-2.2035,-2.3584,-2.391,-2.4452,-2.7203,-2.8015,-2.8608,-3.0408,-3.0815,-3.0879,-3.1184,-3.1249,-3.1249,-3.1249,-3.1335,-3.1427,-3.1427,-3.0497,-2.919,-2.7574,-2.6027,-2.4476,-2.288,-2.2398,-2.2273,-2.2273,-2.2309,-2.2334,-2.2334,-2.2334,-2.243,-2.2648,-2.2673,-2.2782,-2.3048,-2.32,-2.3291,-2.3375,-2.3592,-2.3724,-2.376,-2.2039,-2.0322,-1.8545,-1.682,-1.5028,-1.7488,-1.7903,-1.8183,-1.7903,-1.8129,-1.8382,-1.798,-1.7533,-1.7102,0.0,0.0,0.0,0.0,0.0,-1.6839,-1.7237,0.0,-1.7346,-1.7467,-1.7479,-1.7479,0.0,0.0,-1.7479,-1.7479,-1.7479,-1.7479,-1.7479,-1.7479,-1.7479,-1.7479,-1.7479,-1.7479,-1.7479,-1.7772,-1.8064,-1.8415,-1.8532,-1.8894,-1.943,-1.943,-1.943,-1.943,-1.943,-1.943,-1.9386,-1.9679,-1.996,-2.0254,-2.0548,-2.0842,-2.1109,-2.1109,-2.0666,-2.0043,-1.9724,-1.9328,-1.9132,-1.9555,-1.9905,-2.0221,-2.0829,-2.1246,-2.1484,-2.176,-2.1897,-2.2572,-2.4979,-2.5517,-2.592,-2.8196,-2.933,-3.013,-3.0991,-3.1184,-3.1184,-3.1377,-3.1377,-3.1377,-3.1377,-3.176,-3.2065,-3.2065,-3.0617,-2.9193,-2.8253,-2.6111,-2.4179,-2.3005,-2.2707,-2.2558,-2.2334,-2.2334,-2.2334,-2.2334,-2.2467,-2.26,-2.2721,-2.2923,-2.314,-2.3261,-2.3526,-2.3592,-2.3592,-2.37,-2.376,-2.376,-2.2039,-2.0807,-1.9917,-1.7229,-1.5597,-1.7353,-1.7635,-1.7902,-1.7969,-1.8328,-1.8635,-1.8499,-1.803,-1.755,-1.733,0.0,0.0,0.0,-1.6694,0.0,-1.7503,-1.7527,-1.7479,-1.7479,-1.7479,-1.7479,-1.7479,-1.7479,-1.7479,-1.7479,-1.7479,-1.7479,-1.7479,-1.7479,-1.7479,-1.7479,-1.7479,-1.7479,-1.7479,-1.7655,-1.7948,-1.8415,-1.8532,-1.8894,-1.943,-1.943,-1.943,-1.943,-1.943,-1.943,-1.9386,-1.9679,-1.996,-2.0254,-2.0548,-2.0842,-2.1109,-2.1109,-2.0729,-2.017,-1.9456,-1.9301,-1.9499,-1.9976,-2.0251,-2.052,-2.1196,-2.1484,-2.1691,-2.1966,-2.2242,-2.3051,-2.5905,-2.6706,-2.7172,-2.9265,-3.0584,-3.1377,-3.1377,-3.1377,-3.1377,-3.1377,-3.1377,-3.1414,-3.1506,-3.2093,-3.2625,-3.2716,-3.0784,-2.9131,-2.8757,-2.605,-2.3822,-2.3228,-2.3005,-2.2781,-2.2483,-2.2334,-2.2358,-2.2418,-2.2657,-2.2838,-2.2838,-2.3225,-2.3399,-2.3459,-2.3652,-2.376,-2.376,-2.376,-2.376,-2.376,-2.2453,-2.1625,-2.1141,-1.8046,-1.6435,-1.7702,-1.7809,-1.7689,-1.7916,-1.8022,-1.8127,-1.835,-1.7935,-1.7484,-1.7484,0.0,0.0,0.0,-1.7249,-1.7515,-1.7793,-1.7648,-1.7479,-1.7479,0.0,-1.7479,-1.7479,-1.7479,-1.7479,-1.7479,-1.7479,-1.7479,-1.7479,-1.7479,-1.7479,-1.7479,-1.7479,-1.7479,-1.7479,-1.8064,-1.8357,-1.8415,-1.901,-1.9359,-1.943,-1.943,-1.943,-1.943,-1.943,-1.943,-1.9386,-1.9679,-1.996,-2.0254,-2.0548,-2.0842,-2.1109,-2.1109,-2.0856,-2.0475,-1.9839,-1.9938,-2.0461,-2.0699,-2.1232,-2.1839,-2.2138,-2.2448,-2.2791,-2.2791,-2.2859,-2.3461,-2.6254,-2.7039,-2.7718,-3.0502,-3.1313,-3.1377,-3.1377,-3.1377,-3.1377,-3.1377,-3.1377,-3.1488,-3.1891,-3.2313,-3.2716,-3.3101,-3.0954,-2.9202,-2.9131,-2.6196,-2.397,-2.3896,-2.3302,-2.2856,-2.2856,-2.2483,-2.243,-2.2685,-2.3092,-2.3315,-2.3315,-2.3351,-2.3483,-2.3724,-2.376,-2.376,-2.376,-2.376,-2.376,-2.376,-2.368,-2.2774,-2.1141,-1.9267,-1.7581,-1.7114,-1.7395,-1.7609,-1.7729,-1.7903,-1.8087,-1.832,-1.8089,-1.7818,-1.7807,-1.7432,0.0,0.0,0.0,-1.7515,-1.7612,-1.7551,-1.7479,-1.7479,-1.7479,-1.7479,-1.7479,-1.7479,-1.7479,-1.7479,-1.7479,-1.7479,-1.7479,-1.7479,-1.7479,-1.7479,-1.7479,-1.7479,-1.7479,-1.7901,-1.8252,-1.8415,-1.8881,-1.9185,-1.943,-1.943,-1.943,-1.943,-1.943,-1.943,-1.9386,-1.9679,-1.996,-2.0254,-2.0548,-2.0842,-2.1109,-2.0856,-2.0729,-2.0539,-2.0094,-2.0143,-2.0564,-2.0831,-2.1178,-2.1662,-2.2151,-2.2379,-2.2585,-2.2791,-2.2928,-2.3461,-2.6321,-2.7105,-2.7784,-3.0649,-3.1377,-3.1377,-3.1377,-3.1377,-3.1377,-3.1377,-3.1579,-3.1818,-3.1983,-3.2533,-3.3028,-3.3193,-3.0971,-2.9202,-2.9202,-2.6415,-2.4267,-2.4044,-2.3748,-2.344,-2.3154,-2.2873,-2.2862,-2.3128,-2.3333,-2.3447,-2.3604,-2.3616,-2.3664,-2.376,-2.376,-2.376,-2.376,-2.376,-2.376,-2.376,-2.376,-2.344,-2.2786,-2.1221,-1.9522,-1.682,-1.7141,-1.7488,-1.7675,-1.7769,-1.7963,-1.8428,-1.8237,-1.7995,-1.7963,-1.7582,-1.7213,-1.7213,0.0,0.0,0.0,-1.7479,-1.7479,-1.7479,-1.7479,-1.7479,-1.7479,-1.7479,-1.7479,-1.7479,-1.7479,-1.7479,-1.7479,-1.7479,-1.7479,-1.7479,-1.7479,-1.7479,-1.7479,-1.7901,-1.8194,-1.8415,-1.8823,-1.9185,-1.943,-1.943,-1.943,-1.943,-1.943,-1.943,-1.9444,-1.9773,-2.0054,-2.0207,-2.0655,-2.0922,-2.1046,-2.0729,-2.0666,-2.0729,-2.0361,-2.0528,-2.1006,-2.1187,-2.151,-2.1982,-2.2847,-2.2846,-2.2654,-2.3324,-2.3529,-2.406,-2.6455,-2.7453,-2.8312,-3.0779,-3.1377,-3.1377,-3.1377,-3.1377,-3.1414,-3.1543,-3.1799,-3.2074,-3.2349,-3.2845,-3.3266,-3.3395,-3.1477,-2.9774,-2.9274,-2.6997,-2.5106,-2.4459,-2.4249,-2.398,-2.3428,-2.3239,-2.3249,-2.3363,-2.3447,-2.3568,-2.376,-2.376,-2.376,-2.376,-2.376,-2.376,-2.376,-2.376,-2.376,-2.376,-2.376,-2.376,-2.3772,-2.2307,-2.0631,-1.7112,-1.7192,-1.734,-1.7862,0.0,0.0,-1.8626,-1.8331,-1.7918,-1.7876,-1.766,-1.7479,-1.7479,-1.7479,0.0,-1.7479,-1.7479,-1.7479,-1.7479,-1.7479,-1.7479,-1.7479,-1.7479,-1.7479,-1.7479,-1.7479,-1.7479,-1.7479,-1.7479,-1.7479,-1.7479,-1.7479,-1.7479,-1.7479,-1.8064,-1.8415,-1.8415,-1.9068,-1.943,-1.943,-1.943,-1.943,-1.943,-1.943,-1.943,-1.9457,-1.9987,-2.0167,-2.0281,-2.0869,-2.1109,-2.1046,-2.0729,-2.0792,-2.1046,-2.0742,-2.1225,-2.1991,-2.1991,-2.2378,-2.3133,-2.4535,-2.4074,-2.3201,-2.4602,-2.5008,-2.533,-2.6722,-2.8196,-2.9609,-3.1037,-3.1377,-3.1377,-3.1377,-3.1377,-3.1488,-3.1909,-3.2019,-3.2258,-3.3065,-3.323,-3.3358,-3.3743,-3.2508,-3.0926,-2.9417,-2.7867,-2.6485,-2.5262,-2.4789,-2.4289,-2.3791,-2.3531,-2.3375,-2.3375,-2.3616,-2.376,-2.376,-2.376,-2.376,-2.376,-2.376,-2.376,-2.376,-2.376,-2.376,-2.376,-2.376,-2.376,-2.3772,-2.2307,-2.0714,-1.6807,-1.7045,0.0,-1.7622,0.0,0.0,0.0,-1.7937,0.0,0.0,-1.7539,-1.7479,-1.7479,-1.7479,0.0,-1.7479,-1.7479,-1.7479,-1.7479,-1.7479,-1.7479,-1.7479,-1.7479,-1.7479,-1.7479,-1.7479,-1.7479,-1.7479,-1.7479,-1.7479,-1.7479,-1.7479,-1.7479,-1.7479,-1.8064,-1.8415,-1.8415,-1.9068,-1.943,-1.943,-1.943,-1.943,-1.943,-1.943,-1.943,-1.9457,-1.9987,-2.0167,-2.0281,-2.0869,-2.1109,-2.1109,-2.0982,-2.0982,-2.1136,-2.1285,-2.1592,-2.2017,-2.2218,-2.2539,-2.3133,-2.4535,-2.4738,-2.467,-2.6054,-2.6455,-2.6788,-2.8262,-2.8937,-2.9609,-3.1037,-3.1377,-3.1377,-3.1377,-3.1377,-3.1488,-3.1909,-3.2221,-3.2588,-3.312,-3.345,-3.367,-3.3798,-3.1649,-2.9702,-2.9274,-2.7188,-2.5561,-2.542,-2.4944,-2.4559,-2.4402,-2.3958,-2.3652,-2.3652,-2.3724,-2.376,-2.376,-2.376,-2.376,-2.376,-2.376,-2.376,-2.376,-2.376,-2.376,-2.376,-2.376,-2.3937,-2.4049,-2.381,-2.2121,-1.6847,-1.7194,0.0,-1.7862,-1.8194,-1.8394,-1.8052,0.0,0.0,0.0,-1.7479,-1.7479,-1.7479,-1.7479,0.0,-1.7479,-1.7479,-1.7479,-1.7479,-1.7479,-1.7479,-1.7479,-1.7479,-1.7479,-1.7479,-1.7479,-1.7479,-1.7479,-1.7608,-1.7726,-1.7726,-1.7784,-1.783,-1.783,-1.8357,-1.859,-1.859,-1.9127,-1.943,-1.943,-1.943,-1.943,-1.943,-1.943,-1.943,-1.9457,-1.9987,-2.0361,-2.0615,-2.0962,-2.1109,-2.1109,-2.1109,-2.1189,-2.1309,-2.1547,-2.1804,-2.2178,-2.2352,-2.3011,-2.4006,-2.5398,-2.5868,-2.6121,-2.7519,-2.7982,-2.8196,-2.9068,-2.9739,-3.0325,-3.1184,-3.1377,-3.1377,-3.1377,-3.1377,-3.1543,-3.2111,-3.2423,-3.2771,-3.334,-3.3651,-3.3817,-3.3817,-3.1719,-2.9916,-2.9274,-2.6951,-2.5282,-2.5421,-2.5088,-2.4784,-2.4626,-2.4142,-2.376,-2.376,-2.376,-2.376,-2.376,-2.376,-2.376,-2.376,-2.376,-2.376,-2.376,-2.376,-2.376,-2.376,-2.376,-2.3973,-2.4238,-2.4504,-2.2732,-1.7152,0.0,0.0,-1.8437,-1.845,0.0,-1.8085,-1.7784,-1.7479,-1.7479,0.0,-1.7479,-1.7479,-1.7479,-1.7479,-1.7479,-1.7479,-1.7479,-1.7479,-1.7479,-1.7479,-1.7479,-1.7479,-1.7479,-1.7479,-1.7479,-1.7479,-1.7479,-1.7784,-1.7972,-1.7972,-1.8252,-1.8415,-1.8415,-1.8706,-1.8881,-1.8881,-1.9243,-1.943,-1.943,-1.943,-1.943,-1.943,-1.943,-1.9386,-1.9439,-1.9987,-2.0548,-2.1069,-2.1096,-2.1109,-2.1109,-2.1109,-2.1296,-2.1614,-2.1641,-2.1937,-2.2418,-2.2445,-2.3565,-2.521,-2.6655,-2.7172,-2.7585,-2.9068,-2.9461,-2.9461,-2.9461,-3.039,-3.1377,-3.1377,-3.1377,-3.1377,-3.1377,-3.1414,-3.1653,-3.2423,-3.2625,-3.2881,-3.3651,-3.3817,-3.3817,-3.3817,-3.2368,-3.073,-2.9082,-2.6929,-2.5471,-2.54,-2.5202,-2.497,-2.4572,-2.4092,-2.376,-2.376,-2.376,-2.376,-2.376,-2.376,-2.376,-2.376,-2.376,-2.376,-2.376,-2.376,-2.376,-2.376,-2.376,-2.3904,-2.4275,-2.4351,-2.266,-1.7341,-1.7582,0.0,0.0,-1.8581,-1.8397,-1.8357,-1.7901,-1.7479,-1.7479,-1.7479,-1.7479,-1.7479,-1.7479,-1.7479,-1.7479,-1.7479,-1.7479,-1.7479,-1.7479,-1.7479,-1.7479,-1.7479,-1.7479,-1.7479,-1.7479,-1.7479,-1.7479,-1.7784,-1.7972,-1.7972,-1.8252,-1.8415,-1.8415,-1.8706,-1.8881,-1.8881,-1.9243,-1.943,-1.943,-1.943,-1.943,-1.943,-1.943,-1.9492,-1.9733,-2.008,-2.0441,-2.0788,-2.1015,-2.1109,-2.1109,-2.1109,-2.1296,-2.1641,-2.1804,-2.2111,-2.2458,-2.2686,-2.3746,-2.521,-2.6655,-2.785,-2.9068,-3.052,-3.0926,-3.0926,-3.0926,-3.1184,-3.1377,-3.1377,-3.1377,-3.1377,-3.1377,-3.1634,-3.2001,-3.2496,-3.2863,-3.323,-3.3725,-3.3817,-3.3817,-3.3817,-3.1508,-2.8888,-2.6655,-2.5881,-2.5551,-2.5675,-2.533,-2.497,-2.4572,-2.4092,-2.376,-2.376,-2.376,-2.376,-2.376,-2.376,-2.376,-2.376,-2.376,-2.376,-2.376,-2.376,-2.376,-2.376,-2.376,-2.4082,-2.4458,-2.3087,-2.1483,-1.73,0.0,0.0,-1.8945,0.0,-1.8415,-1.8415,-1.7948,-1.7479,-1.7479,-1.7479,-1.7479,-1.7479,-1.7479,-1.7479,-1.7479,-1.7479,-1.7479,-1.7479,-1.7479,-1.7479,-1.7479,-1.7479,-1.7479,-1.7479,-1.7479,-1.755,-1.7726,-1.8018,-1.8252,-1.8428,-1.8719,-1.8894,-1.8894,-1.9068,-1.9127,-1.9127,-1.9301,-1.943,-1.943,-1.943,-1.943,-1.943,-1.943,-1.9533,-1.9813,-2.0107,-2.0401,-2.0695,-2.0989,-2.1109,-2.1109,-2.1109,-2.1376,-2.1777,-2.1937,-2.2258,-2.2781,-2.361,-2.4805,-2.6254,-2.7668,-2.9117,-3.0455,-3.1184,-3.1377,-3.1377,-3.1377,-3.1377,-3.1377,-3.1377,-3.1377,-3.1433,-3.1634,-3.1854,-3.2111,-3.2514,-3.2918,-3.334,-3.3743,-3.3817,-3.3817,-3.3817,-3.1361,-2.8554,-2.5895,-2.5638,-2.5659,-2.5463,-2.5289,-2.4891,-2.4252,-2.3932,-2.376,-2.376,-2.376,-2.376,-2.376,-2.376,-2.376,-2.376,-2.376,-2.376,-2.376,-2.376,-2.376,-2.376,-2.376,-2.4118,-2.4542,-2.2777,-2.1166,-1.7112,0.0,-1.8624,-1.9158,-1.8913,0.0,-1.8415,-1.796,-1.7537,-1.743,-1.7455,-1.7467,-1.7418,-1.7418,-1.7406,-1.7358,-1.7346,-1.7346,-1.7346,-1.7346,-1.737,-1.7406,-1.737,-1.737,-1.7406,-1.737,-1.7462,-1.7765,-1.8056,-1.8391,-1.868,-1.9039,-1.9296,-1.9292,-1.9292,-1.9319,-1.943,-1.943,-1.943,-1.943,-1.943,-1.943,-1.943,-1.943,-1.9492,-1.9746,-2.008,-2.0374,-2.0628,-2.0962,-2.1109,-2.1109,-2.1162,-2.151,-2.1991,-2.2044,-2.2593,-2.3393,-2.4602,-2.6069,-2.7652,-2.8937,-3.026,-3.1377,-3.1377,-3.1377,-3.1377,-3.1377,-3.1377,-3.1377,-3.1377,-3.1377,-3.1488,-3.1909,-3.2056,-3.2221,-3.2625,-3.3028,-3.3413,-3.3743,-3.3817,-3.359,-3.3103,-3.1174,-2.8753,-2.5908,-2.5772,-2.5753,-2.5171,-2.513,-2.4811,-2.392,-2.376,-2.376,-2.376,-2.376,-2.376,-2.376,-2.376,-2.376,-2.376,-2.376,-2.376,-2.376,-2.376,-2.376,-2.376,-2.376,-2.4118,-2.4542,-2.2433,-2.0827,0.0,0.0,-1.8571,0.0,-1.8871,-1.8765,0.0,0.0,-1.7781,0.0,-1.7322,-1.7418,-1.7189,-1.7141,-1.7068,-1.6839,-1.6803,-1.6803,-1.6803,-1.6803,-1.6887,-1.7117,-1.6948,-1.6887,-1.7117,-1.6936,-1.6803,-1.6859,-1.7366,-1.7703,-1.7759,-1.8318,-1.8718,-1.8971,-1.8985,-1.9105,-1.9417,-1.943,-1.943,-1.943,-1.943,-1.943,-1.943,-1.943,-1.9444,-1.9452,-2.0,-2.0254,-2.0334,-2.0882,-2.1109,-2.1136,-2.139,-2.1697,-2.2017,-2.2271,-2.3375,-2.4738,-2.494,-2.6737,-2.9068,-2.9265,-3.026,-3.1377,-3.1377,-3.1377,-3.1377,-3.1377,-3.1377,-3.1377,-3.1377,-3.1377,-3.1488,-3.1909,-3.2276,-3.2625,-3.3046,-3.345,-3.3743,-3.3798,-3.3817,-3.2945,-3.0288,-2.9721,-2.8753,-2.5908,-2.5772,-2.5753,-2.5171,-2.513,-2.4811,-2.392,-2.376,-2.376,-2.376,-2.376,-2.376,-2.376,-2.376,-2.376,-2.376,-2.376,-2.376,-2.376,-2.376,-2.376,-2.376,-2.376,-2.4118,-2.4542,-2.1087,-1.9637,-1.6951,-1.7608,-1.813,0.0,-1.8783,-1.8557,-1.8435,0.0,-1.7642,-1.7174,-1.7068,-1.7008,-1.6887,-1.6875,-1.6839,-1.6718,-1.6706,-1.6706,-1.6706,-1.6706,-1.6742,-1.6863,-1.6767,-1.6742,-1.6863,-1.6767,-1.675,-1.6974,-1.7365,-1.7712,-1.7867,-1.8269,-1.8544,-1.8677,-1.8677,-1.8824,-1.9118,-1.9118,-1.9199,-1.943,-1.943,-1.943,-1.943,-1.943,-1.943,-1.9457,-1.9987,-2.0167,-2.0281,-2.0869,-2.1109,-2.1136,-2.1443,-2.1724,-2.2149,-2.3231,-2.4209,-2.521,-2.6871,-2.8279,-2.9395,-3.0195,-3.0908,-3.1377,-3.1377,-3.1377,-3.1377,-3.1377,-3.1377,-3.1377,-3.1377,-3.1543,-3.1836,-3.2239,-3.2643,-3.3065,-3.3468,-3.3688,-3.3817,-3.3817,-3.3085,-3.1859,-2.9833,-2.9001,-2.8013,-2.609,-2.6012,-2.5938,-2.5197,-2.513,-2.4811,-2.392,-2.376,-2.376,-2.376,-2.376,-2.376,-2.376,-2.376,-2.376,-2.376,-2.376,-2.376,-2.376,-2.376,-2.376,-2.376,-2.376,-2.4118,-2.4542,-2.0835,-1.9382,0.0,0.0,-1.7555,-1.8384,-1.8576,-1.8503,0.0,0.0,-1.7583,0.0,-1.6835,-1.6573,-1.6501,-1.6549,-1.6573,-1.6501,-1.6489,-1.6489,-1.6489,-1.6489,-1.6513,-1.6585,-1.6537,-1.6513,-1.6585,-1.6537,-1.66,-1.6876,-1.7097,-1.744,-1.7757,-1.7989,-1.8249,-1.837,-1.8384,-1.8557,-1.8918,-1.8998,-1.9145,-1.943,-1.943,-1.943,-1.943,-1.943,-1.943,-1.9457,-1.9987,-2.0167,-2.0281,-2.0869,-2.1109,-2.1136,-2.1443,-2.1724,-2.2215,-2.396,-2.4997,-2.5868,-2.8394,-2.9526,-3.0,-3.1055,-3.1377,-3.1377,-3.1377,-3.1377,-3.1377,-3.1377,-3.1377,-3.1396,-3.1506,-3.1781,-3.2129,-3.2643,-3.2991,-3.334,-3.3725,-3.3521,-3.3242,-3.3242,-3.2017,-3.0662,-2.9331,-2.8417,-2.7502,-2.6229,-2.6199,-2.6149,-2.5368,-2.513,-2.4811,-2.408,-2.384,-2.376,-2.376,-2.376,-2.376,-2.376,-2.376,-2.376,-2.376,-2.376,-2.376,-2.376,-2.3913,-2.3913,-2.376,-2.3832,-2.4178,-2.4542,-2.1411,-1.9951,0.0,-1.6313,0.0,-1.7502,-1.829,0.0,0.0,0.0,-1.7818,-1.7328,-1.671,-1.6223,-1.5982,-1.6139,-1.6223,-1.597,-1.5934,-1.5934,-1.5934,-1.5934,-1.6018,-1.6272,-1.6079,-1.603,-1.6272,-1.6079,-1.5934,-1.5987,-1.6201,-1.6468,-1.6774,-1.7106,-1.7516,-1.8009,-1.8009,-1.8288,-1.8918,-1.9199,-1.9359,-1.943,-1.943,-1.943,-1.943,-1.943,-1.943,-1.9457,-1.9987,-2.0167,-2.0281,-2.0869,-2.1109,-2.1136,-2.1443,-2.1724,-2.2215,-2.396,-2.558,-2.7187,-2.8723,-3.0195,-3.1313,-3.1377,-3.1377,-3.1377,-3.1377,-3.1377,-3.1377,-3.1377,-3.1377,-3.1469,-3.1873,-3.1983,-3.2203,-3.301,-3.3211,-3.334,-3.3725,-3.2666,-3.1649,-3.1649,-3.064,-2.9289,-2.7792,-2.7859,-2.7668,-2.6256,-2.6199,-2.6228,-2.5832,-2.5368,-2.497,-2.4492,-2.4092,-2.376,-2.376,-2.376,-2.376,-2.376,-2.376,-2.376,-2.376,-2.376,-2.376,-2.376,-2.4094,-2.4013,-2.376,-2.4094,-2.4359,-2.4554,-2.2938,-2.1296,0.0,0.0,0.0,-1.7206,-1.7689,-1.8102,-1.8141,-1.7922,-1.7601,-1.7004,-1.655,-1.6221,-1.5963,-1.597,-1.6006,-1.591,-1.5885,-1.5885,-1.5885,-1.5885,-1.5922,-1.6018,-1.5946,-1.5922,-1.6018,-1.5946,-1.5885,-1.5885,-1.6164,-1.6324,-1.643,-1.6908,-1.7278,-1.7489,-1.7835,-1.8275,-1.8918,-1.9225,-1.943,-1.943,-1.943,-1.943,-1.943,-1.943,-1.9466,-1.9666,-2.0067,-2.0167,-2.0281,-2.0869,-2.1109,-2.1136,-2.1443,-2.2308,-2.3565,-2.5312,-2.7032,-2.8723,-3.0113,-3.0972,-3.1377,-3.1377,-3.1377,-3.1377,-3.1377,-3.1377,-3.1377,-3.1377,-3.1579,-3.1818,-3.1964,-3.2386,-3.2918,-3.3468,-3.3596,-3.3633,-3.378,-3.3381,-3.2666,-3.1719,-3.0513,-2.9221,-2.791,-2.7197,-2.6699,-2.6278,-2.6319,-2.6228,-2.5832,-2.5368,-2.497,-2.4572,-2.4092,-2.376,-2.376,-2.376,-2.376,-2.376,-2.376,-2.376,-2.376,-2.376,-2.3844,-2.4013,-2.419,-2.4106,-2.376,-2.4275,-2.454,-2.4554,-2.1747,-2.0267,-1.4816,0.0,0.0,0.0,0.0,-1.7423,-1.7897,0.0,-1.7378,-1.7089,-1.6617,-1.6271,-1.6057,-1.5939,-1.5885,-1.5885,-1.5885,-1.5885,-1.5885,-1.5885,-1.5885,-1.5885,-1.5885,-1.5885,-1.5885,-1.5885,-1.5885,-1.5885,-1.6057,-1.6217,-1.6324,-1.6749,-1.7159,-1.7476,-1.7928,-1.8382,-1.8918,-1.9225,-1.943,-1.943,-1.943,-1.943,-1.943,-1.943,-1.9533,-1.9813,-2.0107,-2.0294,-2.0414,-2.0909,-2.1109,-2.1186,-2.182,-2.2907,-2.4331,-2.6423,-2.8108,-2.9526,-3.0908,-3.1377,-3.1377,-3.1377,-3.1377,-3.1377,-3.1377,-3.1469,-3.1579,-3.1579,-3.1891,-3.2239,-3.2386,-3.2918,-3.3486,-3.3743,-3.3817,-3.3853,-3.3982,-3.3581,-3.2931,-3.1909,-3.0357,-2.8984,-2.8174,-2.6961,-2.6159,-2.636,-2.6386,-2.6228,-2.5832,-2.5368,-2.497,-2.4572,-2.4092,-2.376,-2.376,-2.376,-2.3808,-2.3892,-2.3808,-2.3844,-2.4094,-2.3941,-2.4094,-2.4359,-2.4456,-2.4371,-2.4106,-2.4552,-2.4425,-2.3758,-2.1609,-1.9991,0.0,0.0,0.0,0.0,0.0,0.0,-1.7756,0.0,-1.7238,-1.7525,-1.6873,-1.6311,-1.6324,-1.6111,-1.5885,-1.5885,-1.5885,-1.5885,-1.5885,-1.5885,-1.5885,-1.5885,-1.5885,-1.5885,-1.5885,-1.5885,-1.5885,-1.5885,-1.5885,-1.5992,-1.6271,-1.6524,-1.709,-1.7995,-1.8343,-1.8637,-1.8931,-1.9225,-1.943,-1.943,-1.943,-1.943,-1.943,-1.943,-1.9533,-1.9826,-2.012,-2.0414,-2.0708,-2.0989,-2.1109,-2.1299,-2.2591,-2.3549,-2.456,-2.7203,-2.8695,-2.9543,-3.0926,-3.1377,-3.1377,-3.1377,-3.1377,-3.1377,-3.1377,-3.1671,-3.2001,-3.2001,-3.2294,-3.2716,-3.3138,-3.3523,-3.3817,-3.3817,-3.3817,-3.3927,-3.433,-3.3251,-3.2162,-3.2073,-3.0076,-2.845,-2.8373,-2.7268,-2.6386,-2.6386,-2.6386,-2.6228,-2.5832,-2.5368,-2.497,-2.4572,-2.4092,-2.3772,-2.3772,-2.3772,-2.3973,-2.4226,-2.4009,-2.4094,-2.4601,-2.4383,-2.4371,-2.4637,-2.4902,-2.4914,-2.4649,-2.4843,-2.4109,-2.2394,-2.246,-2.0568,-1.4576,0.0,0.0,0.0,0.0,0.0,0.0,0.0,-1.6947,-1.7252,-1.6792,-1.6285,-1.6287,-1.6111,-1.5885,-1.5885,-1.5885,-1.5885,-1.5885,-1.5885,-1.5885,-1.5885,-1.5885,-1.5885,-1.5885,-1.5885,-1.5885,0.0,-1.5885,-1.5939,-1.5992,-1.6471,-1.7126,-1.8068,-1.834,-1.8731,-1.9239,-1.9332,-1.943,-1.943,-1.943,-1.943,-1.943,-1.9586,-1.984,-2.0134,-2.0428,-2.0722,-2.1002,-2.1082,-2.1664,-2.2606,-2.3277,-2.4949,-2.722,-2.8252,-2.9561,-3.0843,-3.1249,-3.1377,-3.1377,-3.1377,-3.1377,-3.1377,-3.1377,-3.1671,-3.2001,-3.2001,-3.2514,-3.3138,-3.3541,-3.3725,-3.3817,-3.3817,-3.4037,-3.4275,-3.4385,-3.4486,-3.385,-3.1276,-3.0415,-2.9351,-2.7094,-2.65,-2.6386,-2.6386,-2.6386,-2.6228,-2.5832,-2.5368,-2.497,-2.4572,-2.4092,-2.3844,-2.4025,-2.413,-2.4238,-2.4504,-2.4456,-2.448,-2.4625,-2.4552,-2.4649,-2.4843,-2.4927,-2.5108,-2.5216,-2.5289,-2.4889,-2.4193,-2.1763,-1.8654,-1.479,-1.5044,-1.5431,0.0,0.0,0.0,-1.67,-1.6794,0.0,0.0,-1.6977,-1.6663,-1.667,-1.6418,-1.6242,-1.6258,-1.6216,-1.6162,-1.6054,-1.6054,-1.6103,-1.6211,-1.6223,-1.6278,-1.6441,-1.6332,-1.6278,-1.6441,-1.6332,-1.6284,-1.639,-1.6587,-1.7152,-1.8242,-1.8435,-1.8771,-1.9417,-1.943,-1.943,-1.943,-1.943,-1.943,-1.943,-1.9666,-1.996,-2.0254,-2.0548,-2.114,-2.1902,-2.1902,-2.2404,-2.323,-2.475,-2.6479,-2.8329,-2.9281,-3.0373,-3.1377,-3.1377,-3.1377,-3.1377,-3.1377,-3.1377,-3.1414,-3.1579,-3.1928,-3.2294,-3.2459,-3.2973,-3.3523,-3.3762,-3.3817,-3.3853,-3.4018,-3.4238,-3.4495,-3.4844,-3.5284,-3.4791,-3.2026,-3.1227,-3.0176,-2.7664,-2.6738,-2.6386,-2.6386,-2.6386,-2.6149,-2.5594,-2.5391,-2.5055,-2.4412,-2.4267,-2.4226,-2.4383,-2.4395,-2.4516,-2.4782,-2.4685,-2.4721,-2.4951,-2.4854,-2.4927,-2.512,-2.5204,-2.5204,-2.5433,-2.5433,-2.4496,-2.2802,-1.999,-1.7175,-1.5137,-1.5271,-1.5551,-1.5765,0.0,0.0,-1.6817,-1.682,-1.682,0.0,-1.7265,-1.7042,-1.7081,-1.6884,-1.6655,-1.6613,-1.6671,-1.6624,-1.6375,-1.632,-1.6416,-1.667,-1.6706,-1.6806,-1.7142,-1.6918,-1.6862,-1.7142,-1.6838,-1.6771,-1.7018,-1.6835,-1.7219,-1.8366,-1.849,-1.8771,-1.9417,-1.943,-1.943,-1.943,-1.943,-1.943,-1.943,-1.9706,-1.9987,-2.0254,-2.0759,-2.1776,-2.3139,-2.3479,-2.3619,-2.3897,-2.6603,-2.8002,-2.8713,-3.0257,-3.1084,-3.1377,-3.1377,-3.1377,-3.1377,-3.1377,-3.1414,-3.1524,-3.1891,-3.2313,-3.2753,-3.3175,-3.3541,-3.3817,-3.3872,-3.3872,-3.3982,-3.4385,-3.4513,-3.4733,-3.5467,-3.565,-3.5155,-3.3346,-3.208,-3.0762,-2.8934,-2.7398,-2.6386,-2.6386,-2.6386,-2.607,-2.5209,-2.5291,-2.5132,-2.432,-2.4468,-2.4637,-2.4673,-2.4673,-2.4794,-2.4987,-2.4854,-2.4939,-2.5421,-2.5132,-2.5204,-2.5433,-2.5433,-2.5433,-2.5433,-2.5177,-2.3256,-1.9873,-1.7964,-1.613,-1.5738,-1.5872,-1.6059,-1.5872,-1.5965,0.0,-1.6086,-1.6233,-1.646,0.0,-1.65,-1.6221,-1.6443,-1.6407,-1.629,-1.6074,-1.6405,-1.6698,-1.6641,-1.6622,-1.6634,-1.6694,-1.6706,-1.6762,-1.6806,-1.6974,-1.703,-1.6806,-1.6544,-1.6399,-1.6448,-1.6621,-1.7044,-1.7742,-1.8269,-1.8771,-1.9417,-1.943,-1.943,-1.943,-1.943,-1.943,-1.9444,-1.9907,-2.0174,-2.0315,-2.1939,-2.2831,-2.3278,-2.5714,-2.671,-2.6806,-2.7753,-2.8965,-3.0402,-3.1057,-3.1304,-3.1377,-3.1377,-3.1377,-3.1377,-3.1377,-3.1616,-3.1909,-3.1983,-3.2514,-3.3193,-3.3578,-3.3762,-3.389,-3.4202,-3.4293,-3.4385,-3.4807,-3.5155,-3.543,-3.5595,-3.587,-3.5181,-3.2271,-3.1481,-3.0377,-2.7398,-2.6623,-2.6386,-2.6386,-2.6386,-2.607,-2.5209,-2.5291,-2.5132,-2.432,-2.4468,-2.4721,-2.4867,-2.4879,-2.5083,-2.5349,-2.5313,-2.5325,-2.5433,-2.5385,-2.5385,-2.5433,-2.5433,-2.5433,-2.5433,-2.3869,-2.204,-1.9873,-1.7964,-1.613,-1.6086,-1.6152,-1.6273,-1.6273,-1.6273,0.0,0.0,-1.6273,-1.6393,-1.6834,-1.66,-1.6381,-1.6685,-1.6741,-1.6678,-1.6536,-1.6853,-1.7148,-1.7105,-1.6984,-1.6948,-1.708,-1.7092,-1.715,-1.7334,-1.7494,-1.7551,-1.7391,-1.6952,-1.6738,-1.6918,-1.6924,-1.7237,-1.8004,-1.8298,-1.8735,-1.9359,-1.943,-1.943,-1.943,-1.943,-1.9439,-1.9599,-2.004,-2.0307,-2.0542,-2.2315,-2.345,-2.4209,-2.6599,-2.8122,-2.8906,-2.9377,-3.0023,-3.0846,-3.1231,-3.1377,-3.1377,-3.1377,-3.1377,-3.1377,-3.1377,-3.1653,-3.2038,-3.2239,-3.2863,-3.356,-3.3762,-3.3817,-3.3908,-3.4293,-3.4403,-3.455,-3.5174,-3.5467,-3.5669,-3.587,-3.5461,-3.4296,-3.1759,-3.0608,-2.9308,-2.6847,-2.6386,-2.6386,-2.6386,-2.6228,-2.5832,-2.5209,-2.5256,-2.5181,-2.4432,-2.4794,-2.5083,-2.5228,-2.524,-2.5301,-2.5421,-2.5433,-2.5433,-2.5433,-2.5433,-2.5433,-2.5433,-2.5433,-2.4921,-2.4041,-2.2126,-2.0828,-1.9873,-1.7964,-1.613,-1.6509,-1.6536,-1.6553,-1.6673,-1.658,-1.646,0.0,0.0,0.0,-1.6857,-1.67,0.0,0.0,0.0,0.0,0.0,0.0,0.0,0.0,-1.7229,0.0,-1.7472,-1.7392,-1.7475,-1.7886,-1.7886,-1.791,-1.8031,-1.7432,-1.7216,-1.7379,-1.7291,-1.7534,-1.8324,-1.8451,-1.8766,-1.9359,-1.943,-1.943,-1.943,-1.943,-1.9519,-1.9813,-2.0094,-2.051,-2.1177,-2.2759,-2.4193,-2.5517,-2.7378,-2.8933,-3.0241,-3.0626,-3.0846,-3.0937,-3.1267,-3.1377,-3.1377,-3.1377,-3.1377,-3.1396,-3.1469,-3.1836,-3.2313,-3.2716,-3.3285,-3.3817,-3.3817,-3.3872,-3.4018,-3.4422,-3.4587,-3.4825,-3.5559,-3.5724,-3.5815,-3.6146,-3.4914,-3.3297,-3.1606,-3.0006,-2.8388,-2.6702,-2.6386,-2.6386,-2.6386,-2.607,-2.5594,-2.513,-2.5207,-2.5133,-2.4625,-2.5108,-2.5433,-2.5433,-2.5433,-2.5433,-2.5433,-2.5433,-2.5433,-2.5433,-2.5433,-2.5433,-2.5433,-2.5433,-2.4652,-2.317,-2.1002,-1.97,-1.9351,-1.7438,-1.5785,-1.7166,-1.7286,-1.7315,-1.682,-1.6874,-1.6898,-1.6099,0.0,-1.6219,-1.6019,0.0,0.0,0.0,0.0,0.0,0.0,0.0,0.0,-1.6821,-1.7197,-1.7471,-1.7509,-1.706,-1.6988,-1.7506,-1.7576,-1.7687,-1.7948,-1.742,-1.7121,-1.7138,-1.7403,-1.7715,-1.8052,-1.8577,-1.9008,-1.9417,-1.943,-1.943,-1.943,-1.943,-1.9519,-1.9813,-2.0094,-2.0984,-2.2486,-2.4101,-2.5546,-2.6952,-2.9046,-3.0025,-3.0241,-3.0626,-3.1011,-3.1322,-3.1359,-3.1377,-3.1377,-3.1377,-3.1377,-3.1433,-3.1818,-3.2459,-3.3156,-3.356,-3.3743,-3.3817,-3.3817,-3.4073,-3.4422,-3.4844,-3.5229,-3.5595,-3.6036,-3.6146,-3.6146,-3.6201,-3.4914,-3.3297,-3.1606,-3.0006,-2.8388,-2.6702,-2.6386,-2.6386,-2.6386,-2.607,-2.5594,-2.513,-2.5207,-2.5133,-2.4625,-2.5108,-2.5433,-2.5433,-2.5433,-2.5433,-2.5433,-2.5433,-2.5433,-2.5433,-2.5433,-2.5433,-2.5433,-2.5433,-2.5263,-2.5092,-2.1608,-1.9003,-1.7351,-1.5521,-1.4476,-1.7192,-1.7286,-1.7326,-1.7021,-1.6927,-1.6754,-1.6206,-1.6046,-1.6032,0.0,0.0,0.0,0.0,0.0,0.0,0.0,-1.6547,0.0,0.0,0.0,-1.697,0.0,0.0,0.0,-1.7528,-1.7496,-1.7514,-1.7546,-1.7415,-1.7244,-1.708,-1.7359,-1.772,-1.8237,-1.8481,-1.8892,-1.9372,-1.943,-1.943,-1.943,-1.943,-2.001,-2.1222,-2.129,-2.2328,-2.404,-2.5542,-2.6459,-2.7194,-2.9303,-3.0204,-3.0259,-3.0882,-3.1231,-3.1377,-3.1377,-3.1377,-3.1377,-3.1377,-3.1377,-3.1488,-3.2129,-3.2753,-3.3303,-3.3688,-3.3817,-3.3853,-3.4092,-3.4275,-3.455,-3.521,-3.5504,-3.5724,-3.6109,-3.6201,-3.5978,-3.4989,-3.4296,-3.307,-3.0377,-2.9386,-2.8388,-2.6702,-2.6386,-2.6386,-2.6386,-2.5832,-2.534,-2.5346,-2.5062,-2.4851,-2.4854,-2.5204,-2.5433,-2.5433,-2.5433,-2.5433,-2.5433,-2.5433,-2.5433,-2.5433,-2.5433,-2.5433,-2.5433,-2.5433,-2.4909,-2.3869,-2.2309,-1.996,-1.7088,-1.5175,-1.4299,-1.7259,-1.7326,-1.7286,-1.7112,-1.686,-1.6607,-1.6233,-1.6046,-1.6005,0.0,0.0,0.0,0.0,0.0,0.0,0.0,0.0,-1.67,0.0,-1.6629,0.0,0.0,0.0,0.0,0.0,-1.7484,-1.7435,-1.7198,-1.7297,-1.7321,-1.7252,-1.7505,-1.7931,-1.8532,-1.8661,-1.8894,-1.943,-1.943,-1.943,-1.943,-1.943,-2.0358,-2.217,-2.217,-2.3429,-2.5607,-2.6581,-2.7203,-2.7694,-2.9487,-3.0204,-3.0277,-3.1066,-3.1377,-3.1377,-3.1377,-3.1377,-3.1377,-3.1377,-3.1524,-3.1799,-3.2404,-3.2955,-3.3431,-3.3725,-3.3817,-3.389,-3.4293,-3.4477,-3.4733,-3.543,-3.5705,-3.5852,-3.6146,-3.6201,-3.5903,-3.4672,-3.4145,-3.2994,-3.0083,-2.9231,-2.8388,-2.6702,-2.6386,-2.6386,-2.6386,-2.5686,-2.5206,-2.541,-2.4911,-2.4709,-2.4914,-2.524,-2.5433,-2.5433,-2.5433,-2.5433,-2.5433,-2.5433,-2.5433,-2.5433,-2.5433,-2.5433,-2.5433,-2.5433,-2.4738,-2.344,-2.2912,-2.1002,-1.7789,-1.5961,-1.4822,0.0,0.0,0.0,-1.686,0.0,0.0,-1.5931,-1.6059,-1.6308,-1.6321,-1.6486,0.0,0.0,0.0,0.0,0.0,0.0,0.0,0.0,0.0,0.0,0.0,0.0,0.0,0.0,-1.7412,-1.746,0.0,-1.7127,-1.727,-1.7571,-1.7837,-1.825,-1.8868,-1.9185,-1.9372,-1.943,-1.943,-1.943,-1.943,-1.943,-2.0358,-2.217,-2.217,-2.3909,-2.6961,-2.6961,-2.7762,-2.8989,-2.9855,-3.0204,-3.0277,-3.1066,-3.1377,-3.1377,-3.1377,-3.1377,-3.1377,-3.1377,-3.1891,-3.2551,-3.2588,-3.3138,-3.3798,-3.3817,-3.3817,-3.389,-3.4293,-3.4697,-3.51,-3.5504,-3.5907,-3.6182,-3.6201,-3.6201,-3.6201,-3.6126,-3.4914,-3.3297,-3.1529,-3.0006,-2.8388,-2.6702,-2.6386,-2.6386,-2.6386,-2.5686,-2.513,-2.5142,-2.48,-2.4625,-2.4637,-2.512,-2.5433,-2.5433,-2.5433,-2.5433,-2.5433,-2.5433,-2.5433,-2.5433,-2.5433,-2.5433,-2.5433,-2.5433,-2.5348,-2.5348,-2.3525,-2.1608,-1.9786,-1.7876,-1.6049,0.0,0.0,-1.7488,-1.7152,0.0,0.0,0.0,0.0,0.0,0.0,0.0,0.0,0.0,0.0,0.0,0.0,0.0,0.0,0.0,0.0,0.0,0.0,0.0,0.0,0.0,0.0,0.0,-1.6609,-1.7064,0.0,-1.7322,-1.774,-1.8268,-1.8881,-1.8997,-1.9185,-1.943,-1.943,-1.943,-1.943,-1.9559,-2.101,-2.3535,-2.3709,-2.5452,-2.8301,-2.8301,-2.8763,-2.9415,-2.9965,-3.0351,-3.0644,-3.1176,-3.1377,-3.1377,-3.1377,-3.1377,-3.1414,-3.1689,-3.2148,-3.2643,-3.2918,-3.3376,-3.3817,-3.3817,-3.4,-3.4293,-3.4697,-3.51,-3.5504,-3.5907,-3.6109,-3.6201,-3.6201,-3.6201,-3.5903,-3.4822,-3.4989,-3.4296,-3.0469,-3.016,-2.9619,-2.6847,-2.6386,-2.6307,-2.607,-2.5527,-2.5109,-2.5219,-2.4845,-2.4758,-2.512,-2.5325,-2.5433,-2.5433,-2.5433,-2.5433,-2.5433,-2.5433,-2.5433,-2.5433,-2.5433,-2.5433,-2.5433,-2.5433,-2.5433,-2.5433,-2.3525,-2.1694,-1.9873,-1.7964,-1.613,-1.7528,-1.7582,0.0,-1.7407,-1.7139,0.0,-1.6683,0.0,-1.6656,0.0,0.0,0.0,0.0,0.0,0.0,0.0,0.0,0.0,0.0,-1.6496,0.0,0.0,0.0,0.0,0.0,0.0,-1.7211,-1.6655,-1.6971,0.0,0.0,-1.7862,-1.8326,-1.9055,-1.9055,-1.9185,-1.943,-1.943,-1.943,-1.943,-2.0182,-2.1803,-2.4242,-2.4968,-2.6662,-2.8993,-2.914,-2.9342,-2.9617,-3.0185,-3.0552,-3.0827,-3.1231,-3.1377,-3.1377,-3.1377,-3.1377,-3.1433,-3.1854,-3.2258,-3.2661,-3.3083,-3.3486,-3.3817,-3.3817,-3.4092,-3.4495,-3.4917,-3.532,-3.5705,-3.6109,-3.6201,-3.6201,-3.6201,-3.6201,-3.5903,-3.4914,-3.5438,-3.4896,-3.0608,-3.0608,-3.0222,-2.7004,-2.6307,-2.607,-2.5832,-2.5368,-2.5135,-2.5181,-2.4824,-2.4794,-2.5252,-2.5385,-2.5433,-2.5433,-2.5433,-2.5433,-2.5433,-2.5433,-2.5433,-2.5433,-2.5433,-2.5433,-2.5433,-2.5433,-2.5433,-2.5433,-2.3525,-2.1694,-1.9873,-1.7964,-1.613]}]]